<?xml version="1.0" encoding="UTF-8" standalone="no" ?>
<gpx xmlns="http://www.topografix.com/GPX/1/1" xmlns:xsi="http://www.w3.org/2001/XMLSchema-instance" xsi:schemaLocation="http://www.topografix.com/GPX/1/1 http://www.topografix.com/GPX/1/1/gpx.xsd" version="1.1" creator="VisuGPX - https://www.visugpx.com">
  <metadata>
    <name>VTC bord de saone</name>
  </metadata>
  <trk>
    <name><![CDATA[VTC bord de saone_1]]></name>
    <trkseg>
      <trkpt lat="46.31343" lon="4.87466">
        <ele>177.8</ele>
        <time>2021-07-11T11:30:49Z</time>
      </trkpt>
      <trkpt lat="46.31342" lon="4.87466">
        <ele>177.8</ele>
        <time>2021-07-11T11:30:50Z</time>
      </trkpt>
      <trkpt lat="46.31352" lon="4.87466">
        <ele>178</ele>
        <time>2021-07-11T11:31:38Z</time>
      </trkpt>
      <trkpt lat="46.31356" lon="4.87468">
        <ele>178</ele>
        <time>2021-07-11T11:31:40Z</time>
      </trkpt>
      <trkpt lat="46.31376" lon="4.87478">
        <ele>178</ele>
        <time>2021-07-11T11:31:47Z</time>
      </trkpt>
      <trkpt lat="46.31398" lon="4.87481">
        <ele>178</ele>
        <time>2021-07-11T11:31:53Z</time>
      </trkpt>
      <trkpt lat="46.31429" lon="4.87493">
        <ele>178</ele>
        <time>2021-07-11T11:32:01Z</time>
      </trkpt>
      <trkpt lat="46.31455" lon="4.87506">
        <ele>178.2</ele>
        <time>2021-07-11T11:32:08Z</time>
      </trkpt>
      <trkpt lat="46.31487" lon="4.87521">
        <ele>178.2</ele>
        <time>2021-07-11T11:32:17Z</time>
      </trkpt>
      <trkpt lat="46.31494" lon="4.87521">
        <ele>178.4</ele>
        <time>2021-07-11T11:32:19Z</time>
      </trkpt>
      <trkpt lat="46.31496" lon="4.87518">
        <ele>178.4</ele>
        <time>2021-07-11T11:32:20Z</time>
      </trkpt>
      <trkpt lat="46.31502" lon="4.87498">
        <ele>178.6</ele>
        <time>2021-07-11T11:32:24Z</time>
      </trkpt>
      <trkpt lat="46.31509" lon="4.87453">
        <ele>178.4</ele>
        <time>2021-07-11T11:32:31Z</time>
      </trkpt>
      <trkpt lat="46.31519" lon="4.87412">
        <ele>177.6</ele>
        <time>2021-07-11T11:32:37Z</time>
      </trkpt>
      <trkpt lat="46.31531" lon="4.87362">
        <ele>176.8</ele>
        <time>2021-07-11T11:32:44Z</time>
      </trkpt>
      <trkpt lat="46.31542" lon="4.87316">
        <ele>175.6</ele>
        <time>2021-07-11T11:32:51Z</time>
      </trkpt>
      <trkpt lat="46.31548" lon="4.87297">
        <ele>175.4</ele>
        <time>2021-07-11T11:32:54Z</time>
      </trkpt>
      <trkpt lat="46.31557" lon="4.87266">
        <ele>175.2</ele>
        <time>2021-07-11T11:32:59Z</time>
      </trkpt>
      <trkpt lat="46.31561" lon="4.87253">
        <ele>175</ele>
        <time>2021-07-11T11:33:01Z</time>
      </trkpt>
      <trkpt lat="46.31575" lon="4.87203">
        <ele>174.6</ele>
        <time>2021-07-11T11:33:09Z</time>
      </trkpt>
      <trkpt lat="46.31577" lon="4.87197">
        <ele>174.6</ele>
        <time>2021-07-11T11:33:10Z</time>
      </trkpt>
      <trkpt lat="46.31594" lon="4.87137">
        <ele>174.2</ele>
        <time>2021-07-11T11:33:19Z</time>
      </trkpt>
      <trkpt lat="46.31613" lon="4.87069">
        <ele>174</ele>
        <time>2021-07-11T11:33:29Z</time>
      </trkpt>
      <trkpt lat="46.31628" lon="4.87014">
        <ele>174</ele>
        <time>2021-07-11T11:33:37Z</time>
      </trkpt>
      <trkpt lat="46.31639" lon="4.86975">
        <ele>174</ele>
        <time>2021-07-11T11:33:43Z</time>
      </trkpt>
      <trkpt lat="46.31641" lon="4.8697">
        <ele>174</ele>
        <time>2021-07-11T11:33:44Z</time>
      </trkpt>
      <trkpt lat="46.31652" lon="4.86968">
        <ele>174</ele>
        <time>2021-07-11T11:33:47Z</time>
      </trkpt>
      <trkpt lat="46.31662" lon="4.86973">
        <ele>174</ele>
        <time>2021-07-11T11:33:49Z</time>
      </trkpt>
      <trkpt lat="46.31678" lon="4.86981">
        <ele>174</ele>
        <time>2021-07-11T11:33:52Z</time>
      </trkpt>
      <trkpt lat="46.31723" lon="4.87003">
        <ele>174.2</ele>
        <time>2021-07-11T11:34:01Z</time>
      </trkpt>
      <trkpt lat="46.31752" lon="4.87021">
        <ele>174.2</ele>
        <time>2021-07-11T11:34:07Z</time>
      </trkpt>
      <trkpt lat="46.31782" lon="4.87051">
        <ele>174.2</ele>
        <time>2021-07-11T11:34:14Z</time>
      </trkpt>
      <trkpt lat="46.31786" lon="4.87055">
        <ele>174.2</ele>
        <time>2021-07-11T11:34:15Z</time>
      </trkpt>
      <trkpt lat="46.3181" lon="4.87069">
        <ele>174.2</ele>
        <time>2021-07-11T11:34:20Z</time>
      </trkpt>
      <trkpt lat="46.31844" lon="4.87084">
        <ele>174.2</ele>
        <time>2021-07-11T11:34:27Z</time>
      </trkpt>
      <trkpt lat="46.31896" lon="4.87108">
        <ele>174.4</ele>
        <time>2021-07-11T11:34:37Z</time>
      </trkpt>
      <trkpt lat="46.31923" lon="4.87124">
        <ele>174.2</ele>
        <time>2021-07-11T11:34:43Z</time>
      </trkpt>
      <trkpt lat="46.31926" lon="4.87125">
        <ele>174.2</ele>
        <time>2021-07-11T11:34:44Z</time>
      </trkpt>
      <trkpt lat="46.31931" lon="4.87121">
        <ele>174.2</ele>
        <time>2021-07-11T11:34:46Z</time>
      </trkpt>
      <trkpt lat="46.31929" lon="4.87107">
        <ele>174.2</ele>
        <time>2021-07-11T11:34:49Z</time>
      </trkpt>
      <trkpt lat="46.31928" lon="4.87101">
        <ele>174.2</ele>
        <time>2021-07-11T11:34:50Z</time>
      </trkpt>
      <trkpt lat="46.31916" lon="4.87066">
        <ele>174.2</ele>
        <time>2021-07-11T11:34:56Z</time>
      </trkpt>
      <trkpt lat="46.31901" lon="4.87028">
        <ele>174.2</ele>
        <time>2021-07-11T11:35:02Z</time>
      </trkpt>
      <trkpt lat="46.31885" lon="4.86992">
        <ele>174.4</ele>
        <time>2021-07-11T11:35:08Z</time>
      </trkpt>
      <trkpt lat="46.31866" lon="4.86947">
        <ele>174.4</ele>
        <time>2021-07-11T11:35:15Z</time>
      </trkpt>
      <trkpt lat="46.31844" lon="4.86893">
        <ele>174.2</ele>
        <time>2021-07-11T11:35:23Z</time>
      </trkpt>
      <trkpt lat="46.3182" lon="4.86839">
        <ele>174.2</ele>
        <time>2021-07-11T11:35:31Z</time>
      </trkpt>
      <trkpt lat="46.31804" lon="4.86799">
        <ele>174</ele>
        <time>2021-07-11T11:35:37Z</time>
      </trkpt>
      <trkpt lat="46.318" lon="4.86784">
        <ele>174</ele>
        <time>2021-07-11T11:35:39Z</time>
      </trkpt>
      <trkpt lat="46.31799" lon="4.8676">
        <ele>174.2</ele>
        <time>2021-07-11T11:35:42Z</time>
      </trkpt>
      <trkpt lat="46.31799" lon="4.86752">
        <ele>174.2</ele>
        <time>2021-07-11T11:35:43Z</time>
      </trkpt>
      <trkpt lat="46.31808" lon="4.86689">
        <ele>174.2</ele>
        <time>2021-07-11T11:35:51Z</time>
      </trkpt>
      <trkpt lat="46.3182" lon="4.86653">
        <ele>174.2</ele>
        <time>2021-07-11T11:35:56Z</time>
      </trkpt>
      <trkpt lat="46.31823" lon="4.86646">
        <ele>174.2</ele>
        <time>2021-07-11T11:35:57Z</time>
      </trkpt>
      <trkpt lat="46.31838" lon="4.86604">
        <ele>174.2</ele>
        <time>2021-07-11T11:36:03Z</time>
      </trkpt>
      <trkpt lat="46.3184" lon="4.86597">
        <ele>174.2</ele>
        <time>2021-07-11T11:36:04Z</time>
      </trkpt>
      <trkpt lat="46.31843" lon="4.86565">
        <ele>174.2</ele>
        <time>2021-07-11T11:36:08Z</time>
      </trkpt>
      <trkpt lat="46.31843" lon="4.86557">
        <ele>174.2</ele>
        <time>2021-07-11T11:36:09Z</time>
      </trkpt>
      <trkpt lat="46.31842" lon="4.86476">
        <ele>174.2</ele>
        <time>2021-07-11T11:36:19Z</time>
      </trkpt>
      <trkpt lat="46.31837" lon="4.86421">
        <ele>174.2</ele>
        <time>2021-07-11T11:36:26Z</time>
      </trkpt>
      <trkpt lat="46.31829" lon="4.86357">
        <ele>174.2</ele>
        <time>2021-07-11T11:36:34Z</time>
      </trkpt>
      <trkpt lat="46.31829" lon="4.86349">
        <ele>174.2</ele>
        <time>2021-07-11T11:36:35Z</time>
      </trkpt>
      <trkpt lat="46.31832" lon="4.86326">
        <ele>174.2</ele>
        <time>2021-07-11T11:36:38Z</time>
      </trkpt>
      <trkpt lat="46.31841" lon="4.86306">
        <ele>174.2</ele>
        <time>2021-07-11T11:36:41Z</time>
      </trkpt>
      <trkpt lat="46.31847" lon="4.86293">
        <ele>174.4</ele>
        <time>2021-07-11T11:36:43Z</time>
      </trkpt>
      <trkpt lat="46.31865" lon="4.86253">
        <ele>174.4</ele>
        <time>2021-07-11T11:36:49Z</time>
      </trkpt>
      <trkpt lat="46.31872" lon="4.8624">
        <ele>174.4</ele>
        <time>2021-07-11T11:36:51Z</time>
      </trkpt>
      <trkpt lat="46.31894" lon="4.86194">
        <ele>174.4</ele>
        <time>2021-07-11T11:36:58Z</time>
      </trkpt>
      <trkpt lat="46.31926" lon="4.8613">
        <ele>174.4</ele>
        <time>2021-07-11T11:37:08Z</time>
      </trkpt>
      <trkpt lat="46.31931" lon="4.86117">
        <ele>174.6</ele>
        <time>2021-07-11T11:37:10Z</time>
      </trkpt>
      <trkpt lat="46.31956" lon="4.86067">
        <ele>174.6</ele>
        <time>2021-07-11T11:37:18Z</time>
      </trkpt>
      <trkpt lat="46.31969" lon="4.86043">
        <ele>174.4</ele>
        <time>2021-07-11T11:37:22Z</time>
      </trkpt>
      <trkpt lat="46.31976" lon="4.86031">
        <ele>174.4</ele>
        <time>2021-07-11T11:37:24Z</time>
      </trkpt>
      <trkpt lat="46.31979" lon="4.86025">
        <ele>174.4</ele>
        <time>2021-07-11T11:37:25Z</time>
      </trkpt>
      <trkpt lat="46.31982" lon="4.86018">
        <ele>174.4</ele>
        <time>2021-07-11T11:37:26Z</time>
      </trkpt>
      <trkpt lat="46.31993" lon="4.85992">
        <ele>174.2</ele>
        <time>2021-07-11T11:37:30Z</time>
      </trkpt>
      <trkpt lat="46.32" lon="4.85981">
        <ele>174.2</ele>
        <time>2021-07-11T11:37:32Z</time>
      </trkpt>
      <trkpt lat="46.3201" lon="4.85963">
        <ele>174</ele>
        <time>2021-07-11T11:37:35Z</time>
      </trkpt>
      <trkpt lat="46.32013" lon="4.85957">
        <ele>173.8</ele>
        <time>2021-07-11T11:37:36Z</time>
      </trkpt>
      <trkpt lat="46.32027" lon="4.85926">
        <ele>173.8</ele>
        <time>2021-07-11T11:37:41Z</time>
      </trkpt>
      <trkpt lat="46.32034" lon="4.85906">
        <ele>173.6</ele>
        <time>2021-07-11T11:37:44Z</time>
      </trkpt>
      <trkpt lat="46.32049" lon="4.8586">
        <ele>173.6</ele>
        <time>2021-07-11T11:37:51Z</time>
      </trkpt>
      <trkpt lat="46.3206" lon="4.85828">
        <ele>173.6</ele>
        <time>2021-07-11T11:37:56Z</time>
      </trkpt>
      <trkpt lat="46.32067" lon="4.85809">
        <ele>173.8</ele>
        <time>2021-07-11T11:37:59Z</time>
      </trkpt>
      <trkpt lat="46.32074" lon="4.85782">
        <ele>174</ele>
        <time>2021-07-11T11:38:03Z</time>
      </trkpt>
      <trkpt lat="46.32079" lon="4.85762">
        <ele>174.2</ele>
        <time>2021-07-11T11:38:06Z</time>
      </trkpt>
      <trkpt lat="46.32093" lon="4.85699">
        <ele>174</ele>
        <time>2021-07-11T11:38:15Z</time>
      </trkpt>
      <trkpt lat="46.32103" lon="4.85659">
        <ele>174</ele>
        <time>2021-07-11T11:38:21Z</time>
      </trkpt>
      <trkpt lat="46.32107" lon="4.85626">
        <ele>174</ele>
        <time>2021-07-11T11:38:26Z</time>
      </trkpt>
      <trkpt lat="46.32109" lon="4.85622">
        <ele>174</ele>
        <time>2021-07-11T11:38:27Z</time>
      </trkpt>
      <trkpt lat="46.32117" lon="4.85619">
        <ele>174</ele>
        <time>2021-07-11T11:38:30Z</time>
      </trkpt>
      <trkpt lat="46.3212" lon="4.8562">
        <ele>174</ele>
        <time>2021-07-11T11:38:31Z</time>
      </trkpt>
      <trkpt lat="46.32137" lon="4.85623">
        <ele>174</ele>
        <time>2021-07-11T11:38:36Z</time>
      </trkpt>
      <trkpt lat="46.32148" lon="4.8563">
        <ele>173.8</ele>
        <time>2021-07-11T11:38:39Z</time>
      </trkpt>
      <trkpt lat="46.32158" lon="4.8564">
        <ele>173.8</ele>
        <time>2021-07-11T11:38:42Z</time>
      </trkpt>
      <trkpt lat="46.3218" lon="4.85663">
        <ele>174</ele>
        <time>2021-07-11T11:38:49Z</time>
      </trkpt>
      <trkpt lat="46.32206" lon="4.85688">
        <ele>173.8</ele>
        <time>2021-07-11T11:38:56Z</time>
      </trkpt>
      <trkpt lat="46.32243" lon="4.8572">
        <ele>174</ele>
        <time>2021-07-11T11:39:05Z</time>
      </trkpt>
      <trkpt lat="46.32278" lon="4.8575">
        <ele>173.8</ele>
        <time>2021-07-11T11:39:14Z</time>
      </trkpt>
      <trkpt lat="46.3231" lon="4.85777">
        <ele>173.8</ele>
        <time>2021-07-11T11:39:22Z</time>
      </trkpt>
      <trkpt lat="46.32343" lon="4.85804">
        <ele>174.2</ele>
        <time>2021-07-11T11:39:30Z</time>
      </trkpt>
      <trkpt lat="46.32358" lon="4.85816">
        <ele>174.2</ele>
        <time>2021-07-11T11:39:34Z</time>
      </trkpt>
      <trkpt lat="46.32365" lon="4.85822">
        <ele>174.4</ele>
        <time>2021-07-11T11:39:36Z</time>
      </trkpt>
      <trkpt lat="46.32396" lon="4.85846">
        <ele>174.6</ele>
        <time>2021-07-11T11:39:44Z</time>
      </trkpt>
      <trkpt lat="46.32433" lon="4.85876">
        <ele>174.8</ele>
        <time>2021-07-11T11:39:53Z</time>
      </trkpt>
      <trkpt lat="46.32453" lon="4.85893">
        <ele>174.8</ele>
        <time>2021-07-11T11:39:58Z</time>
      </trkpt>
      <trkpt lat="46.32461" lon="4.85899">
        <ele>174.8</ele>
        <time>2021-07-11T11:40:00Z</time>
      </trkpt>
      <trkpt lat="46.3249" lon="4.85919">
        <ele>174.4</ele>
        <time>2021-07-11T11:40:07Z</time>
      </trkpt>
      <trkpt lat="46.32524" lon="4.85944">
        <ele>174.2</ele>
        <time>2021-07-11T11:40:15Z</time>
      </trkpt>
      <trkpt lat="46.32528" lon="4.85947">
        <ele>174.2</ele>
        <time>2021-07-11T11:40:16Z</time>
      </trkpt>
      <trkpt lat="46.32553" lon="4.85964">
        <ele>174.2</ele>
        <time>2021-07-11T11:40:22Z</time>
      </trkpt>
      <trkpt lat="46.32589" lon="4.85992">
        <ele>174.4</ele>
        <time>2021-07-11T11:40:31Z</time>
      </trkpt>
      <trkpt lat="46.32623" lon="4.86018">
        <ele>174.8</ele>
        <time>2021-07-11T11:40:39Z</time>
      </trkpt>
      <trkpt lat="46.32649" lon="4.86038">
        <ele>175</ele>
        <time>2021-07-11T11:40:45Z</time>
      </trkpt>
      <trkpt lat="46.32678" lon="4.86061">
        <ele>175</ele>
        <time>2021-07-11T11:40:52Z</time>
      </trkpt>
      <trkpt lat="46.32703" lon="4.86086">
        <ele>175.2</ele>
        <time>2021-07-11T11:40:59Z</time>
      </trkpt>
      <trkpt lat="46.32723" lon="4.86105">
        <ele>175.4</ele>
        <time>2021-07-11T11:41:05Z</time>
      </trkpt>
      <trkpt lat="46.32727" lon="4.86109">
        <ele>175.4</ele>
        <time>2021-07-11T11:41:06Z</time>
      </trkpt>
      <trkpt lat="46.3274" lon="4.86122">
        <ele>175.4</ele>
        <time>2021-07-11T11:41:10Z</time>
      </trkpt>
      <trkpt lat="46.32744" lon="4.86126">
        <ele>175.6</ele>
        <time>2021-07-11T11:41:11Z</time>
      </trkpt>
      <trkpt lat="46.32767" lon="4.86151">
        <ele>175.4</ele>
        <time>2021-07-11T11:41:18Z</time>
      </trkpt>
      <trkpt lat="46.32784" lon="4.86177">
        <ele>175.6</ele>
        <time>2021-07-11T11:41:25Z</time>
      </trkpt>
      <trkpt lat="46.32803" lon="4.86205">
        <ele>175.6</ele>
        <time>2021-07-11T11:41:32Z</time>
      </trkpt>
      <trkpt lat="46.32836" lon="4.86236">
        <ele>176</ele>
        <time>2021-07-11T11:41:42Z</time>
      </trkpt>
      <trkpt lat="46.32859" lon="4.86256">
        <ele>176</ele>
        <time>2021-07-11T11:41:49Z</time>
      </trkpt>
      <trkpt lat="46.32862" lon="4.8626">
        <ele>176</ele>
        <time>2021-07-11T11:41:50Z</time>
      </trkpt>
      <trkpt lat="46.32877" lon="4.86274">
        <ele>175.8</ele>
        <time>2021-07-11T11:41:54Z</time>
      </trkpt>
      <trkpt lat="46.32909" lon="4.86303">
        <ele>175.2</ele>
        <time>2021-07-11T11:42:02Z</time>
      </trkpt>
      <trkpt lat="46.32952" lon="4.86336">
        <ele>175.2</ele>
        <time>2021-07-11T11:42:12Z</time>
      </trkpt>
      <trkpt lat="46.3298" lon="4.86351">
        <ele>175.2</ele>
        <time>2021-07-11T11:42:18Z</time>
      </trkpt>
      <trkpt lat="46.33022" lon="4.86368">
        <ele>175.2</ele>
        <time>2021-07-11T11:42:26Z</time>
      </trkpt>
      <trkpt lat="46.3306" lon="4.86382">
        <ele>175</ele>
        <time>2021-07-11T11:42:33Z</time>
      </trkpt>
      <trkpt lat="46.33104" lon="4.86401">
        <ele>174.8</ele>
        <time>2021-07-11T11:42:41Z</time>
      </trkpt>
      <trkpt lat="46.33144" lon="4.86423">
        <ele>174.6</ele>
        <time>2021-07-11T11:42:49Z</time>
      </trkpt>
      <trkpt lat="46.33171" lon="4.86451">
        <ele>174.4</ele>
        <time>2021-07-11T11:42:55Z</time>
      </trkpt>
      <trkpt lat="46.332" lon="4.86487">
        <ele>174.4</ele>
        <time>2021-07-11T11:43:02Z</time>
      </trkpt>
      <trkpt lat="46.33204" lon="4.86492">
        <ele>174.4</ele>
        <time>2021-07-11T11:43:03Z</time>
      </trkpt>
      <trkpt lat="46.33233" lon="4.86536">
        <ele>174.6</ele>
        <time>2021-07-11T11:43:11Z</time>
      </trkpt>
      <trkpt lat="46.33267" lon="4.86596">
        <ele>174.6</ele>
        <time>2021-07-11T11:43:21Z</time>
      </trkpt>
      <trkpt lat="46.33287" lon="4.8665">
        <ele>174.8</ele>
        <time>2021-07-11T11:43:29Z</time>
      </trkpt>
      <trkpt lat="46.33308" lon="4.86707">
        <ele>174.8</ele>
        <time>2021-07-11T11:43:37Z</time>
      </trkpt>
      <trkpt lat="46.33333" lon="4.86761">
        <ele>174.6</ele>
        <time>2021-07-11T11:43:45Z</time>
      </trkpt>
      <trkpt lat="46.33368" lon="4.86825">
        <ele>174.6</ele>
        <time>2021-07-11T11:43:55Z</time>
      </trkpt>
      <trkpt lat="46.33372" lon="4.86831">
        <ele>174.6</ele>
        <time>2021-07-11T11:43:56Z</time>
      </trkpt>
      <trkpt lat="46.33397" lon="4.86875">
        <ele>174.6</ele>
        <time>2021-07-11T11:44:03Z</time>
      </trkpt>
      <trkpt lat="46.33399" lon="4.86882">
        <ele>174.4</ele>
        <time>2021-07-11T11:44:04Z</time>
      </trkpt>
      <trkpt lat="46.3341" lon="4.86923">
        <ele>174.6</ele>
        <time>2021-07-11T11:44:10Z</time>
      </trkpt>
      <trkpt lat="46.3342" lon="4.86969">
        <ele>174.6</ele>
        <time>2021-07-11T11:44:16Z</time>
      </trkpt>
      <trkpt lat="46.33431" lon="4.87026">
        <ele>174.8</ele>
        <time>2021-07-11T11:44:23Z</time>
      </trkpt>
      <trkpt lat="46.3344" lon="4.87072">
        <ele>175</ele>
        <time>2021-07-11T11:44:29Z</time>
      </trkpt>
      <trkpt lat="46.33444" lon="4.87086">
        <ele>175</ele>
        <time>2021-07-11T11:44:31Z</time>
      </trkpt>
      <trkpt lat="46.33458" lon="4.87107">
        <ele>175.2</ele>
        <time>2021-07-11T11:44:35Z</time>
      </trkpt>
      <trkpt lat="46.33473" lon="4.87124">
        <ele>175.2</ele>
        <time>2021-07-11T11:44:39Z</time>
      </trkpt>
      <trkpt lat="46.33481" lon="4.87131">
        <ele>175.2</ele>
        <time>2021-07-11T11:44:41Z</time>
      </trkpt>
      <trkpt lat="46.33492" lon="4.87153">
        <ele>175.2</ele>
        <time>2021-07-11T11:44:45Z</time>
      </trkpt>
      <trkpt lat="46.33488" lon="4.87175">
        <ele>175.2</ele>
        <time>2021-07-11T11:44:48Z</time>
      </trkpt>
      <trkpt lat="46.33479" lon="4.87194">
        <ele>175</ele>
        <time>2021-07-11T11:44:51Z</time>
      </trkpt>
      <trkpt lat="46.33471" lon="4.87206">
        <ele>175</ele>
        <time>2021-07-11T11:44:53Z</time>
      </trkpt>
      <trkpt lat="46.33447" lon="4.87239">
        <ele>174.8</ele>
        <time>2021-07-11T11:44:59Z</time>
      </trkpt>
      <trkpt lat="46.33443" lon="4.87244">
        <ele>174.8</ele>
        <time>2021-07-11T11:45:00Z</time>
      </trkpt>
      <trkpt lat="46.33435" lon="4.87265">
        <ele>174.8</ele>
        <time>2021-07-11T11:45:03Z</time>
      </trkpt>
      <trkpt lat="46.33433" lon="4.87296">
        <ele>174.8</ele>
        <time>2021-07-11T11:45:07Z</time>
      </trkpt>
      <trkpt lat="46.33436" lon="4.87361">
        <ele>175</ele>
        <time>2021-07-11T11:45:15Z</time>
      </trkpt>
      <trkpt lat="46.33438" lon="4.87428">
        <ele>175.4</ele>
        <time>2021-07-11T11:45:23Z</time>
      </trkpt>
      <trkpt lat="46.33432" lon="4.87498">
        <ele>175.6</ele>
        <time>2021-07-11T11:45:32Z</time>
      </trkpt>
      <trkpt lat="46.3343" lon="4.87512">
        <ele>175.6</ele>
        <time>2021-07-11T11:45:34Z</time>
      </trkpt>
      <trkpt lat="46.33428" lon="4.87537">
        <ele>175.6</ele>
        <time>2021-07-11T11:45:38Z</time>
      </trkpt>
      <trkpt lat="46.33432" lon="4.87553">
        <ele>175.6</ele>
        <time>2021-07-11T11:45:41Z</time>
      </trkpt>
      <trkpt lat="46.33435" lon="4.87555">
        <ele>175.6</ele>
        <time>2021-07-11T11:45:42Z</time>
      </trkpt>
      <trkpt lat="46.33447" lon="4.87558">
        <ele>175.6</ele>
        <time>2021-07-11T11:45:46Z</time>
      </trkpt>
      <trkpt lat="46.33465" lon="4.87562">
        <ele>175.6</ele>
        <time>2021-07-11T11:45:53Z</time>
      </trkpt>
      <trkpt lat="46.33469" lon="4.87563">
        <ele>175.4</ele>
        <time>2021-07-11T11:45:57Z</time>
      </trkpt>
      <trkpt lat="46.3347" lon="4.87563">
        <ele>175.6</ele>
        <time>2021-07-11T11:45:58Z</time>
      </trkpt>
      <trkpt lat="46.33475" lon="4.87562">
        <ele>176</ele>
        <time>2021-07-11T11:46:33Z</time>
      </trkpt>
      <trkpt lat="46.33478" lon="4.87563">
        <ele>176</ele>
        <time>2021-07-11T11:46:35Z</time>
      </trkpt>
      <trkpt lat="46.33494" lon="4.87567">
        <ele>176.2</ele>
        <time>2021-07-11T11:46:40Z</time>
      </trkpt>
      <trkpt lat="46.33498" lon="4.87569">
        <ele>176.2</ele>
        <time>2021-07-11T11:46:41Z</time>
      </trkpt>
      <trkpt lat="46.33517" lon="4.87576">
        <ele>176.2</ele>
        <time>2021-07-11T11:46:45Z</time>
      </trkpt>
      <trkpt lat="46.33554" lon="4.87594">
        <ele>176</ele>
        <time>2021-07-11T11:46:52Z</time>
      </trkpt>
      <trkpt lat="46.3356" lon="4.87598">
        <ele>176</ele>
        <time>2021-07-11T11:46:53Z</time>
      </trkpt>
      <trkpt lat="46.33604" lon="4.87633">
        <ele>176</ele>
        <time>2021-07-11T11:47:01Z</time>
      </trkpt>
      <trkpt lat="46.33642" lon="4.87667">
        <ele>176.2</ele>
        <time>2021-07-11T11:47:09Z</time>
      </trkpt>
      <trkpt lat="46.33654" lon="4.8768">
        <ele>176.4</ele>
        <time>2021-07-11T11:47:12Z</time>
      </trkpt>
      <trkpt lat="46.33677" lon="4.87707">
        <ele>177</ele>
        <time>2021-07-11T11:47:18Z</time>
      </trkpt>
      <trkpt lat="46.33698" lon="4.87729">
        <ele>177.6</ele>
        <time>2021-07-11T11:47:23Z</time>
      </trkpt>
      <trkpt lat="46.33706" lon="4.87738">
        <ele>177.8</ele>
        <time>2021-07-11T11:47:25Z</time>
      </trkpt>
      <trkpt lat="46.33744" lon="4.87778">
        <ele>178.2</ele>
        <time>2021-07-11T11:47:34Z</time>
      </trkpt>
      <trkpt lat="46.33748" lon="4.87783">
        <ele>178.2</ele>
        <time>2021-07-11T11:47:35Z</time>
      </trkpt>
      <trkpt lat="46.33762" lon="4.87794">
        <ele>178.2</ele>
        <time>2021-07-11T11:47:38Z</time>
      </trkpt>
      <trkpt lat="46.33767" lon="4.87797">
        <ele>178.2</ele>
        <time>2021-07-11T11:47:39Z</time>
      </trkpt>
      <trkpt lat="46.33794" lon="4.87806">
        <ele>178.4</ele>
        <time>2021-07-11T11:47:44Z</time>
      </trkpt>
      <trkpt lat="46.33805" lon="4.87807">
        <ele>178.4</ele>
        <time>2021-07-11T11:47:46Z</time>
      </trkpt>
      <trkpt lat="46.33842" lon="4.87808">
        <ele>178.6</ele>
        <time>2021-07-11T11:47:53Z</time>
      </trkpt>
      <trkpt lat="46.3385" lon="4.87808">
        <ele>178.6</ele>
        <time>2021-07-11T11:47:56Z</time>
      </trkpt>
      <trkpt lat="46.33852" lon="4.87806">
        <ele>178.6</ele>
        <time>2021-07-11T11:47:57Z</time>
      </trkpt>
      <trkpt lat="46.33856" lon="4.87787">
        <ele>178.6</ele>
        <time>2021-07-11T11:48:01Z</time>
      </trkpt>
      <trkpt lat="46.33856" lon="4.87781">
        <ele>178.6</ele>
        <time>2021-07-11T11:48:02Z</time>
      </trkpt>
      <trkpt lat="46.33857" lon="4.87775">
        <ele>178.6</ele>
        <time>2021-07-11T11:48:03Z</time>
      </trkpt>
      <trkpt lat="46.33861" lon="4.87747">
        <ele>178.6</ele>
        <time>2021-07-11T11:48:07Z</time>
      </trkpt>
      <trkpt lat="46.33863" lon="4.8774">
        <ele>178.6</ele>
        <time>2021-07-11T11:48:08Z</time>
      </trkpt>
      <trkpt lat="46.33869" lon="4.87708">
        <ele>178.4</ele>
        <time>2021-07-11T11:48:12Z</time>
      </trkpt>
      <trkpt lat="46.33882" lon="4.87653">
        <ele>178.4</ele>
        <time>2021-07-11T11:48:19Z</time>
      </trkpt>
      <trkpt lat="46.33896" lon="4.87597">
        <ele>178.2</ele>
        <time>2021-07-11T11:48:26Z</time>
      </trkpt>
      <trkpt lat="46.33916" lon="4.87524">
        <ele>176.6</ele>
        <time>2021-07-11T11:48:35Z</time>
      </trkpt>
      <trkpt lat="46.33919" lon="4.87516">
        <ele>176.6</ele>
        <time>2021-07-11T11:48:36Z</time>
      </trkpt>
      <trkpt lat="46.33932" lon="4.87489">
        <ele>176.4</ele>
        <time>2021-07-11T11:48:40Z</time>
      </trkpt>
      <trkpt lat="46.33968" lon="4.87427">
        <ele>176.6</ele>
        <time>2021-07-11T11:48:50Z</time>
      </trkpt>
      <trkpt lat="46.33997" lon="4.87372">
        <ele>176.6</ele>
        <time>2021-07-11T11:48:58Z</time>
      </trkpt>
      <trkpt lat="46.34033" lon="4.87306">
        <ele>176.4</ele>
        <time>2021-07-11T11:49:08Z</time>
      </trkpt>
      <trkpt lat="46.34069" lon="4.87242">
        <ele>176.2</ele>
        <time>2021-07-11T11:49:18Z</time>
      </trkpt>
      <trkpt lat="46.34076" lon="4.8723">
        <ele>176.2</ele>
        <time>2021-07-11T11:49:20Z</time>
      </trkpt>
      <trkpt lat="46.34099" lon="4.8719">
        <ele>176.2</ele>
        <time>2021-07-11T11:49:27Z</time>
      </trkpt>
      <trkpt lat="46.34127" lon="4.8713">
        <ele>176.2</ele>
        <time>2021-07-11T11:49:36Z</time>
      </trkpt>
      <trkpt lat="46.3414" lon="4.87087">
        <ele>176.2</ele>
        <time>2021-07-11T11:49:42Z</time>
      </trkpt>
      <trkpt lat="46.34141" lon="4.87079">
        <ele>176.2</ele>
        <time>2021-07-11T11:49:43Z</time>
      </trkpt>
      <trkpt lat="46.34142" lon="4.87055">
        <ele>176.2</ele>
        <time>2021-07-11T11:49:46Z</time>
      </trkpt>
      <trkpt lat="46.34141" lon="4.8703">
        <ele>176.2</ele>
        <time>2021-07-11T11:49:49Z</time>
      </trkpt>
      <trkpt lat="46.34136" lon="4.86957">
        <ele>176.2</ele>
        <time>2021-07-11T11:49:58Z</time>
      </trkpt>
      <trkpt lat="46.34136" lon="4.86888">
        <ele>176</ele>
        <time>2021-07-11T11:50:06Z</time>
      </trkpt>
      <trkpt lat="46.34143" lon="4.86806">
        <ele>176</ele>
        <time>2021-07-11T11:50:16Z</time>
      </trkpt>
      <trkpt lat="46.34149" lon="4.8676">
        <ele>176</ele>
        <time>2021-07-11T11:50:22Z</time>
      </trkpt>
      <trkpt lat="46.34151" lon="4.86753">
        <ele>176</ele>
        <time>2021-07-11T11:50:23Z</time>
      </trkpt>
      <trkpt lat="46.34164" lon="4.8674">
        <ele>176</ele>
        <time>2021-07-11T11:50:26Z</time>
      </trkpt>
      <trkpt lat="46.34186" lon="4.86737">
        <ele>175.8</ele>
        <time>2021-07-11T11:50:30Z</time>
      </trkpt>
      <trkpt lat="46.34192" lon="4.86737">
        <ele>175.6</ele>
        <time>2021-07-11T11:50:31Z</time>
      </trkpt>
      <trkpt lat="46.34207" lon="4.86738">
        <ele>175.6</ele>
        <time>2021-07-11T11:50:34Z</time>
      </trkpt>
      <trkpt lat="46.34216" lon="4.86743">
        <ele>175.6</ele>
        <time>2021-07-11T11:50:36Z</time>
      </trkpt>
      <trkpt lat="46.34223" lon="4.86763">
        <ele>175.4</ele>
        <time>2021-07-11T11:50:39Z</time>
      </trkpt>
      <trkpt lat="46.34224" lon="4.86778">
        <ele>175.4</ele>
        <time>2021-07-11T11:50:41Z</time>
      </trkpt>
      <trkpt lat="46.34224" lon="4.86791">
        <ele>175.4</ele>
        <time>2021-07-11T11:50:43Z</time>
      </trkpt>
      <trkpt lat="46.34225" lon="4.86798">
        <ele>175.4</ele>
        <time>2021-07-11T11:50:44Z</time>
      </trkpt>
      <trkpt lat="46.3423" lon="4.86816">
        <ele>175.4</ele>
        <time>2021-07-11T11:50:47Z</time>
      </trkpt>
      <trkpt lat="46.34245" lon="4.86828">
        <ele>175.6</ele>
        <time>2021-07-11T11:50:51Z</time>
      </trkpt>
      <trkpt lat="46.34249" lon="4.8683">
        <ele>175.6</ele>
        <time>2021-07-11T11:50:52Z</time>
      </trkpt>
      <trkpt lat="46.34277" lon="4.86837">
        <ele>175.8</ele>
        <time>2021-07-11T11:50:58Z</time>
      </trkpt>
      <trkpt lat="46.34318" lon="4.86847">
        <ele>175.8</ele>
        <time>2021-07-11T11:51:06Z</time>
      </trkpt>
      <trkpt lat="46.34347" lon="4.8686">
        <ele>175.8</ele>
        <time>2021-07-11T11:51:12Z</time>
      </trkpt>
      <trkpt lat="46.3436" lon="4.86868">
        <ele>175.8</ele>
        <time>2021-07-11T11:51:15Z</time>
      </trkpt>
      <trkpt lat="46.34372" lon="4.86877">
        <ele>175.8</ele>
        <time>2021-07-11T11:51:18Z</time>
      </trkpt>
      <trkpt lat="46.34398" lon="4.86894">
        <ele>175.8</ele>
        <time>2021-07-11T11:51:25Z</time>
      </trkpt>
      <trkpt lat="46.34412" lon="4.86901">
        <ele>176</ele>
        <time>2021-07-11T11:51:29Z</time>
      </trkpt>
      <trkpt lat="46.34416" lon="4.869">
        <ele>176</ele>
        <time>2021-07-11T11:51:30Z</time>
      </trkpt>
      <trkpt lat="46.34429" lon="4.86888">
        <ele>176</ele>
        <time>2021-07-11T11:51:34Z</time>
      </trkpt>
      <trkpt lat="46.34432" lon="4.86866">
        <ele>175.8</ele>
        <time>2021-07-11T11:51:38Z</time>
      </trkpt>
      <trkpt lat="46.34432" lon="4.8686">
        <ele>175.8</ele>
        <time>2021-07-11T11:51:39Z</time>
      </trkpt>
      <trkpt lat="46.34432" lon="4.86833">
        <ele>175.4</ele>
        <time>2021-07-11T11:51:44Z</time>
      </trkpt>
      <trkpt lat="46.34438" lon="4.86822">
        <ele>175.2</ele>
        <time>2021-07-11T11:51:47Z</time>
      </trkpt>
      <trkpt lat="46.34441" lon="4.86822">
        <ele>175.2</ele>
        <time>2021-07-11T11:51:48Z</time>
      </trkpt>
      <trkpt lat="46.34458" lon="4.86825">
        <ele>175.2</ele>
        <time>2021-07-11T11:51:52Z</time>
      </trkpt>
      <trkpt lat="46.34462" lon="4.86827">
        <ele>175.2</ele>
        <time>2021-07-11T11:51:53Z</time>
      </trkpt>
      <trkpt lat="46.3447" lon="4.86829">
        <ele>175.2</ele>
        <time>2021-07-11T11:51:55Z</time>
      </trkpt>
      <trkpt lat="46.34482" lon="4.86828">
        <ele>175.2</ele>
        <time>2021-07-11T11:51:58Z</time>
      </trkpt>
      <trkpt lat="46.34489" lon="4.86819">
        <ele>175.2</ele>
        <time>2021-07-11T11:52:01Z</time>
      </trkpt>
      <trkpt lat="46.34487" lon="4.86806">
        <ele>175.4</ele>
        <time>2021-07-11T11:52:04Z</time>
      </trkpt>
      <trkpt lat="46.34488" lon="4.86784">
        <ele>176.2</ele>
        <time>2021-07-11T11:52:10Z</time>
      </trkpt>
      <trkpt lat="46.34488" lon="4.86759">
        <ele>176.6</ele>
        <time>2021-07-11T11:52:15Z</time>
      </trkpt>
      <trkpt lat="46.34485" lon="4.8674">
        <ele>176.8</ele>
        <time>2021-07-11T11:52:19Z</time>
      </trkpt>
      <trkpt lat="46.34484" lon="4.86712">
        <ele>176.6</ele>
        <time>2021-07-11T11:52:24Z</time>
      </trkpt>
      <trkpt lat="46.34484" lon="4.86685">
        <ele>176.2</ele>
        <time>2021-07-11T11:52:29Z</time>
      </trkpt>
      <trkpt lat="46.34495" lon="4.86669">
        <ele>175.8</ele>
        <time>2021-07-11T11:52:33Z</time>
      </trkpt>
      <trkpt lat="46.34507" lon="4.86668">
        <ele>175.6</ele>
        <time>2021-07-11T11:52:37Z</time>
      </trkpt>
      <trkpt lat="46.34528" lon="4.86678">
        <ele>175.4</ele>
        <time>2021-07-11T11:52:43Z</time>
      </trkpt>
      <trkpt lat="46.34547" lon="4.86692">
        <ele>175.4</ele>
        <time>2021-07-11T11:52:48Z</time>
      </trkpt>
      <trkpt lat="46.34565" lon="4.86707">
        <ele>175.4</ele>
        <time>2021-07-11T11:52:54Z</time>
      </trkpt>
      <trkpt lat="46.34579" lon="4.86721">
        <ele>175.4</ele>
        <time>2021-07-11T11:52:59Z</time>
      </trkpt>
      <trkpt lat="46.34582" lon="4.86725">
        <ele>175.4</ele>
        <time>2021-07-11T11:53:00Z</time>
      </trkpt>
      <trkpt lat="46.34593" lon="4.86745">
        <ele>175.4</ele>
        <time>2021-07-11T11:53:04Z</time>
      </trkpt>
      <trkpt lat="46.34607" lon="4.86761">
        <ele>175.4</ele>
        <time>2021-07-11T11:53:09Z</time>
      </trkpt>
      <trkpt lat="46.34617" lon="4.8678">
        <ele>175.4</ele>
        <time>2021-07-11T11:53:14Z</time>
      </trkpt>
      <trkpt lat="46.34621" lon="4.86803">
        <ele>175.8</ele>
        <time>2021-07-11T11:53:19Z</time>
      </trkpt>
      <trkpt lat="46.34626" lon="4.86823">
        <ele>176.6</ele>
        <time>2021-07-11T11:53:24Z</time>
      </trkpt>
      <trkpt lat="46.34633" lon="4.86848">
        <ele>176.6</ele>
        <time>2021-07-11T11:53:30Z</time>
      </trkpt>
      <trkpt lat="46.34643" lon="4.86868">
        <ele>176.6</ele>
        <time>2021-07-11T11:53:35Z</time>
      </trkpt>
      <trkpt lat="46.34663" lon="4.86897">
        <ele>175.6</ele>
        <time>2021-07-11T11:53:43Z</time>
      </trkpt>
      <trkpt lat="46.34678" lon="4.86927">
        <ele>175.2</ele>
        <time>2021-07-11T11:53:50Z</time>
      </trkpt>
      <trkpt lat="46.34689" lon="4.86956">
        <ele>175.2</ele>
        <time>2021-07-11T11:53:55Z</time>
      </trkpt>
      <trkpt lat="46.34691" lon="4.86962">
        <ele>175.2</ele>
        <time>2021-07-11T11:53:56Z</time>
      </trkpt>
      <trkpt lat="46.34694" lon="4.86975">
        <ele>175</ele>
        <time>2021-07-11T11:53:58Z</time>
      </trkpt>
      <trkpt lat="46.34699" lon="4.87001">
        <ele>175</ele>
        <time>2021-07-11T11:54:02Z</time>
      </trkpt>
      <trkpt lat="46.34706" lon="4.87047">
        <ele>175</ele>
        <time>2021-07-11T11:54:09Z</time>
      </trkpt>
      <trkpt lat="46.34714" lon="4.87088">
        <ele>175</ele>
        <time>2021-07-11T11:54:15Z</time>
      </trkpt>
      <trkpt lat="46.34716" lon="4.87095">
        <ele>175</ele>
        <time>2021-07-11T11:54:16Z</time>
      </trkpt>
      <trkpt lat="46.34726" lon="4.87144">
        <ele>175.2</ele>
        <time>2021-07-11T11:54:23Z</time>
      </trkpt>
      <trkpt lat="46.34737" lon="4.87193">
        <ele>175.4</ele>
        <time>2021-07-11T11:54:30Z</time>
      </trkpt>
      <trkpt lat="46.34747" lon="4.87244">
        <ele>175.4</ele>
        <time>2021-07-11T11:54:37Z</time>
      </trkpt>
      <trkpt lat="46.34755" lon="4.87302">
        <ele>175.2</ele>
        <time>2021-07-11T11:54:45Z</time>
      </trkpt>
      <trkpt lat="46.34765" lon="4.87342">
        <ele>175.2</ele>
        <time>2021-07-11T11:54:51Z</time>
      </trkpt>
      <trkpt lat="46.34777" lon="4.87389">
        <ele>175.4</ele>
        <time>2021-07-11T11:54:58Z</time>
      </trkpt>
      <trkpt lat="46.34785" lon="4.8743">
        <ele>175.2</ele>
        <time>2021-07-11T11:55:04Z</time>
      </trkpt>
      <trkpt lat="46.34786" lon="4.87437">
        <ele>175</ele>
        <time>2021-07-11T11:55:05Z</time>
      </trkpt>
      <trkpt lat="46.3479" lon="4.87457">
        <ele>175.2</ele>
        <time>2021-07-11T11:55:08Z</time>
      </trkpt>
      <trkpt lat="46.34791" lon="4.8747">
        <ele>175.2</ele>
        <time>2021-07-11T11:55:10Z</time>
      </trkpt>
      <trkpt lat="46.34795" lon="4.87496">
        <ele>175.2</ele>
        <time>2021-07-11T11:55:15Z</time>
      </trkpt>
      <trkpt lat="46.34803" lon="4.87495">
        <ele>175.4</ele>
        <time>2021-07-11T11:55:18Z</time>
      </trkpt>
      <trkpt lat="46.34809" lon="4.8749">
        <ele>175.4</ele>
        <time>2021-07-11T11:55:20Z</time>
      </trkpt>
      <trkpt lat="46.34815" lon="4.87482">
        <ele>175.6</ele>
        <time>2021-07-11T11:55:22Z</time>
      </trkpt>
      <trkpt lat="46.34818" lon="4.87478">
        <ele>175.4</ele>
        <time>2021-07-11T11:55:23Z</time>
      </trkpt>
      <trkpt lat="46.34845" lon="4.87435">
        <ele>175.6</ele>
        <time>2021-07-11T11:55:32Z</time>
      </trkpt>
      <trkpt lat="46.34877" lon="4.87384">
        <ele>175.6</ele>
        <time>2021-07-11T11:55:42Z</time>
      </trkpt>
      <trkpt lat="46.34902" lon="4.87345">
        <ele>175.6</ele>
        <time>2021-07-11T11:55:49Z</time>
      </trkpt>
      <trkpt lat="46.34935" lon="4.87292">
        <ele>175.6</ele>
        <time>2021-07-11T11:55:58Z</time>
      </trkpt>
      <trkpt lat="46.34975" lon="4.87235">
        <ele>175.6</ele>
        <time>2021-07-11T11:56:08Z</time>
      </trkpt>
      <trkpt lat="46.3498" lon="4.87229">
        <ele>175.6</ele>
        <time>2021-07-11T11:56:09Z</time>
      </trkpt>
      <trkpt lat="46.35013" lon="4.87201">
        <ele>175.4</ele>
        <time>2021-07-11T11:56:16Z</time>
      </trkpt>
      <trkpt lat="46.35064" lon="4.87163">
        <ele>175.4</ele>
        <time>2021-07-11T11:56:26Z</time>
      </trkpt>
      <trkpt lat="46.35074" lon="4.87155">
        <ele>175.4</ele>
        <time>2021-07-11T11:56:28Z</time>
      </trkpt>
      <trkpt lat="46.35125" lon="4.87117">
        <ele>175.4</ele>
        <time>2021-07-11T11:56:38Z</time>
      </trkpt>
      <trkpt lat="46.3513" lon="4.87113">
        <ele>175.4</ele>
        <time>2021-07-11T11:56:39Z</time>
      </trkpt>
      <trkpt lat="46.35174" lon="4.8708">
        <ele>175.6</ele>
        <time>2021-07-11T11:56:48Z</time>
      </trkpt>
      <trkpt lat="46.35214" lon="4.87052">
        <ele>175.4</ele>
        <time>2021-07-11T11:56:56Z</time>
      </trkpt>
      <trkpt lat="46.35265" lon="4.87014">
        <ele>175.4</ele>
        <time>2021-07-11T11:57:06Z</time>
      </trkpt>
      <trkpt lat="46.35311" lon="4.86979">
        <ele>175.6</ele>
        <time>2021-07-11T11:57:15Z</time>
      </trkpt>
      <trkpt lat="46.35346" lon="4.86953">
        <ele>175.6</ele>
        <time>2021-07-11T11:57:22Z</time>
      </trkpt>
      <trkpt lat="46.35386" lon="4.86924">
        <ele>175.6</ele>
        <time>2021-07-11T11:57:30Z</time>
      </trkpt>
      <trkpt lat="46.35429" lon="4.86891">
        <ele>175.8</ele>
        <time>2021-07-11T11:57:39Z</time>
      </trkpt>
      <trkpt lat="46.35478" lon="4.86856">
        <ele>176</ele>
        <time>2021-07-11T11:57:49Z</time>
      </trkpt>
      <trkpt lat="46.35483" lon="4.86853">
        <ele>176</ele>
        <time>2021-07-11T11:57:50Z</time>
      </trkpt>
      <trkpt lat="46.35521" lon="4.86824">
        <ele>175.8</ele>
        <time>2021-07-11T11:57:58Z</time>
      </trkpt>
      <trkpt lat="46.35555" lon="4.86799">
        <ele>175.6</ele>
        <time>2021-07-11T11:58:05Z</time>
      </trkpt>
      <trkpt lat="46.35599" lon="4.86767">
        <ele>175.6</ele>
        <time>2021-07-11T11:58:14Z</time>
      </trkpt>
      <trkpt lat="46.35617" lon="4.86749">
        <ele>175.6</ele>
        <time>2021-07-11T11:58:18Z</time>
      </trkpt>
      <trkpt lat="46.35625" lon="4.86738">
        <ele>175.6</ele>
        <time>2021-07-11T11:58:20Z</time>
      </trkpt>
      <trkpt lat="46.35641" lon="4.86704">
        <ele>175.6</ele>
        <time>2021-07-11T11:58:25Z</time>
      </trkpt>
      <trkpt lat="46.35651" lon="4.86678">
        <ele>175.6</ele>
        <time>2021-07-11T11:58:29Z</time>
      </trkpt>
      <trkpt lat="46.35667" lon="4.86631">
        <ele>175.8</ele>
        <time>2021-07-11T11:58:36Z</time>
      </trkpt>
      <trkpt lat="46.35673" lon="4.86614">
        <ele>175.8</ele>
        <time>2021-07-11T11:58:39Z</time>
      </trkpt>
      <trkpt lat="46.35683" lon="4.86604">
        <ele>176</ele>
        <time>2021-07-11T11:58:42Z</time>
      </trkpt>
      <trkpt lat="46.35695" lon="4.86606">
        <ele>176</ele>
        <time>2021-07-11T11:58:45Z</time>
      </trkpt>
      <trkpt lat="46.35703" lon="4.86612">
        <ele>176.2</ele>
        <time>2021-07-11T11:58:47Z</time>
      </trkpt>
      <trkpt lat="46.3572" lon="4.86625">
        <ele>176.6</ele>
        <time>2021-07-11T11:58:51Z</time>
      </trkpt>
      <trkpt lat="46.35736" lon="4.86636">
        <ele>177</ele>
        <time>2021-07-11T11:58:54Z</time>
      </trkpt>
      <trkpt lat="46.35741" lon="4.8664">
        <ele>177.2</ele>
        <time>2021-07-11T11:58:55Z</time>
      </trkpt>
      <trkpt lat="46.35752" lon="4.86647">
        <ele>177.4</ele>
        <time>2021-07-11T11:58:57Z</time>
      </trkpt>
      <trkpt lat="46.3579" lon="4.86671">
        <ele>178</ele>
        <time>2021-07-11T11:59:04Z</time>
      </trkpt>
      <trkpt lat="46.35795" lon="4.86673">
        <ele>178</ele>
        <time>2021-07-11T11:59:05Z</time>
      </trkpt>
      <trkpt lat="46.35818" lon="4.86685">
        <ele>178.2</ele>
        <time>2021-07-11T11:59:10Z</time>
      </trkpt>
      <trkpt lat="46.35827" lon="4.8669">
        <ele>178.2</ele>
        <time>2021-07-11T11:59:12Z</time>
      </trkpt>
      <trkpt lat="46.35837" lon="4.86689">
        <ele>178.2</ele>
        <time>2021-07-11T11:59:14Z</time>
      </trkpt>
      <trkpt lat="46.35846" lon="4.86683">
        <ele>178.2</ele>
        <time>2021-07-11T11:59:16Z</time>
      </trkpt>
      <trkpt lat="46.3585" lon="4.8668">
        <ele>178.2</ele>
        <time>2021-07-11T11:59:17Z</time>
      </trkpt>
      <trkpt lat="46.35855" lon="4.86678">
        <ele>178.2</ele>
        <time>2021-07-11T11:59:18Z</time>
      </trkpt>
      <trkpt lat="46.35877" lon="4.86683">
        <ele>178.2</ele>
        <time>2021-07-11T11:59:22Z</time>
      </trkpt>
      <trkpt lat="46.35931" lon="4.86712">
        <ele>178.2</ele>
        <time>2021-07-11T11:59:32Z</time>
      </trkpt>
      <trkpt lat="46.35981" lon="4.86748">
        <ele>178.4</ele>
        <time>2021-07-11T11:59:42Z</time>
      </trkpt>
      <trkpt lat="46.36015" lon="4.86775">
        <ele>178.4</ele>
        <time>2021-07-11T11:59:49Z</time>
      </trkpt>
      <trkpt lat="46.36067" lon="4.86814">
        <ele>178.4</ele>
        <time>2021-07-11T11:59:59Z</time>
      </trkpt>
      <trkpt lat="46.36115" lon="4.86841">
        <ele>178.4</ele>
        <time>2021-07-11T12:00:08Z</time>
      </trkpt>
      <trkpt lat="46.3616" lon="4.86854">
        <ele>178.4</ele>
        <time>2021-07-11T12:00:16Z</time>
      </trkpt>
      <trkpt lat="46.3619" lon="4.8686">
        <ele>178.4</ele>
        <time>2021-07-11T12:00:22Z</time>
      </trkpt>
      <trkpt lat="46.36213" lon="4.86861">
        <ele>178.4</ele>
        <time>2021-07-11T12:00:27Z</time>
      </trkpt>
      <trkpt lat="46.36217" lon="4.86859">
        <ele>178.4</ele>
        <time>2021-07-11T12:00:28Z</time>
      </trkpt>
      <trkpt lat="46.36224" lon="4.86843">
        <ele>178.4</ele>
        <time>2021-07-11T12:00:31Z</time>
      </trkpt>
      <trkpt lat="46.36226" lon="4.86837">
        <ele>178.4</ele>
        <time>2021-07-11T12:00:32Z</time>
      </trkpt>
      <trkpt lat="46.36227" lon="4.86831">
        <ele>178.4</ele>
        <time>2021-07-11T12:00:33Z</time>
      </trkpt>
      <trkpt lat="46.36234" lon="4.86822">
        <ele>178.4</ele>
        <time>2021-07-11T12:00:35Z</time>
      </trkpt>
      <trkpt lat="46.36253" lon="4.86818">
        <ele>178.4</ele>
        <time>2021-07-11T12:00:39Z</time>
      </trkpt>
      <trkpt lat="46.36264" lon="4.86819">
        <ele>178.4</ele>
        <time>2021-07-11T12:00:41Z</time>
      </trkpt>
      <trkpt lat="46.36294" lon="4.86825">
        <ele>178.4</ele>
        <time>2021-07-11T12:00:47Z</time>
      </trkpt>
      <trkpt lat="46.36334" lon="4.86836">
        <ele>178.4</ele>
        <time>2021-07-11T12:00:55Z</time>
      </trkpt>
      <trkpt lat="46.36379" lon="4.86847">
        <ele>178.2</ele>
        <time>2021-07-11T12:01:03Z</time>
      </trkpt>
      <trkpt lat="46.36436" lon="4.86862">
        <ele>177.6</ele>
        <time>2021-07-11T12:01:13Z</time>
      </trkpt>
      <trkpt lat="46.36442" lon="4.86863">
        <ele>177.4</ele>
        <time>2021-07-11T12:01:14Z</time>
      </trkpt>
      <trkpt lat="46.36499" lon="4.8687">
        <ele>177.4</ele>
        <time>2021-07-11T12:01:24Z</time>
      </trkpt>
      <trkpt lat="46.3651" lon="4.86871">
        <ele>177.4</ele>
        <time>2021-07-11T12:01:26Z</time>
      </trkpt>
      <trkpt lat="46.36565" lon="4.86876">
        <ele>177.6</ele>
        <time>2021-07-11T12:01:36Z</time>
      </trkpt>
      <trkpt lat="46.36571" lon="4.86876">
        <ele>177.6</ele>
        <time>2021-07-11T12:01:37Z</time>
      </trkpt>
      <trkpt lat="46.36629" lon="4.86885">
        <ele>178</ele>
        <time>2021-07-11T12:01:47Z</time>
      </trkpt>
      <trkpt lat="46.3664" lon="4.86887">
        <ele>178</ele>
        <time>2021-07-11T12:01:49Z</time>
      </trkpt>
      <trkpt lat="46.36699" lon="4.86898">
        <ele>178.2</ele>
        <time>2021-07-11T12:01:59Z</time>
      </trkpt>
      <trkpt lat="46.36704" lon="4.86899">
        <ele>178.2</ele>
        <time>2021-07-11T12:02:00Z</time>
      </trkpt>
      <trkpt lat="46.36727" lon="4.86904">
        <ele>178.2</ele>
        <time>2021-07-11T12:02:04Z</time>
      </trkpt>
      <trkpt lat="46.36778" lon="4.86909">
        <ele>178.4</ele>
        <time>2021-07-11T12:02:13Z</time>
      </trkpt>
      <trkpt lat="46.36829" lon="4.86911">
        <ele>178.2</ele>
        <time>2021-07-11T12:02:22Z</time>
      </trkpt>
      <trkpt lat="46.36875" lon="4.86924">
        <ele>178.2</ele>
        <time>2021-07-11T12:02:30Z</time>
      </trkpt>
      <trkpt lat="46.36918" lon="4.86955">
        <ele>178</ele>
        <time>2021-07-11T12:02:38Z</time>
      </trkpt>
      <trkpt lat="46.36969" lon="4.86997">
        <ele>178.4</ele>
        <time>2021-07-11T12:02:48Z</time>
      </trkpt>
      <trkpt lat="46.36974" lon="4.87001">
        <ele>178.4</ele>
        <time>2021-07-11T12:02:49Z</time>
      </trkpt>
      <trkpt lat="46.37022" lon="4.87044">
        <ele>178.4</ele>
        <time>2021-07-11T12:02:59Z</time>
      </trkpt>
      <trkpt lat="46.37033" lon="4.87073">
        <ele>178.2</ele>
        <time>2021-07-11T12:03:03Z</time>
      </trkpt>
      <trkpt lat="46.37031" lon="4.87106">
        <ele>178</ele>
        <time>2021-07-11T12:03:07Z</time>
      </trkpt>
      <trkpt lat="46.37026" lon="4.87121">
        <ele>178</ele>
        <time>2021-07-11T12:03:09Z</time>
      </trkpt>
      <trkpt lat="46.37012" lon="4.87158">
        <ele>177.8</ele>
        <time>2021-07-11T12:03:14Z</time>
      </trkpt>
      <trkpt lat="46.37011" lon="4.87166">
        <ele>177.8</ele>
        <time>2021-07-11T12:03:15Z</time>
      </trkpt>
      <trkpt lat="46.3701" lon="4.8719">
        <ele>177.8</ele>
        <time>2021-07-11T12:03:18Z</time>
      </trkpt>
      <trkpt lat="46.37021" lon="4.87218">
        <ele>177.8</ele>
        <time>2021-07-11T12:03:22Z</time>
      </trkpt>
      <trkpt lat="46.37025" lon="4.87224">
        <ele>177.8</ele>
        <time>2021-07-11T12:03:23Z</time>
      </trkpt>
      <trkpt lat="46.37054" lon="4.87261">
        <ele>178</ele>
        <time>2021-07-11T12:03:30Z</time>
      </trkpt>
      <trkpt lat="46.37097" lon="4.87313">
        <ele>178</ele>
        <time>2021-07-11T12:03:40Z</time>
      </trkpt>
      <trkpt lat="46.37105" lon="4.87323">
        <ele>178</ele>
        <time>2021-07-11T12:03:42Z</time>
      </trkpt>
      <trkpt lat="46.37151" lon="4.87377">
        <ele>178</ele>
        <time>2021-07-11T12:03:52Z</time>
      </trkpt>
      <trkpt lat="46.3716" lon="4.87387">
        <ele>178</ele>
        <time>2021-07-11T12:03:54Z</time>
      </trkpt>
      <trkpt lat="46.37191" lon="4.87409">
        <ele>177.8</ele>
        <time>2021-07-11T12:04:00Z</time>
      </trkpt>
      <trkpt lat="46.37236" lon="4.87425">
        <ele>177.8</ele>
        <time>2021-07-11T12:04:08Z</time>
      </trkpt>
      <trkpt lat="46.37293" lon="4.87445">
        <ele>177.8</ele>
        <time>2021-07-11T12:04:18Z</time>
      </trkpt>
      <trkpt lat="46.37299" lon="4.87447">
        <ele>178</ele>
        <time>2021-07-11T12:04:19Z</time>
      </trkpt>
      <trkpt lat="46.37348" lon="4.87472">
        <ele>178</ele>
        <time>2021-07-11T12:04:28Z</time>
      </trkpt>
      <trkpt lat="46.37372" lon="4.87487">
        <ele>178</ele>
        <time>2021-07-11T12:04:33Z</time>
      </trkpt>
      <trkpt lat="46.37378" lon="4.87489">
        <ele>178</ele>
        <time>2021-07-11T12:04:34Z</time>
      </trkpt>
      <trkpt lat="46.37395" lon="4.87496">
        <ele>178</ele>
        <time>2021-07-11T12:04:37Z</time>
      </trkpt>
      <trkpt lat="46.37412" lon="4.87506">
        <ele>178</ele>
        <time>2021-07-11T12:04:40Z</time>
      </trkpt>
      <trkpt lat="46.37429" lon="4.87516">
        <ele>177.6</ele>
        <time>2021-07-11T12:04:43Z</time>
      </trkpt>
      <trkpt lat="46.37458" lon="4.87532">
        <ele>177.2</ele>
        <time>2021-07-11T12:04:48Z</time>
      </trkpt>
      <trkpt lat="46.3751" lon="4.87556">
        <ele>177</ele>
        <time>2021-07-11T12:04:57Z</time>
      </trkpt>
      <trkpt lat="46.37515" lon="4.87559">
        <ele>176.8</ele>
        <time>2021-07-11T12:04:58Z</time>
      </trkpt>
      <trkpt lat="46.37542" lon="4.87575">
        <ele>176.6</ele>
        <time>2021-07-11T12:05:03Z</time>
      </trkpt>
      <trkpt lat="46.37564" lon="4.87587">
        <ele>176.4</ele>
        <time>2021-07-11T12:05:07Z</time>
      </trkpt>
      <trkpt lat="46.37569" lon="4.87591">
        <ele>176.2</ele>
        <time>2021-07-11T12:05:08Z</time>
      </trkpt>
      <trkpt lat="46.37577" lon="4.87603">
        <ele>176.2</ele>
        <time>2021-07-11T12:05:10Z</time>
      </trkpt>
      <trkpt lat="46.37578" lon="4.87628">
        <ele>176.2</ele>
        <time>2021-07-11T12:05:13Z</time>
      </trkpt>
      <trkpt lat="46.37574" lon="4.87645">
        <ele>176.2</ele>
        <time>2021-07-11T12:05:15Z</time>
      </trkpt>
      <trkpt lat="46.37572" lon="4.8766">
        <ele>176.2</ele>
        <time>2021-07-11T12:05:17Z</time>
      </trkpt>
      <trkpt lat="46.37573" lon="4.87668">
        <ele>176.2</ele>
        <time>2021-07-11T12:05:18Z</time>
      </trkpt>
      <trkpt lat="46.37581" lon="4.87688">
        <ele>176.2</ele>
        <time>2021-07-11T12:05:21Z</time>
      </trkpt>
      <trkpt lat="46.37591" lon="4.87696">
        <ele>176.2</ele>
        <time>2021-07-11T12:05:23Z</time>
      </trkpt>
      <trkpt lat="46.37606" lon="4.87706">
        <ele>176.4</ele>
        <time>2021-07-11T12:05:26Z</time>
      </trkpt>
      <trkpt lat="46.37646" lon="4.87739">
        <ele>176.8</ele>
        <time>2021-07-11T12:05:34Z</time>
      </trkpt>
      <trkpt lat="46.37689" lon="4.87781">
        <ele>177.2</ele>
        <time>2021-07-11T12:05:43Z</time>
      </trkpt>
      <trkpt lat="46.37734" lon="4.87836">
        <ele>177.6</ele>
        <time>2021-07-11T12:05:53Z</time>
      </trkpt>
      <trkpt lat="46.37774" lon="4.87893">
        <ele>177.6</ele>
        <time>2021-07-11T12:06:02Z</time>
      </trkpt>
      <trkpt lat="46.37787" lon="4.87911">
        <ele>177.6</ele>
        <time>2021-07-11T12:06:05Z</time>
      </trkpt>
      <trkpt lat="46.37812" lon="4.87953">
        <ele>177.4</ele>
        <time>2021-07-11T12:06:12Z</time>
      </trkpt>
      <trkpt lat="46.37838" lon="4.87977">
        <ele>177.6</ele>
        <time>2021-07-11T12:06:18Z</time>
      </trkpt>
      <trkpt lat="46.37861" lon="4.88003">
        <ele>177.8</ele>
        <time>2021-07-11T12:06:23Z</time>
      </trkpt>
      <trkpt lat="46.37885" lon="4.88029">
        <ele>178</ele>
        <time>2021-07-11T12:06:28Z</time>
      </trkpt>
      <trkpt lat="46.37931" lon="4.88068">
        <ele>177.8</ele>
        <time>2021-07-11T12:06:37Z</time>
      </trkpt>
      <trkpt lat="46.37984" lon="4.88104">
        <ele>177.8</ele>
        <time>2021-07-11T12:06:47Z</time>
      </trkpt>
      <trkpt lat="46.38037" lon="4.88142">
        <ele>177.8</ele>
        <time>2021-07-11T12:06:57Z</time>
      </trkpt>
      <trkpt lat="46.38048" lon="4.88151">
        <ele>178</ele>
        <time>2021-07-11T12:06:59Z</time>
      </trkpt>
      <trkpt lat="46.38093" lon="4.88195">
        <ele>178</ele>
        <time>2021-07-11T12:07:08Z</time>
      </trkpt>
      <trkpt lat="46.38097" lon="4.882">
        <ele>178</ele>
        <time>2021-07-11T12:07:09Z</time>
      </trkpt>
      <trkpt lat="46.38132" lon="4.88232">
        <ele>178</ele>
        <time>2021-07-11T12:07:16Z</time>
      </trkpt>
      <trkpt lat="46.38173" lon="4.88264">
        <ele>178</ele>
        <time>2021-07-11T12:07:24Z</time>
      </trkpt>
      <trkpt lat="46.38221" lon="4.88296">
        <ele>178</ele>
        <time>2021-07-11T12:07:33Z</time>
      </trkpt>
      <trkpt lat="46.3827" lon="4.88331">
        <ele>178.6</ele>
        <time>2021-07-11T12:07:43Z</time>
      </trkpt>
      <trkpt lat="46.38288" lon="4.88342">
        <ele>178.6</ele>
        <time>2021-07-11T12:07:47Z</time>
      </trkpt>
      <trkpt lat="46.38297" lon="4.8834">
        <ele>178.8</ele>
        <time>2021-07-11T12:07:49Z</time>
      </trkpt>
      <trkpt lat="46.38307" lon="4.88319">
        <ele>178.8</ele>
        <time>2021-07-11T12:07:53Z</time>
      </trkpt>
      <trkpt lat="46.3831" lon="4.88313">
        <ele>178.8</ele>
        <time>2021-07-11T12:07:54Z</time>
      </trkpt>
      <trkpt lat="46.38318" lon="4.88306">
        <ele>178.8</ele>
        <time>2021-07-11T12:07:56Z</time>
      </trkpt>
      <trkpt lat="46.38336" lon="4.88308">
        <ele>178.8</ele>
        <time>2021-07-11T12:08:00Z</time>
      </trkpt>
      <trkpt lat="46.38382" lon="4.88324">
        <ele>179</ele>
        <time>2021-07-11T12:08:08Z</time>
      </trkpt>
      <trkpt lat="46.38428" lon="4.88343">
        <ele>179.4</ele>
        <time>2021-07-11T12:08:16Z</time>
      </trkpt>
      <trkpt lat="46.38485" lon="4.88365">
        <ele>179.4</ele>
        <time>2021-07-11T12:08:26Z</time>
      </trkpt>
      <trkpt lat="46.38541" lon="4.88384">
        <ele>179.4</ele>
        <time>2021-07-11T12:08:36Z</time>
      </trkpt>
      <trkpt lat="46.38583" lon="4.884">
        <ele>179.2</ele>
        <time>2021-07-11T12:08:44Z</time>
      </trkpt>
      <trkpt lat="46.38626" lon="4.88419">
        <ele>179.2</ele>
        <time>2021-07-11T12:08:51Z</time>
      </trkpt>
      <trkpt lat="46.3868" lon="4.88427">
        <ele>177.8</ele>
        <time>2021-07-11T12:08:59Z</time>
      </trkpt>
      <trkpt lat="46.38722" lon="4.88434">
        <ele>177.2</ele>
        <time>2021-07-11T12:09:06Z</time>
      </trkpt>
      <trkpt lat="46.38769" lon="4.88451">
        <ele>177</ele>
        <time>2021-07-11T12:09:14Z</time>
      </trkpt>
      <trkpt lat="46.38779" lon="4.8846">
        <ele>176.8</ele>
        <time>2021-07-11T12:09:16Z</time>
      </trkpt>
      <trkpt lat="46.38787" lon="4.88472">
        <ele>176.8</ele>
        <time>2021-07-11T12:09:18Z</time>
      </trkpt>
      <trkpt lat="46.38795" lon="4.88503">
        <ele>176.6</ele>
        <time>2021-07-11T12:09:22Z</time>
      </trkpt>
      <trkpt lat="46.3879" lon="4.88537">
        <ele>176.6</ele>
        <time>2021-07-11T12:09:26Z</time>
      </trkpt>
      <trkpt lat="46.38788" lon="4.88545">
        <ele>176.6</ele>
        <time>2021-07-11T12:09:27Z</time>
      </trkpt>
      <trkpt lat="46.38773" lon="4.88601">
        <ele>177</ele>
        <time>2021-07-11T12:09:34Z</time>
      </trkpt>
      <trkpt lat="46.38771" lon="4.88609">
        <ele>177</ele>
        <time>2021-07-11T12:09:35Z</time>
      </trkpt>
      <trkpt lat="46.38773" lon="4.88635">
        <ele>177</ele>
        <time>2021-07-11T12:09:38Z</time>
      </trkpt>
      <trkpt lat="46.38784" lon="4.88665">
        <ele>177</ele>
        <time>2021-07-11T12:09:42Z</time>
      </trkpt>
      <trkpt lat="46.38798" lon="4.88683">
        <ele>177</ele>
        <time>2021-07-11T12:09:45Z</time>
      </trkpt>
      <trkpt lat="46.38807" lon="4.88694">
        <ele>176.8</ele>
        <time>2021-07-11T12:09:47Z</time>
      </trkpt>
      <trkpt lat="46.38848" lon="4.88744">
        <ele>176.4</ele>
        <time>2021-07-11T12:09:56Z</time>
      </trkpt>
      <trkpt lat="46.38888" lon="4.88798">
        <ele>176.4</ele>
        <time>2021-07-11T12:10:05Z</time>
      </trkpt>
      <trkpt lat="46.38925" lon="4.88855">
        <ele>176.2</ele>
        <time>2021-07-11T12:10:14Z</time>
      </trkpt>
      <trkpt lat="46.38965" lon="4.88909">
        <ele>176.2</ele>
        <time>2021-07-11T12:10:23Z</time>
      </trkpt>
      <trkpt lat="46.38974" lon="4.8892">
        <ele>176.2</ele>
        <time>2021-07-11T12:10:25Z</time>
      </trkpt>
      <trkpt lat="46.38986" lon="4.88937">
        <ele>176.2</ele>
        <time>2021-07-11T12:10:28Z</time>
      </trkpt>
      <trkpt lat="46.38996" lon="4.88959">
        <ele>176.2</ele>
        <time>2021-07-11T12:10:31Z</time>
      </trkpt>
      <trkpt lat="46.39002" lon="4.88984">
        <ele>176.2</ele>
        <time>2021-07-11T12:10:34Z</time>
      </trkpt>
      <trkpt lat="46.39006" lon="4.89009">
        <ele>176.2</ele>
        <time>2021-07-11T12:10:37Z</time>
      </trkpt>
      <trkpt lat="46.39017" lon="4.89077">
        <ele>176.4</ele>
        <time>2021-07-11T12:10:45Z</time>
      </trkpt>
      <trkpt lat="46.39035" lon="4.89131">
        <ele>176.2</ele>
        <time>2021-07-11T12:10:52Z</time>
      </trkpt>
      <trkpt lat="46.39069" lon="4.89201">
        <ele>176.4</ele>
        <time>2021-07-11T12:11:02Z</time>
      </trkpt>
      <trkpt lat="46.39109" lon="4.89262">
        <ele>176.6</ele>
        <time>2021-07-11T12:11:12Z</time>
      </trkpt>
      <trkpt lat="46.39155" lon="4.89312">
        <ele>176.6</ele>
        <time>2021-07-11T12:11:22Z</time>
      </trkpt>
      <trkpt lat="46.3916" lon="4.89316">
        <ele>176.4</ele>
        <time>2021-07-11T12:11:23Z</time>
      </trkpt>
      <trkpt lat="46.39188" lon="4.89344">
        <ele>176.4</ele>
        <time>2021-07-11T12:11:29Z</time>
      </trkpt>
      <trkpt lat="46.39192" lon="4.89351">
        <ele>176.4</ele>
        <time>2021-07-11T12:11:30Z</time>
      </trkpt>
      <trkpt lat="46.39202" lon="4.89372">
        <ele>176.4</ele>
        <time>2021-07-11T12:11:33Z</time>
      </trkpt>
      <trkpt lat="46.39205" lon="4.8938">
        <ele>176.4</ele>
        <time>2021-07-11T12:11:34Z</time>
      </trkpt>
      <trkpt lat="46.39207" lon="4.89388">
        <ele>176.4</ele>
        <time>2021-07-11T12:11:35Z</time>
      </trkpt>
      <trkpt lat="46.3921" lon="4.89414">
        <ele>176.4</ele>
        <time>2021-07-11T12:11:38Z</time>
      </trkpt>
      <trkpt lat="46.39209" lon="4.89423">
        <ele>176.6</ele>
        <time>2021-07-11T12:11:39Z</time>
      </trkpt>
      <trkpt lat="46.39209" lon="4.89432">
        <ele>176.6</ele>
        <time>2021-07-11T12:11:40Z</time>
      </trkpt>
      <trkpt lat="46.39205" lon="4.89476">
        <ele>176.6</ele>
        <time>2021-07-11T12:11:45Z</time>
      </trkpt>
      <trkpt lat="46.39196" lon="4.89555">
        <ele>176.8</ele>
        <time>2021-07-11T12:11:54Z</time>
      </trkpt>
      <trkpt lat="46.39188" lon="4.89632">
        <ele>176.8</ele>
        <time>2021-07-11T12:12:03Z</time>
      </trkpt>
      <trkpt lat="46.39187" lon="4.8964">
        <ele>176.8</ele>
        <time>2021-07-11T12:12:04Z</time>
      </trkpt>
      <trkpt lat="46.3918" lon="4.89708">
        <ele>176.8</ele>
        <time>2021-07-11T12:12:12Z</time>
      </trkpt>
      <trkpt lat="46.39171" lon="4.89784">
        <ele>176.6</ele>
        <time>2021-07-11T12:12:21Z</time>
      </trkpt>
      <trkpt lat="46.39163" lon="4.89862">
        <ele>176.4</ele>
        <time>2021-07-11T12:12:30Z</time>
      </trkpt>
      <trkpt lat="46.39155" lon="4.8994">
        <ele>176.4</ele>
        <time>2021-07-11T12:12:39Z</time>
      </trkpt>
      <trkpt lat="46.39155" lon="4.89949">
        <ele>176.4</ele>
        <time>2021-07-11T12:12:40Z</time>
      </trkpt>
      <trkpt lat="46.39156" lon="4.90028">
        <ele>176.6</ele>
        <time>2021-07-11T12:12:49Z</time>
      </trkpt>
      <trkpt lat="46.3916" lon="4.90106">
        <ele>176.6</ele>
        <time>2021-07-11T12:12:58Z</time>
      </trkpt>
      <trkpt lat="46.39161" lon="4.90123">
        <ele>176.6</ele>
        <time>2021-07-11T12:13:00Z</time>
      </trkpt>
      <trkpt lat="46.39168" lon="4.90193">
        <ele>176.8</ele>
        <time>2021-07-11T12:13:08Z</time>
      </trkpt>
      <trkpt lat="46.39178" lon="4.90278">
        <ele>177</ele>
        <time>2021-07-11T12:13:18Z</time>
      </trkpt>
      <trkpt lat="46.3918" lon="4.90286">
        <ele>177.2</ele>
        <time>2021-07-11T12:13:19Z</time>
      </trkpt>
      <trkpt lat="46.39182" lon="4.90294">
        <ele>177.4</ele>
        <time>2021-07-11T12:13:20Z</time>
      </trkpt>
      <trkpt lat="46.3919" lon="4.90316">
        <ele>177.4</ele>
        <time>2021-07-11T12:13:23Z</time>
      </trkpt>
      <trkpt lat="46.39194" lon="4.90323">
        <ele>177.4</ele>
        <time>2021-07-11T12:13:24Z</time>
      </trkpt>
      <trkpt lat="46.39217" lon="4.90359">
        <ele>177.8</ele>
        <time>2021-07-11T12:13:30Z</time>
      </trkpt>
      <trkpt lat="46.3925" lon="4.90415">
        <ele>178</ele>
        <time>2021-07-11T12:13:39Z</time>
      </trkpt>
      <trkpt lat="46.39264" lon="4.9045">
        <ele>178.4</ele>
        <time>2021-07-11T12:13:44Z</time>
      </trkpt>
      <trkpt lat="46.39277" lon="4.90486">
        <ele>178.6</ele>
        <time>2021-07-11T12:13:49Z</time>
      </trkpt>
      <trkpt lat="46.3929" lon="4.90538">
        <ele>178.8</ele>
        <time>2021-07-11T12:13:56Z</time>
      </trkpt>
      <trkpt lat="46.3929" lon="4.90586">
        <ele>179.2</ele>
        <time>2021-07-11T12:14:02Z</time>
      </trkpt>
      <trkpt lat="46.39288" lon="4.90602">
        <ele>179.4</ele>
        <time>2021-07-11T12:14:04Z</time>
      </trkpt>
      <trkpt lat="46.39279" lon="4.90649">
        <ele>179.6</ele>
        <time>2021-07-11T12:14:10Z</time>
      </trkpt>
      <trkpt lat="46.39278" lon="4.90663">
        <ele>179.8</ele>
        <time>2021-07-11T12:14:12Z</time>
      </trkpt>
      <trkpt lat="46.3928" lon="4.90669">
        <ele>179.8</ele>
        <time>2021-07-11T12:14:13Z</time>
      </trkpt>
      <trkpt lat="46.39292" lon="4.90679">
        <ele>179.8</ele>
        <time>2021-07-11T12:14:16Z</time>
      </trkpt>
      <trkpt lat="46.39336" lon="4.90709">
        <ele>180.2</ele>
        <time>2021-07-11T12:14:25Z</time>
      </trkpt>
      <trkpt lat="46.39341" lon="4.90714">
        <ele>180.4</ele>
        <time>2021-07-11T12:14:26Z</time>
      </trkpt>
      <trkpt lat="46.3936" lon="4.90731">
        <ele>180.8</ele>
        <time>2021-07-11T12:14:30Z</time>
      </trkpt>
      <trkpt lat="46.3937" lon="4.90739">
        <ele>180.8</ele>
        <time>2021-07-11T12:14:32Z</time>
      </trkpt>
      <trkpt lat="46.39412" lon="4.90759">
        <ele>181.2</ele>
        <time>2021-07-11T12:14:40Z</time>
      </trkpt>
      <trkpt lat="46.39454" lon="4.9077">
        <ele>181.4</ele>
        <time>2021-07-11T12:14:48Z</time>
      </trkpt>
      <trkpt lat="46.39459" lon="4.90772">
        <ele>181.6</ele>
        <time>2021-07-11T12:14:49Z</time>
      </trkpt>
      <trkpt lat="46.39503" lon="4.90789">
        <ele>182.4</ele>
        <time>2021-07-11T12:14:58Z</time>
      </trkpt>
      <trkpt lat="46.39508" lon="4.90791">
        <ele>182.6</ele>
        <time>2021-07-11T12:14:59Z</time>
      </trkpt>
      <trkpt lat="46.39553" lon="4.90808">
        <ele>183.6</ele>
        <time>2021-07-11T12:15:08Z</time>
      </trkpt>
      <trkpt lat="46.39608" lon="4.90824">
        <ele>183.8</ele>
        <time>2021-07-11T12:15:18Z</time>
      </trkpt>
      <trkpt lat="46.39657" lon="4.90838">
        <ele>183.8</ele>
        <time>2021-07-11T12:15:27Z</time>
      </trkpt>
      <trkpt lat="46.39665" lon="4.90852">
        <ele>183.8</ele>
        <time>2021-07-11T12:15:30Z</time>
      </trkpt>
      <trkpt lat="46.39663" lon="4.90878">
        <ele>183.6</ele>
        <time>2021-07-11T12:15:34Z</time>
      </trkpt>
      <trkpt lat="46.39662" lon="4.90884">
        <ele>183.4</ele>
        <time>2021-07-11T12:15:35Z</time>
      </trkpt>
      <trkpt lat="46.39658" lon="4.90924">
        <ele>183.4</ele>
        <time>2021-07-11T12:15:41Z</time>
      </trkpt>
      <trkpt lat="46.39658" lon="4.90931">
        <ele>183.4</ele>
        <time>2021-07-11T12:15:42Z</time>
      </trkpt>
      <trkpt lat="46.39667" lon="4.90943">
        <ele>183.4</ele>
        <time>2021-07-11T12:15:45Z</time>
      </trkpt>
      <trkpt lat="46.39672" lon="4.90945">
        <ele>183.4</ele>
        <time>2021-07-11T12:15:46Z</time>
      </trkpt>
      <trkpt lat="46.39691" lon="4.90953">
        <ele>183.8</ele>
        <time>2021-07-11T12:15:50Z</time>
      </trkpt>
      <trkpt lat="46.39696" lon="4.90954">
        <ele>184</ele>
        <time>2021-07-11T12:15:51Z</time>
      </trkpt>
      <trkpt lat="46.39736" lon="4.90971">
        <ele>184.2</ele>
        <time>2021-07-11T12:15:59Z</time>
      </trkpt>
      <trkpt lat="46.39792" lon="4.90996">
        <ele>184.4</ele>
        <time>2021-07-11T12:16:09Z</time>
      </trkpt>
      <trkpt lat="46.39849" lon="4.91023">
        <ele>184.4</ele>
        <time>2021-07-11T12:16:19Z</time>
      </trkpt>
      <trkpt lat="46.39854" lon="4.91026">
        <ele>184.4</ele>
        <time>2021-07-11T12:16:20Z</time>
      </trkpt>
      <trkpt lat="46.39906" lon="4.91053">
        <ele>184.4</ele>
        <time>2021-07-11T12:16:29Z</time>
      </trkpt>
      <trkpt lat="46.39964" lon="4.91077">
        <ele>184.2</ele>
        <time>2021-07-11T12:16:38Z</time>
      </trkpt>
      <trkpt lat="46.40016" lon="4.9109">
        <ele>183.2</ele>
        <time>2021-07-11T12:16:46Z</time>
      </trkpt>
      <trkpt lat="46.40037" lon="4.91096">
        <ele>183</ele>
        <time>2021-07-11T12:16:49Z</time>
      </trkpt>
      <trkpt lat="46.40069" lon="4.91103">
        <ele>182.6</ele>
        <time>2021-07-11T12:16:54Z</time>
      </trkpt>
      <trkpt lat="46.40075" lon="4.91103">
        <ele>182.6</ele>
        <time>2021-07-11T12:16:55Z</time>
      </trkpt>
      <trkpt lat="46.40087" lon="4.91099">
        <ele>182.4</ele>
        <time>2021-07-11T12:16:57Z</time>
      </trkpt>
      <trkpt lat="46.401" lon="4.9108">
        <ele>182</ele>
        <time>2021-07-11T12:17:00Z</time>
      </trkpt>
      <trkpt lat="46.40105" lon="4.91074">
        <ele>182</ele>
        <time>2021-07-11T12:17:01Z</time>
      </trkpt>
      <trkpt lat="46.40129" lon="4.91035">
        <ele>181.6</ele>
        <time>2021-07-11T12:17:07Z</time>
      </trkpt>
      <trkpt lat="46.40171" lon="4.90973">
        <ele>181.4</ele>
        <time>2021-07-11T12:17:17Z</time>
      </trkpt>
      <trkpt lat="46.40188" lon="4.9095">
        <ele>181.4</ele>
        <time>2021-07-11T12:17:21Z</time>
      </trkpt>
      <trkpt lat="46.40199" lon="4.90943">
        <ele>181.4</ele>
        <time>2021-07-11T12:17:23Z</time>
      </trkpt>
      <trkpt lat="46.40222" lon="4.90943">
        <ele>181.4</ele>
        <time>2021-07-11T12:17:27Z</time>
      </trkpt>
      <trkpt lat="46.40273" lon="4.9095">
        <ele>181.4</ele>
        <time>2021-07-11T12:17:36Z</time>
      </trkpt>
      <trkpt lat="46.40304" lon="4.90949">
        <ele>181.8</ele>
        <time>2021-07-11T12:17:42Z</time>
      </trkpt>
      <trkpt lat="46.4034" lon="4.90942">
        <ele>182.6</ele>
        <time>2021-07-11T12:17:49Z</time>
      </trkpt>
      <trkpt lat="46.40374" lon="4.90932">
        <ele>183</ele>
        <time>2021-07-11T12:17:56Z</time>
      </trkpt>
      <trkpt lat="46.40379" lon="4.9093">
        <ele>183.2</ele>
        <time>2021-07-11T12:17:57Z</time>
      </trkpt>
      <trkpt lat="46.4041" lon="4.90914">
        <ele>183.4</ele>
        <time>2021-07-11T12:18:04Z</time>
      </trkpt>
      <trkpt lat="46.40445" lon="4.90895">
        <ele>183.8</ele>
        <time>2021-07-11T12:18:11Z</time>
      </trkpt>
      <trkpt lat="46.40461" lon="4.90888">
        <ele>183.8</ele>
        <time>2021-07-11T12:18:14Z</time>
      </trkpt>
      <trkpt lat="46.40475" lon="4.90876">
        <ele>183.8</ele>
        <time>2021-07-11T12:18:17Z</time>
      </trkpt>
      <trkpt lat="46.4051" lon="4.90833">
        <ele>183.6</ele>
        <time>2021-07-11T12:18:25Z</time>
      </trkpt>
      <trkpt lat="46.40523" lon="4.90819">
        <ele>183.6</ele>
        <time>2021-07-11T12:18:28Z</time>
      </trkpt>
      <trkpt lat="46.40533" lon="4.90813">
        <ele>183.6</ele>
        <time>2021-07-11T12:18:30Z</time>
      </trkpt>
      <trkpt lat="46.40543" lon="4.90811">
        <ele>183.4</ele>
        <time>2021-07-11T12:18:32Z</time>
      </trkpt>
      <trkpt lat="46.40557" lon="4.9081">
        <ele>183.4</ele>
        <time>2021-07-11T12:18:35Z</time>
      </trkpt>
      <trkpt lat="46.40572" lon="4.90814">
        <ele>183.2</ele>
        <time>2021-07-11T12:18:38Z</time>
      </trkpt>
      <trkpt lat="46.40586" lon="4.90822">
        <ele>183.2</ele>
        <time>2021-07-11T12:18:41Z</time>
      </trkpt>
      <trkpt lat="46.40619" lon="4.90845">
        <ele>183.6</ele>
        <time>2021-07-11T12:18:48Z</time>
      </trkpt>
      <trkpt lat="46.40624" lon="4.90848">
        <ele>183.8</ele>
        <time>2021-07-11T12:18:49Z</time>
      </trkpt>
      <trkpt lat="46.40644" lon="4.90855">
        <ele>184</ele>
        <time>2021-07-11T12:18:53Z</time>
      </trkpt>
      <trkpt lat="46.40655" lon="4.90857">
        <ele>184</ele>
        <time>2021-07-11T12:18:55Z</time>
      </trkpt>
      <trkpt lat="46.40664" lon="4.9086">
        <ele>184.2</ele>
        <time>2021-07-11T12:18:57Z</time>
      </trkpt>
      <trkpt lat="46.40673" lon="4.90862">
        <ele>184.4</ele>
        <time>2021-07-11T12:18:59Z</time>
      </trkpt>
      <trkpt lat="46.40681" lon="4.90864">
        <ele>184.6</ele>
        <time>2021-07-11T12:19:01Z</time>
      </trkpt>
      <trkpt lat="46.40692" lon="4.9087">
        <ele>184.8</ele>
        <time>2021-07-11T12:19:04Z</time>
      </trkpt>
      <trkpt lat="46.40695" lon="4.90871">
        <ele>185</ele>
        <time>2021-07-11T12:19:05Z</time>
      </trkpt>
      <trkpt lat="46.40699" lon="4.90867">
        <ele>185</ele>
        <time>2021-07-11T12:19:07Z</time>
      </trkpt>
      <trkpt lat="46.407" lon="4.90865">
        <ele>185.2</ele>
        <time>2021-07-11T12:19:08Z</time>
      </trkpt>
      <trkpt lat="46.40704" lon="4.90854">
        <ele>185.4</ele>
        <time>2021-07-11T12:19:12Z</time>
      </trkpt>
      <trkpt lat="46.40706" lon="4.90827">
        <ele>185.4</ele>
        <time>2021-07-11T12:19:18Z</time>
      </trkpt>
      <trkpt lat="46.40716" lon="4.90807">
        <ele>185.2</ele>
        <time>2021-07-11T12:19:22Z</time>
      </trkpt>
      <trkpt lat="46.40724" lon="4.908">
        <ele>185</ele>
        <time>2021-07-11T12:19:24Z</time>
      </trkpt>
      <trkpt lat="46.40739" lon="4.90787">
        <ele>184.6</ele>
        <time>2021-07-11T12:19:28Z</time>
      </trkpt>
      <trkpt lat="46.40743" lon="4.90784">
        <ele>184.6</ele>
        <time>2021-07-11T12:19:29Z</time>
      </trkpt>
      <trkpt lat="46.40765" lon="4.9077">
        <ele>184.6</ele>
        <time>2021-07-11T12:19:34Z</time>
      </trkpt>
      <trkpt lat="46.40774" lon="4.90766">
        <ele>184.6</ele>
        <time>2021-07-11T12:19:36Z</time>
      </trkpt>
      <trkpt lat="46.4079" lon="4.90766">
        <ele>184.6</ele>
        <time>2021-07-11T12:19:39Z</time>
      </trkpt>
      <trkpt lat="46.40806" lon="4.90771">
        <ele>184.8</ele>
        <time>2021-07-11T12:19:42Z</time>
      </trkpt>
      <trkpt lat="46.4082" lon="4.90776">
        <ele>184.8</ele>
        <time>2021-07-11T12:19:45Z</time>
      </trkpt>
      <trkpt lat="46.4083" lon="4.90779">
        <ele>185</ele>
        <time>2021-07-11T12:19:47Z</time>
      </trkpt>
      <trkpt lat="46.40852" lon="4.9078">
        <ele>185.2</ele>
        <time>2021-07-11T12:19:51Z</time>
      </trkpt>
      <trkpt lat="46.40897" lon="4.90773">
        <ele>185.4</ele>
        <time>2021-07-11T12:19:59Z</time>
      </trkpt>
      <trkpt lat="46.40932" lon="4.90764">
        <ele>185.4</ele>
        <time>2021-07-11T12:20:05Z</time>
      </trkpt>
      <trkpt lat="46.40943" lon="4.90759">
        <ele>185.4</ele>
        <time>2021-07-11T12:20:07Z</time>
      </trkpt>
      <trkpt lat="46.40959" lon="4.90747">
        <ele>185.2</ele>
        <time>2021-07-11T12:20:10Z</time>
      </trkpt>
      <trkpt lat="46.40995" lon="4.90709">
        <ele>184.6</ele>
        <time>2021-07-11T12:20:17Z</time>
      </trkpt>
      <trkpt lat="46.4102" lon="4.90678">
        <ele>184</ele>
        <time>2021-07-11T12:20:22Z</time>
      </trkpt>
      <trkpt lat="46.4103" lon="4.90665">
        <ele>184</ele>
        <time>2021-07-11T12:20:24Z</time>
      </trkpt>
      <trkpt lat="46.41066" lon="4.90614">
        <ele>183</ele>
        <time>2021-07-11T12:20:32Z</time>
      </trkpt>
      <trkpt lat="46.4107" lon="4.90608">
        <ele>182.8</ele>
        <time>2021-07-11T12:20:33Z</time>
      </trkpt>
      <trkpt lat="46.41107" lon="4.90558">
        <ele>182.4</ele>
        <time>2021-07-11T12:20:41Z</time>
      </trkpt>
      <trkpt lat="46.41121" lon="4.9054">
        <ele>182</ele>
        <time>2021-07-11T12:20:44Z</time>
      </trkpt>
      <trkpt lat="46.41144" lon="4.90509">
        <ele>181.6</ele>
        <time>2021-07-11T12:20:49Z</time>
      </trkpt>
      <trkpt lat="46.41184" lon="4.90452">
        <ele>181.6</ele>
        <time>2021-07-11T12:20:58Z</time>
      </trkpt>
      <trkpt lat="46.41188" lon="4.90445">
        <ele>181.4</ele>
        <time>2021-07-11T12:20:59Z</time>
      </trkpt>
      <trkpt lat="46.41221" lon="4.90389">
        <ele>181.2</ele>
        <time>2021-07-11T12:21:07Z</time>
      </trkpt>
      <trkpt lat="46.4125" lon="4.90343">
        <ele>181.2</ele>
        <time>2021-07-11T12:21:14Z</time>
      </trkpt>
      <trkpt lat="46.41272" lon="4.90327">
        <ele>181</ele>
        <time>2021-07-11T12:21:18Z</time>
      </trkpt>
      <trkpt lat="46.41284" lon="4.90324">
        <ele>180.8</ele>
        <time>2021-07-11T12:21:20Z</time>
      </trkpt>
      <trkpt lat="46.41291" lon="4.90322">
        <ele>180.8</ele>
        <time>2021-07-11T12:21:21Z</time>
      </trkpt>
      <trkpt lat="46.41303" lon="4.90321">
        <ele>180.8</ele>
        <time>2021-07-11T12:21:23Z</time>
      </trkpt>
      <trkpt lat="46.41347" lon="4.90312">
        <ele>180.4</ele>
        <time>2021-07-11T12:21:30Z</time>
      </trkpt>
      <trkpt lat="46.41382" lon="4.90301">
        <ele>180.2</ele>
        <time>2021-07-11T12:21:36Z</time>
      </trkpt>
      <trkpt lat="46.41393" lon="4.90293">
        <ele>180</ele>
        <time>2021-07-11T12:21:38Z</time>
      </trkpt>
      <trkpt lat="46.41403" lon="4.90283">
        <ele>179.8</ele>
        <time>2021-07-11T12:21:40Z</time>
      </trkpt>
      <trkpt lat="46.4143" lon="4.90244">
        <ele>179.6</ele>
        <time>2021-07-11T12:21:46Z</time>
      </trkpt>
      <trkpt lat="46.41456" lon="4.90192">
        <ele>179.2</ele>
        <time>2021-07-11T12:21:53Z</time>
      </trkpt>
      <trkpt lat="46.41464" lon="4.90148">
        <ele>179</ele>
        <time>2021-07-11T12:21:58Z</time>
      </trkpt>
      <trkpt lat="46.41466" lon="4.90122">
        <ele>178.8</ele>
        <time>2021-07-11T12:22:01Z</time>
      </trkpt>
      <trkpt lat="46.4147" lon="4.90089">
        <ele>178.8</ele>
        <time>2021-07-11T12:22:05Z</time>
      </trkpt>
      <trkpt lat="46.41477" lon="4.9003">
        <ele>178.8</ele>
        <time>2021-07-11T12:22:12Z</time>
      </trkpt>
      <trkpt lat="46.41478" lon="4.90003">
        <ele>178.8</ele>
        <time>2021-07-11T12:22:15Z</time>
      </trkpt>
      <trkpt lat="46.41478" lon="4.89966">
        <ele>178.8</ele>
        <time>2021-07-11T12:22:19Z</time>
      </trkpt>
      <trkpt lat="46.41478" lon="4.89884">
        <ele>178.4</ele>
        <time>2021-07-11T12:22:28Z</time>
      </trkpt>
      <trkpt lat="46.41476" lon="4.89804">
        <ele>178</ele>
        <time>2021-07-11T12:22:37Z</time>
      </trkpt>
      <trkpt lat="46.41474" lon="4.89795">
        <ele>178</ele>
        <time>2021-07-11T12:22:38Z</time>
      </trkpt>
      <trkpt lat="46.41465" lon="4.89762">
        <ele>178</ele>
        <time>2021-07-11T12:22:42Z</time>
      </trkpt>
      <trkpt lat="46.41454" lon="4.8973">
        <ele>177.8</ele>
        <time>2021-07-11T12:22:46Z</time>
      </trkpt>
      <trkpt lat="46.41439" lon="4.8969">
        <ele>177.6</ele>
        <time>2021-07-11T12:22:51Z</time>
      </trkpt>
      <trkpt lat="46.41434" lon="4.89673">
        <ele>177.6</ele>
        <time>2021-07-11T12:22:53Z</time>
      </trkpt>
      <trkpt lat="46.41431" lon="4.89648">
        <ele>177.4</ele>
        <time>2021-07-11T12:22:56Z</time>
      </trkpt>
      <trkpt lat="46.4143" lon="4.89639">
        <ele>177.6</ele>
        <time>2021-07-11T12:22:57Z</time>
      </trkpt>
      <trkpt lat="46.41431" lon="4.89588">
        <ele>177.4</ele>
        <time>2021-07-11T12:23:03Z</time>
      </trkpt>
      <trkpt lat="46.41433" lon="4.89571">
        <ele>177.4</ele>
        <time>2021-07-11T12:23:05Z</time>
      </trkpt>
      <trkpt lat="46.41439" lon="4.89548">
        <ele>177.4</ele>
        <time>2021-07-11T12:23:08Z</time>
      </trkpt>
      <trkpt lat="46.41441" lon="4.89542">
        <ele>177.6</ele>
        <time>2021-07-11T12:23:09Z</time>
      </trkpt>
      <trkpt lat="46.41464" lon="4.89492">
        <ele>177.6</ele>
        <time>2021-07-11T12:23:17Z</time>
      </trkpt>
      <trkpt lat="46.41477" lon="4.89463">
        <ele>177.6</ele>
        <time>2021-07-11T12:23:23Z</time>
      </trkpt>
      <trkpt lat="46.41491" lon="4.89447">
        <ele>177.8</ele>
        <time>2021-07-11T12:23:28Z</time>
      </trkpt>
      <trkpt lat="46.41511" lon="4.89449">
        <ele>177.8</ele>
        <time>2021-07-11T12:23:33Z</time>
      </trkpt>
      <trkpt lat="46.41544" lon="4.89457">
        <ele>177.6</ele>
        <time>2021-07-11T12:23:40Z</time>
      </trkpt>
      <trkpt lat="46.41582" lon="4.89467">
        <ele>177.6</ele>
        <time>2021-07-11T12:23:48Z</time>
      </trkpt>
      <trkpt lat="46.41621" lon="4.89475">
        <ele>177.8</ele>
        <time>2021-07-11T12:23:56Z</time>
      </trkpt>
      <trkpt lat="46.41649" lon="4.89483">
        <ele>177.6</ele>
        <time>2021-07-11T12:24:02Z</time>
      </trkpt>
      <trkpt lat="46.4166" lon="4.89476">
        <ele>177.6</ele>
        <time>2021-07-11T12:24:05Z</time>
      </trkpt>
      <trkpt lat="46.41665" lon="4.89466">
        <ele>177.6</ele>
        <time>2021-07-11T12:24:07Z</time>
      </trkpt>
      <trkpt lat="46.4167" lon="4.89457">
        <ele>177.6</ele>
        <time>2021-07-11T12:24:09Z</time>
      </trkpt>
      <trkpt lat="46.41673" lon="4.89453">
        <ele>177.6</ele>
        <time>2021-07-11T12:24:10Z</time>
      </trkpt>
      <trkpt lat="46.41676" lon="4.89449">
        <ele>177.6</ele>
        <time>2021-07-11T12:24:11Z</time>
      </trkpt>
      <trkpt lat="46.41687" lon="4.89445">
        <ele>177.4</ele>
        <time>2021-07-11T12:24:14Z</time>
      </trkpt>
      <trkpt lat="46.41691" lon="4.89445">
        <ele>177.4</ele>
        <time>2021-07-11T12:24:15Z</time>
      </trkpt>
      <trkpt lat="46.41721" lon="4.89447">
        <ele>177.4</ele>
        <time>2021-07-11T12:24:22Z</time>
      </trkpt>
      <trkpt lat="46.41749" lon="4.89445">
        <ele>177.4</ele>
        <time>2021-07-11T12:24:28Z</time>
      </trkpt>
      <trkpt lat="46.41758" lon="4.89442">
        <ele>177.4</ele>
        <time>2021-07-11T12:24:30Z</time>
      </trkpt>
      <trkpt lat="46.41762" lon="4.89439">
        <ele>177.4</ele>
        <time>2021-07-11T12:24:31Z</time>
      </trkpt>
      <trkpt lat="46.41778" lon="4.89425">
        <ele>177.4</ele>
        <time>2021-07-11T12:24:35Z</time>
      </trkpt>
      <trkpt lat="46.41786" lon="4.89417">
        <ele>177.4</ele>
        <time>2021-07-11T12:24:37Z</time>
      </trkpt>
      <trkpt lat="46.41794" lon="4.89412">
        <ele>177.4</ele>
        <time>2021-07-11T12:24:39Z</time>
      </trkpt>
      <trkpt lat="46.41802" lon="4.89409">
        <ele>177.4</ele>
        <time>2021-07-11T12:24:41Z</time>
      </trkpt>
      <trkpt lat="46.4181" lon="4.89409">
        <ele>177.4</ele>
        <time>2021-07-11T12:24:43Z</time>
      </trkpt>
      <trkpt lat="46.41825" lon="4.89408">
        <ele>177.4</ele>
        <time>2021-07-11T12:24:47Z</time>
      </trkpt>
      <trkpt lat="46.41843" lon="4.89407">
        <ele>177.4</ele>
        <time>2021-07-11T12:24:53Z</time>
      </trkpt>
      <trkpt lat="46.41873" lon="4.89405">
        <ele>177.2</ele>
        <time>2021-07-11T12:25:01Z</time>
      </trkpt>
      <trkpt lat="46.41898" lon="4.89403">
        <ele>177.2</ele>
        <time>2021-07-11T12:25:07Z</time>
      </trkpt>
      <trkpt lat="46.41936" lon="4.89403">
        <ele>177.2</ele>
        <time>2021-07-11T12:25:16Z</time>
      </trkpt>
      <trkpt lat="46.41963" lon="4.89401">
        <ele>177.4</ele>
        <time>2021-07-11T12:25:22Z</time>
      </trkpt>
      <trkpt lat="46.41967" lon="4.89401">
        <ele>177.4</ele>
        <time>2021-07-11T12:25:23Z</time>
      </trkpt>
      <trkpt lat="46.41995" lon="4.89402">
        <ele>177.4</ele>
        <time>2021-07-11T12:25:30Z</time>
      </trkpt>
      <trkpt lat="46.42009" lon="4.89403">
        <ele>177.4</ele>
        <time>2021-07-11T12:25:35Z</time>
      </trkpt>
      <trkpt lat="46.42009" lon="4.89403">
        <ele>177.4</ele>
        <time>2021-07-11T12:25:37Z</time>
      </trkpt>
      <trkpt lat="46.42014" lon="4.89396">
        <ele>177.4</ele>
        <time>2021-07-11T12:26:01Z</time>
      </trkpt>
      <trkpt lat="46.42015" lon="4.89397">
        <ele>177.4</ele>
        <time>2021-07-11T12:26:02Z</time>
      </trkpt>
      <trkpt lat="46.42025" lon="4.894">
        <ele>177.4</ele>
        <time>2021-07-11T12:26:08Z</time>
      </trkpt>
      <trkpt lat="46.42041" lon="4.894">
        <ele>177.4</ele>
        <time>2021-07-11T12:26:15Z</time>
      </trkpt>
      <trkpt lat="46.42065" lon="4.89403">
        <ele>177.4</ele>
        <time>2021-07-11T12:26:23Z</time>
      </trkpt>
      <trkpt lat="46.42093" lon="4.89405">
        <ele>177.6</ele>
        <time>2021-07-11T12:26:31Z</time>
      </trkpt>
      <trkpt lat="46.42129" lon="4.89409">
        <ele>177.6</ele>
        <time>2021-07-11T12:26:41Z</time>
      </trkpt>
      <trkpt lat="46.42164" lon="4.89412">
        <ele>177.6</ele>
        <time>2021-07-11T12:26:51Z</time>
      </trkpt>
      <trkpt lat="46.42198" lon="4.89416">
        <ele>177.6</ele>
        <time>2021-07-11T12:27:01Z</time>
      </trkpt>
      <trkpt lat="46.42233" lon="4.89419">
        <ele>177.4</ele>
        <time>2021-07-11T12:27:11Z</time>
      </trkpt>
      <trkpt lat="46.42267" lon="4.89422">
        <ele>177.6</ele>
        <time>2021-07-11T12:27:21Z</time>
      </trkpt>
      <trkpt lat="46.42301" lon="4.89426">
        <ele>177.6</ele>
        <time>2021-07-11T12:27:31Z</time>
      </trkpt>
      <trkpt lat="46.42337" lon="4.8943">
        <ele>177.6</ele>
        <time>2021-07-11T12:27:42Z</time>
      </trkpt>
      <trkpt lat="46.42354" lon="4.89433">
        <ele>177.6</ele>
        <time>2021-07-11T12:27:49Z</time>
      </trkpt>
      <trkpt lat="46.42368" lon="4.89437">
        <ele>177.8</ele>
        <time>2021-07-11T12:27:56Z</time>
      </trkpt>
      <trkpt lat="46.42372" lon="4.89437">
        <ele>177.8</ele>
        <time>2021-07-11T12:28:02Z</time>
      </trkpt>
      <trkpt lat="46.42374" lon="4.89436">
        <ele>177.8</ele>
        <time>2021-07-11T12:28:07Z</time>
      </trkpt>
      <trkpt lat="46.42383" lon="4.89438">
        <ele>177.8</ele>
        <time>2021-07-11T12:28:14Z</time>
      </trkpt>
      <trkpt lat="46.42397" lon="4.89439">
        <ele>177.6</ele>
        <time>2021-07-11T12:28:22Z</time>
      </trkpt>
      <trkpt lat="46.42416" lon="4.89441">
        <ele>177.4</ele>
        <time>2021-07-11T12:28:31Z</time>
      </trkpt>
      <trkpt lat="46.42429" lon="4.89442">
        <ele>177.4</ele>
        <time>2021-07-11T12:28:37Z</time>
      </trkpt>
      <trkpt lat="46.42463" lon="4.89446">
        <ele>177.4</ele>
        <time>2021-07-11T12:28:48Z</time>
      </trkpt>
      <trkpt lat="46.42482" lon="4.8945">
        <ele>177.4</ele>
        <time>2021-07-11T12:28:54Z</time>
      </trkpt>
      <trkpt lat="46.42516" lon="4.89453">
        <ele>177.6</ele>
        <time>2021-07-11T12:29:04Z</time>
      </trkpt>
      <trkpt lat="46.42519" lon="4.89453">
        <ele>177.6</ele>
        <time>2021-07-11T12:29:05Z</time>
      </trkpt>
      <trkpt lat="46.42549" lon="4.89456">
        <ele>177.6</ele>
        <time>2021-07-11T12:29:14Z</time>
      </trkpt>
      <trkpt lat="46.42575" lon="4.89459">
        <ele>177.8</ele>
        <time>2021-07-11T12:29:22Z</time>
      </trkpt>
      <trkpt lat="46.426" lon="4.8946">
        <ele>177.8</ele>
        <time>2021-07-11T12:29:31Z</time>
      </trkpt>
      <trkpt lat="46.4262" lon="4.89459">
        <ele>177.8</ele>
        <time>2021-07-11T12:29:40Z</time>
      </trkpt>
      <trkpt lat="46.42644" lon="4.89463">
        <ele>177.6</ele>
        <time>2021-07-11T12:29:50Z</time>
      </trkpt>
      <trkpt lat="46.42663" lon="4.89465">
        <ele>177.6</ele>
        <time>2021-07-11T12:29:57Z</time>
      </trkpt>
      <trkpt lat="46.42694" lon="4.89467">
        <ele>177.6</ele>
        <time>2021-07-11T12:30:07Z</time>
      </trkpt>
      <trkpt lat="46.42716" lon="4.89467">
        <ele>177.6</ele>
        <time>2021-07-11T12:30:15Z</time>
      </trkpt>
      <trkpt lat="46.42737" lon="4.89468">
        <ele>177.8</ele>
        <time>2021-07-11T12:30:22Z</time>
      </trkpt>
      <trkpt lat="46.42762" lon="4.89471">
        <ele>177.8</ele>
        <time>2021-07-11T12:30:30Z</time>
      </trkpt>
      <trkpt lat="46.4279" lon="4.89474">
        <ele>177.8</ele>
        <time>2021-07-11T12:30:38Z</time>
      </trkpt>
      <trkpt lat="46.42825" lon="4.89476">
        <ele>177.8</ele>
        <time>2021-07-11T12:30:48Z</time>
      </trkpt>
      <trkpt lat="46.42852" lon="4.89479">
        <ele>177.8</ele>
        <time>2021-07-11T12:30:56Z</time>
      </trkpt>
      <trkpt lat="46.42886" lon="4.89481">
        <ele>178.2</ele>
        <time>2021-07-11T12:31:06Z</time>
      </trkpt>
      <trkpt lat="46.42917" lon="4.89483">
        <ele>178.2</ele>
        <time>2021-07-11T12:31:15Z</time>
      </trkpt>
      <trkpt lat="46.42957" lon="4.89486">
        <ele>178.2</ele>
        <time>2021-07-11T12:31:26Z</time>
      </trkpt>
      <trkpt lat="46.42974" lon="4.89489">
        <ele>178</ele>
        <time>2021-07-11T12:31:31Z</time>
      </trkpt>
      <trkpt lat="46.42999" lon="4.89491">
        <ele>178</ele>
        <time>2021-07-11T12:31:39Z</time>
      </trkpt>
      <trkpt lat="46.43022" lon="4.89492">
        <ele>178</ele>
        <time>2021-07-11T12:31:46Z</time>
      </trkpt>
      <trkpt lat="46.43051" lon="4.89493">
        <ele>178.2</ele>
        <time>2021-07-11T12:31:55Z</time>
      </trkpt>
      <trkpt lat="46.43076" lon="4.89496">
        <ele>178.2</ele>
        <time>2021-07-11T12:32:03Z</time>
      </trkpt>
      <trkpt lat="46.43106" lon="4.89498">
        <ele>178.2</ele>
        <time>2021-07-11T12:32:12Z</time>
      </trkpt>
      <trkpt lat="46.43138" lon="4.89501">
        <ele>178.4</ele>
        <time>2021-07-11T12:32:22Z</time>
      </trkpt>
      <trkpt lat="46.43165" lon="4.89504">
        <ele>178.4</ele>
        <time>2021-07-11T12:32:30Z</time>
      </trkpt>
      <trkpt lat="46.4319" lon="4.89505">
        <ele>178.4</ele>
        <time>2021-07-11T12:32:37Z</time>
      </trkpt>
      <trkpt lat="46.43225" lon="4.89507">
        <ele>178.4</ele>
        <time>2021-07-11T12:32:47Z</time>
      </trkpt>
      <trkpt lat="46.43263" lon="4.89509">
        <ele>178.4</ele>
        <time>2021-07-11T12:32:58Z</time>
      </trkpt>
      <trkpt lat="46.43295" lon="4.89511">
        <ele>178.4</ele>
        <time>2021-07-11T12:33:07Z</time>
      </trkpt>
      <trkpt lat="46.4334" lon="4.89514">
        <ele>178.2</ele>
        <time>2021-07-11T12:33:20Z</time>
      </trkpt>
      <trkpt lat="46.4337" lon="4.89518">
        <ele>178.2</ele>
        <time>2021-07-11T12:33:28Z</time>
      </trkpt>
      <trkpt lat="46.43388" lon="4.89514">
        <ele>178.2</ele>
        <time>2021-07-11T12:33:33Z</time>
      </trkpt>
      <trkpt lat="46.43418" lon="4.89495">
        <ele>178.2</ele>
        <time>2021-07-11T12:33:42Z</time>
      </trkpt>
      <trkpt lat="46.43456" lon="4.89473">
        <ele>178</ele>
        <time>2021-07-11T12:33:53Z</time>
      </trkpt>
      <trkpt lat="46.43478" lon="4.89475">
        <ele>178</ele>
        <time>2021-07-11T12:33:59Z</time>
      </trkpt>
      <trkpt lat="46.43485" lon="4.89478">
        <ele>178</ele>
        <time>2021-07-11T12:34:01Z</time>
      </trkpt>
      <trkpt lat="46.43515" lon="4.89488">
        <ele>178.2</ele>
        <time>2021-07-11T12:34:09Z</time>
      </trkpt>
      <trkpt lat="46.43552" lon="4.89501">
        <ele>178.8</ele>
        <time>2021-07-11T12:34:19Z</time>
      </trkpt>
      <trkpt lat="46.43584" lon="4.89527">
        <ele>178.8</ele>
        <time>2021-07-11T12:34:29Z</time>
      </trkpt>
      <trkpt lat="46.43617" lon="4.89551">
        <ele>178.8</ele>
        <time>2021-07-11T12:34:39Z</time>
      </trkpt>
      <trkpt lat="46.43647" lon="4.89576">
        <ele>178.8</ele>
        <time>2021-07-11T12:34:49Z</time>
      </trkpt>
      <trkpt lat="46.4367" lon="4.89593">
        <ele>178.8</ele>
        <time>2021-07-11T12:34:56Z</time>
      </trkpt>
      <trkpt lat="46.43687" lon="4.89605">
        <ele>178.8</ele>
        <time>2021-07-11T12:35:02Z</time>
      </trkpt>
      <trkpt lat="46.43688" lon="4.89606">
        <ele>178.8</ele>
        <time>2021-07-11T12:35:04Z</time>
      </trkpt>
      <trkpt lat="46.43683" lon="4.89611">
        <ele>178.4</ele>
        <time>2021-07-11T12:36:28Z</time>
      </trkpt>
      <trkpt lat="46.43682" lon="4.89612">
        <ele>178.4</ele>
        <time>2021-07-11T12:36:29Z</time>
      </trkpt>
      <trkpt lat="46.43676" lon="4.89626">
        <ele>178.2</ele>
        <time>2021-07-11T12:36:34Z</time>
      </trkpt>
      <trkpt lat="46.43664" lon="4.8966">
        <ele>177.8</ele>
        <time>2021-07-11T12:36:42Z</time>
      </trkpt>
      <trkpt lat="46.43652" lon="4.89695">
        <ele>177.8</ele>
        <time>2021-07-11T12:36:49Z</time>
      </trkpt>
      <trkpt lat="46.43637" lon="4.89737">
        <ele>178</ele>
        <time>2021-07-11T12:36:57Z</time>
      </trkpt>
      <trkpt lat="46.43623" lon="4.89775">
        <ele>178</ele>
        <time>2021-07-11T12:37:04Z</time>
      </trkpt>
      <trkpt lat="46.43608" lon="4.89817">
        <ele>178</ele>
        <time>2021-07-11T12:37:11Z</time>
      </trkpt>
      <trkpt lat="46.43583" lon="4.89889">
        <ele>178</ele>
        <time>2021-07-11T12:37:23Z</time>
      </trkpt>
      <trkpt lat="46.43556" lon="4.89964">
        <ele>177.8</ele>
        <time>2021-07-11T12:37:35Z</time>
      </trkpt>
      <trkpt lat="46.43552" lon="4.89976">
        <ele>177.8</ele>
        <time>2021-07-11T12:37:37Z</time>
      </trkpt>
      <trkpt lat="46.43528" lon="4.90042">
        <ele>177.8</ele>
        <time>2021-07-11T12:37:48Z</time>
      </trkpt>
      <trkpt lat="46.43511" lon="4.90091">
        <ele>177.8</ele>
        <time>2021-07-11T12:37:56Z</time>
      </trkpt>
      <trkpt lat="46.43489" lon="4.90152">
        <ele>178</ele>
        <time>2021-07-11T12:38:06Z</time>
      </trkpt>
      <trkpt lat="46.43463" lon="4.90228">
        <ele>178</ele>
        <time>2021-07-11T12:38:18Z</time>
      </trkpt>
      <trkpt lat="46.43445" lon="4.90278">
        <ele>177.8</ele>
        <time>2021-07-11T12:38:26Z</time>
      </trkpt>
      <trkpt lat="46.43424" lon="4.90337">
        <ele>177.8</ele>
        <time>2021-07-11T12:38:35Z</time>
      </trkpt>
      <trkpt lat="46.43422" lon="4.90343">
        <ele>177.8</ele>
        <time>2021-07-11T12:38:36Z</time>
      </trkpt>
      <trkpt lat="46.43408" lon="4.90382">
        <ele>178</ele>
        <time>2021-07-11T12:38:42Z</time>
      </trkpt>
      <trkpt lat="46.43396" lon="4.90414">
        <ele>178</ele>
        <time>2021-07-11T12:38:47Z</time>
      </trkpt>
      <trkpt lat="46.43383" lon="4.90452">
        <ele>178</ele>
        <time>2021-07-11T12:38:53Z</time>
      </trkpt>
      <trkpt lat="46.43362" lon="4.90515">
        <ele>178</ele>
        <time>2021-07-11T12:39:03Z</time>
      </trkpt>
      <trkpt lat="46.43342" lon="4.90578">
        <ele>178.4</ele>
        <time>2021-07-11T12:39:13Z</time>
      </trkpt>
      <trkpt lat="46.43323" lon="4.90636">
        <ele>178.8</ele>
        <time>2021-07-11T12:39:22Z</time>
      </trkpt>
      <trkpt lat="46.43309" lon="4.90685">
        <ele>179</ele>
        <time>2021-07-11T12:39:30Z</time>
      </trkpt>
      <trkpt lat="46.43307" lon="4.90723">
        <ele>179</ele>
        <time>2021-07-11T12:39:36Z</time>
      </trkpt>
      <trkpt lat="46.43304" lon="4.90768">
        <ele>179.4</ele>
        <time>2021-07-11T12:39:44Z</time>
      </trkpt>
      <trkpt lat="46.43303" lon="4.90774">
        <ele>179.6</ele>
        <time>2021-07-11T12:39:45Z</time>
      </trkpt>
      <trkpt lat="46.43302" lon="4.9078">
        <ele>179.8</ele>
        <time>2021-07-11T12:39:46Z</time>
      </trkpt>
      <trkpt lat="46.43296" lon="4.90811">
        <ele>180</ele>
        <time>2021-07-11T12:39:51Z</time>
      </trkpt>
      <trkpt lat="46.43286" lon="4.90855">
        <ele>180.4</ele>
        <time>2021-07-11T12:39:58Z</time>
      </trkpt>
      <trkpt lat="46.43276" lon="4.90901">
        <ele>180.8</ele>
        <time>2021-07-11T12:40:05Z</time>
      </trkpt>
      <trkpt lat="46.43274" lon="4.90908">
        <ele>180.8</ele>
        <time>2021-07-11T12:40:06Z</time>
      </trkpt>
      <trkpt lat="46.43256" lon="4.9098">
        <ele>180.8</ele>
        <time>2021-07-11T12:40:16Z</time>
      </trkpt>
      <trkpt lat="46.4324" lon="4.91053">
        <ele>180.6</ele>
        <time>2021-07-11T12:40:26Z</time>
      </trkpt>
      <trkpt lat="46.43228" lon="4.9112">
        <ele>181</ele>
        <time>2021-07-11T12:40:35Z</time>
      </trkpt>
      <trkpt lat="46.43216" lon="4.91193">
        <ele>181.4</ele>
        <time>2021-07-11T12:40:45Z</time>
      </trkpt>
      <trkpt lat="46.43213" lon="4.91207">
        <ele>181.8</ele>
        <time>2021-07-11T12:40:47Z</time>
      </trkpt>
      <trkpt lat="46.43204" lon="4.91256">
        <ele>182.6</ele>
        <time>2021-07-11T12:40:54Z</time>
      </trkpt>
      <trkpt lat="46.43201" lon="4.9127">
        <ele>182.8</ele>
        <time>2021-07-11T12:40:56Z</time>
      </trkpt>
      <trkpt lat="46.43192" lon="4.91309">
        <ele>184</ele>
        <time>2021-07-11T12:41:02Z</time>
      </trkpt>
      <trkpt lat="46.43185" lon="4.91334">
        <ele>184.2</ele>
        <time>2021-07-11T12:41:06Z</time>
      </trkpt>
      <trkpt lat="46.43181" lon="4.91359">
        <ele>184.6</ele>
        <time>2021-07-11T12:41:11Z</time>
      </trkpt>
      <trkpt lat="46.43189" lon="4.91367">
        <ele>184.8</ele>
        <time>2021-07-11T12:41:14Z</time>
      </trkpt>
      <trkpt lat="46.43193" lon="4.91368">
        <ele>185</ele>
        <time>2021-07-11T12:41:15Z</time>
      </trkpt>
      <trkpt lat="46.43205" lon="4.91373">
        <ele>185.2</ele>
        <time>2021-07-11T12:41:18Z</time>
      </trkpt>
      <trkpt lat="46.43209" lon="4.91374">
        <ele>185.2</ele>
        <time>2021-07-11T12:41:19Z</time>
      </trkpt>
      <trkpt lat="46.43218" lon="4.91377">
        <ele>185.2</ele>
        <time>2021-07-11T12:41:21Z</time>
      </trkpt>
      <trkpt lat="46.43236" lon="4.91379">
        <ele>185.4</ele>
        <time>2021-07-11T12:41:25Z</time>
      </trkpt>
      <trkpt lat="46.43278" lon="4.91373">
        <ele>185.2</ele>
        <time>2021-07-11T12:41:33Z</time>
      </trkpt>
      <trkpt lat="46.43328" lon="4.91362">
        <ele>184.6</ele>
        <time>2021-07-11T12:41:42Z</time>
      </trkpt>
      <trkpt lat="46.43352" lon="4.91357">
        <ele>184.4</ele>
        <time>2021-07-11T12:41:46Z</time>
      </trkpt>
      <trkpt lat="46.43363" lon="4.91359">
        <ele>184.2</ele>
        <time>2021-07-11T12:41:48Z</time>
      </trkpt>
      <trkpt lat="46.43373" lon="4.91363">
        <ele>184</ele>
        <time>2021-07-11T12:41:50Z</time>
      </trkpt>
      <trkpt lat="46.43381" lon="4.9137">
        <ele>183.8</ele>
        <time>2021-07-11T12:41:52Z</time>
      </trkpt>
      <trkpt lat="46.43385" lon="4.91376">
        <ele>183.6</ele>
        <time>2021-07-11T12:41:54Z</time>
      </trkpt>
      <trkpt lat="46.43386" lon="4.91377">
        <ele>183.6</ele>
        <time>2021-07-11T12:41:55Z</time>
      </trkpt>
      <trkpt lat="46.43393" lon="4.91386">
        <ele>183.6</ele>
        <time>2021-07-11T12:42:01Z</time>
      </trkpt>
      <trkpt lat="46.43396" lon="4.91389">
        <ele>183.6</ele>
        <time>2021-07-11T12:42:06Z</time>
      </trkpt>
      <trkpt lat="46.43395" lon="4.91385">
        <ele>183.6</ele>
        <time>2021-07-11T12:42:12Z</time>
      </trkpt>
      <trkpt lat="46.43386" lon="4.91374">
        <ele>183.6</ele>
        <time>2021-07-11T12:42:17Z</time>
      </trkpt>
      <trkpt lat="46.43372" lon="4.91358">
        <ele>183.6</ele>
        <time>2021-07-11T12:42:23Z</time>
      </trkpt>
      <trkpt lat="46.43371" lon="4.91357">
        <ele>183.6</ele>
        <time>2021-07-11T12:42:25Z</time>
      </trkpt>
      <trkpt lat="46.43373" lon="4.91363">
        <ele>183.6</ele>
        <time>2021-07-11T12:43:12Z</time>
      </trkpt>
      <trkpt lat="46.43375" lon="4.91364">
        <ele>183.6</ele>
        <time>2021-07-11T12:43:13Z</time>
      </trkpt>
      <trkpt lat="46.43384" lon="4.91374">
        <ele>183.6</ele>
        <time>2021-07-11T12:43:18Z</time>
      </trkpt>
      <trkpt lat="46.43406" lon="4.91397">
        <ele>183.4</ele>
        <time>2021-07-11T12:43:24Z</time>
      </trkpt>
      <trkpt lat="46.43449" lon="4.91435">
        <ele>183.4</ele>
        <time>2021-07-11T12:43:33Z</time>
      </trkpt>
      <trkpt lat="46.43497" lon="4.91473">
        <ele>183.4</ele>
        <time>2021-07-11T12:43:42Z</time>
      </trkpt>
      <trkpt lat="46.43508" lon="4.91482">
        <ele>183.4</ele>
        <time>2021-07-11T12:43:44Z</time>
      </trkpt>
      <trkpt lat="46.43554" lon="4.91523">
        <ele>183.4</ele>
        <time>2021-07-11T12:43:53Z</time>
      </trkpt>
      <trkpt lat="46.43565" lon="4.91532">
        <ele>183.4</ele>
        <time>2021-07-11T12:43:55Z</time>
      </trkpt>
      <trkpt lat="46.43615" lon="4.91567">
        <ele>183.4</ele>
        <time>2021-07-11T12:44:04Z</time>
      </trkpt>
      <trkpt lat="46.43656" lon="4.91587">
        <ele>183</ele>
        <time>2021-07-11T12:44:11Z</time>
      </trkpt>
      <trkpt lat="46.43668" lon="4.91592">
        <ele>183</ele>
        <time>2021-07-11T12:44:13Z</time>
      </trkpt>
      <trkpt lat="46.43699" lon="4.91614">
        <ele>182.6</ele>
        <time>2021-07-11T12:44:19Z</time>
      </trkpt>
      <trkpt lat="46.43721" lon="4.9164">
        <ele>182.6</ele>
        <time>2021-07-11T12:44:24Z</time>
      </trkpt>
      <trkpt lat="46.43724" lon="4.91646">
        <ele>182.6</ele>
        <time>2021-07-11T12:44:25Z</time>
      </trkpt>
      <trkpt lat="46.43746" lon="4.91692">
        <ele>182.8</ele>
        <time>2021-07-11T12:44:32Z</time>
      </trkpt>
      <trkpt lat="46.43771" lon="4.91732">
        <ele>183.2</ele>
        <time>2021-07-11T12:44:39Z</time>
      </trkpt>
      <trkpt lat="46.43793" lon="4.91753">
        <ele>183.4</ele>
        <time>2021-07-11T12:44:45Z</time>
      </trkpt>
      <trkpt lat="46.43814" lon="4.91765">
        <ele>183.4</ele>
        <time>2021-07-11T12:44:52Z</time>
      </trkpt>
      <trkpt lat="46.4384" lon="4.91783">
        <ele>183.4</ele>
        <time>2021-07-11T12:44:59Z</time>
      </trkpt>
      <trkpt lat="46.43874" lon="4.91814">
        <ele>183.6</ele>
        <time>2021-07-11T12:45:08Z</time>
      </trkpt>
      <trkpt lat="46.43898" lon="4.9184">
        <ele>183.6</ele>
        <time>2021-07-11T12:45:14Z</time>
      </trkpt>
      <trkpt lat="46.43941" lon="4.91895">
        <ele>183.4</ele>
        <time>2021-07-11T12:45:25Z</time>
      </trkpt>
      <trkpt lat="46.43976" lon="4.91941">
        <ele>182.8</ele>
        <time>2021-07-11T12:45:34Z</time>
      </trkpt>
      <trkpt lat="46.43999" lon="4.91989">
        <ele>182.8</ele>
        <time>2021-07-11T12:45:42Z</time>
      </trkpt>
      <trkpt lat="46.44002" lon="4.91995">
        <ele>182.8</ele>
        <time>2021-07-11T12:45:43Z</time>
      </trkpt>
      <trkpt lat="46.44009" lon="4.92005">
        <ele>182.8</ele>
        <time>2021-07-11T12:45:45Z</time>
      </trkpt>
      <trkpt lat="46.44016" lon="4.92014">
        <ele>182.8</ele>
        <time>2021-07-11T12:45:47Z</time>
      </trkpt>
      <trkpt lat="46.44057" lon="4.92043">
        <ele>183.2</ele>
        <time>2021-07-11T12:45:56Z</time>
      </trkpt>
      <trkpt lat="46.44071" lon="4.92054">
        <ele>183.2</ele>
        <time>2021-07-11T12:45:59Z</time>
      </trkpt>
      <trkpt lat="46.44077" lon="4.92063">
        <ele>183.2</ele>
        <time>2021-07-11T12:46:01Z</time>
      </trkpt>
      <trkpt lat="46.44082" lon="4.92089">
        <ele>183</ele>
        <time>2021-07-11T12:46:06Z</time>
      </trkpt>
      <trkpt lat="46.44081" lon="4.92096">
        <ele>183</ele>
        <time>2021-07-11T12:46:07Z</time>
      </trkpt>
      <trkpt lat="46.44073" lon="4.92136">
        <ele>183</ele>
        <time>2021-07-11T12:46:13Z</time>
      </trkpt>
      <trkpt lat="46.4406" lon="4.92191">
        <ele>183.4</ele>
        <time>2021-07-11T12:46:21Z</time>
      </trkpt>
      <trkpt lat="46.44043" lon="4.92249">
        <ele>183.8</ele>
        <time>2021-07-11T12:46:30Z</time>
      </trkpt>
      <trkpt lat="46.44035" lon="4.92265">
        <ele>184.2</ele>
        <time>2021-07-11T12:46:33Z</time>
      </trkpt>
      <trkpt lat="46.44027" lon="4.92282">
        <ele>184.4</ele>
        <time>2021-07-11T12:46:37Z</time>
      </trkpt>
      <trkpt lat="46.44026" lon="4.92285">
        <ele>184.6</ele>
        <time>2021-07-11T12:46:38Z</time>
      </trkpt>
      <trkpt lat="46.44027" lon="4.9229">
        <ele>184.6</ele>
        <time>2021-07-11T12:46:40Z</time>
      </trkpt>
      <trkpt lat="46.44035" lon="4.92296">
        <ele>184.6</ele>
        <time>2021-07-11T12:46:43Z</time>
      </trkpt>
      <trkpt lat="46.44038" lon="4.92298">
        <ele>184.6</ele>
        <time>2021-07-11T12:46:44Z</time>
      </trkpt>
      <trkpt lat="46.44063" lon="4.92314">
        <ele>184.4</ele>
        <time>2021-07-11T12:46:50Z</time>
      </trkpt>
      <trkpt lat="46.44098" lon="4.92338">
        <ele>183.2</ele>
        <time>2021-07-11T12:46:57Z</time>
      </trkpt>
      <trkpt lat="46.44107" lon="4.92344">
        <ele>183</ele>
        <time>2021-07-11T12:46:59Z</time>
      </trkpt>
      <trkpt lat="46.44126" lon="4.92357">
        <ele>182.8</ele>
        <time>2021-07-11T12:47:03Z</time>
      </trkpt>
      <trkpt lat="46.44155" lon="4.92375">
        <ele>182.6</ele>
        <time>2021-07-11T12:47:09Z</time>
      </trkpt>
      <trkpt lat="46.44174" lon="4.92386">
        <ele>182.6</ele>
        <time>2021-07-11T12:47:13Z</time>
      </trkpt>
      <trkpt lat="46.44183" lon="4.92393">
        <ele>182.6</ele>
        <time>2021-07-11T12:47:15Z</time>
      </trkpt>
      <trkpt lat="46.44219" lon="4.92414">
        <ele>182.4</ele>
        <time>2021-07-11T12:47:22Z</time>
      </trkpt>
      <trkpt lat="46.44252" lon="4.92433">
        <ele>182.6</ele>
        <time>2021-07-11T12:47:29Z</time>
      </trkpt>
      <trkpt lat="46.44281" lon="4.9245">
        <ele>183</ele>
        <time>2021-07-11T12:47:36Z</time>
      </trkpt>
      <trkpt lat="46.44285" lon="4.92448">
        <ele>183</ele>
        <time>2021-07-11T12:47:37Z</time>
      </trkpt>
      <trkpt lat="46.4429" lon="4.92441">
        <ele>183.2</ele>
        <time>2021-07-11T12:47:39Z</time>
      </trkpt>
      <trkpt lat="46.44295" lon="4.92432">
        <ele>183</ele>
        <time>2021-07-11T12:47:41Z</time>
      </trkpt>
      <trkpt lat="46.44303" lon="4.92409">
        <ele>183</ele>
        <time>2021-07-11T12:47:45Z</time>
      </trkpt>
      <trkpt lat="46.44319" lon="4.9236">
        <ele>183</ele>
        <time>2021-07-11T12:47:52Z</time>
      </trkpt>
      <trkpt lat="46.44323" lon="4.92345">
        <ele>182.8</ele>
        <time>2021-07-11T12:47:54Z</time>
      </trkpt>
      <trkpt lat="46.4433" lon="4.92313">
        <ele>182.6</ele>
        <time>2021-07-11T12:47:58Z</time>
      </trkpt>
      <trkpt lat="46.44339" lon="4.92258">
        <ele>182</ele>
        <time>2021-07-11T12:48:05Z</time>
      </trkpt>
      <trkpt lat="46.4434" lon="4.9225">
        <ele>182.2</ele>
        <time>2021-07-11T12:48:06Z</time>
      </trkpt>
      <trkpt lat="46.44348" lon="4.92189">
        <ele>182</ele>
        <time>2021-07-11T12:48:14Z</time>
      </trkpt>
      <trkpt lat="46.44358" lon="4.92128">
        <ele>182</ele>
        <time>2021-07-11T12:48:22Z</time>
      </trkpt>
      <trkpt lat="46.44369" lon="4.92053">
        <ele>182</ele>
        <time>2021-07-11T12:48:32Z</time>
      </trkpt>
      <trkpt lat="46.44372" lon="4.92038">
        <ele>181.8</ele>
        <time>2021-07-11T12:48:34Z</time>
      </trkpt>
      <trkpt lat="46.44377" lon="4.92009">
        <ele>181.8</ele>
        <time>2021-07-11T12:48:38Z</time>
      </trkpt>
      <trkpt lat="46.44387" lon="4.91951">
        <ele>181.8</ele>
        <time>2021-07-11T12:48:46Z</time>
      </trkpt>
      <trkpt lat="46.44396" lon="4.919">
        <ele>181.8</ele>
        <time>2021-07-11T12:48:53Z</time>
      </trkpt>
      <trkpt lat="46.44403" lon="4.9185">
        <ele>182</ele>
        <time>2021-07-11T12:49:00Z</time>
      </trkpt>
      <trkpt lat="46.44412" lon="4.91792">
        <ele>182</ele>
        <time>2021-07-11T12:49:08Z</time>
      </trkpt>
      <trkpt lat="46.4442" lon="4.91741">
        <ele>182</ele>
        <time>2021-07-11T12:49:15Z</time>
      </trkpt>
      <trkpt lat="46.4443" lon="4.91683">
        <ele>182</ele>
        <time>2021-07-11T12:49:23Z</time>
      </trkpt>
      <trkpt lat="46.44439" lon="4.91612">
        <ele>182</ele>
        <time>2021-07-11T12:49:32Z</time>
      </trkpt>
      <trkpt lat="46.44446" lon="4.91558">
        <ele>182</ele>
        <time>2021-07-11T12:49:39Z</time>
      </trkpt>
      <trkpt lat="46.44456" lon="4.91487">
        <ele>181.8</ele>
        <time>2021-07-11T12:49:48Z</time>
      </trkpt>
      <trkpt lat="46.44466" lon="4.91409">
        <ele>182</ele>
        <time>2021-07-11T12:49:58Z</time>
      </trkpt>
      <trkpt lat="46.44479" lon="4.91333">
        <ele>182</ele>
        <time>2021-07-11T12:50:08Z</time>
      </trkpt>
      <trkpt lat="46.4448" lon="4.91325">
        <ele>182</ele>
        <time>2021-07-11T12:50:09Z</time>
      </trkpt>
      <trkpt lat="46.4449" lon="4.91263">
        <ele>181.8</ele>
        <time>2021-07-11T12:50:17Z</time>
      </trkpt>
      <trkpt lat="46.445" lon="4.91193">
        <ele>181.8</ele>
        <time>2021-07-11T12:50:26Z</time>
      </trkpt>
      <trkpt lat="46.4451" lon="4.91115">
        <ele>182.2</ele>
        <time>2021-07-11T12:50:36Z</time>
      </trkpt>
      <trkpt lat="46.4452" lon="4.91051">
        <ele>182.2</ele>
        <time>2021-07-11T12:50:44Z</time>
      </trkpt>
      <trkpt lat="46.44533" lon="4.9097">
        <ele>182.2</ele>
        <time>2021-07-11T12:50:54Z</time>
      </trkpt>
      <trkpt lat="46.44535" lon="4.90954">
        <ele>182.2</ele>
        <time>2021-07-11T12:50:56Z</time>
      </trkpt>
      <trkpt lat="46.44544" lon="4.90897">
        <ele>182.2</ele>
        <time>2021-07-11T12:51:03Z</time>
      </trkpt>
      <trkpt lat="46.44556" lon="4.90812">
        <ele>182</ele>
        <time>2021-07-11T12:51:13Z</time>
      </trkpt>
      <trkpt lat="46.44558" lon="4.90804">
        <ele>182</ele>
        <time>2021-07-11T12:51:14Z</time>
      </trkpt>
      <trkpt lat="46.44571" lon="4.90724">
        <ele>182</ele>
        <time>2021-07-11T12:51:24Z</time>
      </trkpt>
      <trkpt lat="46.44573" lon="4.90708">
        <ele>182</ele>
        <time>2021-07-11T12:51:26Z</time>
      </trkpt>
      <trkpt lat="46.44583" lon="4.90643">
        <ele>182</ele>
        <time>2021-07-11T12:51:34Z</time>
      </trkpt>
      <trkpt lat="46.44589" lon="4.90603">
        <ele>182</ele>
        <time>2021-07-11T12:51:39Z</time>
      </trkpt>
      <trkpt lat="46.44595" lon="4.90563">
        <ele>182</ele>
        <time>2021-07-11T12:51:44Z</time>
      </trkpt>
      <trkpt lat="46.44607" lon="4.90481">
        <ele>182.2</ele>
        <time>2021-07-11T12:51:54Z</time>
      </trkpt>
      <trkpt lat="46.4461" lon="4.90465">
        <ele>182.4</ele>
        <time>2021-07-11T12:51:56Z</time>
      </trkpt>
      <trkpt lat="46.44621" lon="4.90392">
        <ele>182.6</ele>
        <time>2021-07-11T12:52:05Z</time>
      </trkpt>
      <trkpt lat="46.44631" lon="4.90325">
        <ele>182.8</ele>
        <time>2021-07-11T12:52:13Z</time>
      </trkpt>
      <trkpt lat="46.44642" lon="4.90249">
        <ele>182.8</ele>
        <time>2021-07-11T12:52:22Z</time>
      </trkpt>
      <trkpt lat="46.44654" lon="4.90174">
        <ele>182.6</ele>
        <time>2021-07-11T12:52:31Z</time>
      </trkpt>
      <trkpt lat="46.44664" lon="4.90104">
        <ele>182.6</ele>
        <time>2021-07-11T12:52:40Z</time>
      </trkpt>
      <trkpt lat="46.44673" lon="4.90047">
        <ele>182.6</ele>
        <time>2021-07-11T12:52:48Z</time>
      </trkpt>
      <trkpt lat="46.44681" lon="4.89998">
        <ele>182.4</ele>
        <time>2021-07-11T12:52:55Z</time>
      </trkpt>
      <trkpt lat="46.44687" lon="4.89953">
        <ele>182.6</ele>
        <time>2021-07-11T12:53:02Z</time>
      </trkpt>
      <trkpt lat="46.44693" lon="4.89913">
        <ele>182.6</ele>
        <time>2021-07-11T12:53:10Z</time>
      </trkpt>
      <trkpt lat="46.44697" lon="4.89897">
        <ele>182.6</ele>
        <time>2021-07-11T12:53:15Z</time>
      </trkpt>
      <trkpt lat="46.44699" lon="4.89895">
        <ele>182.6</ele>
        <time>2021-07-11T12:53:16Z</time>
      </trkpt>
      <trkpt lat="46.44709" lon="4.89892">
        <ele>182.8</ele>
        <time>2021-07-11T12:53:20Z</time>
      </trkpt>
      <trkpt lat="46.44727" lon="4.89888">
        <ele>183.2</ele>
        <time>2021-07-11T12:53:28Z</time>
      </trkpt>
      <trkpt lat="46.44729" lon="4.89888">
        <ele>183.2</ele>
        <time>2021-07-11T12:53:31Z</time>
      </trkpt>
      <trkpt lat="46.44733" lon="4.89888">
        <ele>183.2</ele>
        <time>2021-07-11T12:53:41Z</time>
      </trkpt>
      <trkpt lat="46.44737" lon="4.89878">
        <ele>183.2</ele>
        <time>2021-07-11T12:53:45Z</time>
      </trkpt>
      <trkpt lat="46.44739" lon="4.8986">
        <ele>183.2</ele>
        <time>2021-07-11T12:53:49Z</time>
      </trkpt>
      <trkpt lat="46.4474" lon="4.89855">
        <ele>183.2</ele>
        <time>2021-07-11T12:53:50Z</time>
      </trkpt>
      <trkpt lat="46.44743" lon="4.89831">
        <ele>183.2</ele>
        <time>2021-07-11T12:53:56Z</time>
      </trkpt>
      <trkpt lat="46.44749" lon="4.89797">
        <ele>183.4</ele>
        <time>2021-07-11T12:54:02Z</time>
      </trkpt>
      <trkpt lat="46.44752" lon="4.89777">
        <ele>183.4</ele>
        <time>2021-07-11T12:54:05Z</time>
      </trkpt>
      <trkpt lat="46.44755" lon="4.89757">
        <ele>183.6</ele>
        <time>2021-07-11T12:54:08Z</time>
      </trkpt>
      <trkpt lat="46.44756" lon="4.8975">
        <ele>183.6</ele>
        <time>2021-07-11T12:54:09Z</time>
      </trkpt>
      <trkpt lat="46.44763" lon="4.89705">
        <ele>184.4</ele>
        <time>2021-07-11T12:54:16Z</time>
      </trkpt>
      <trkpt lat="46.44766" lon="4.89687">
        <ele>184.6</ele>
        <time>2021-07-11T12:54:19Z</time>
      </trkpt>
      <trkpt lat="46.44769" lon="4.89669">
        <ele>185.4</ele>
        <time>2021-07-11T12:54:22Z</time>
      </trkpt>
      <trkpt lat="46.44771" lon="4.89656">
        <ele>185.8</ele>
        <time>2021-07-11T12:54:24Z</time>
      </trkpt>
      <trkpt lat="46.44777" lon="4.89623">
        <ele>187</ele>
        <time>2021-07-11T12:54:29Z</time>
      </trkpt>
      <trkpt lat="46.44779" lon="4.8961">
        <ele>187.4</ele>
        <time>2021-07-11T12:54:31Z</time>
      </trkpt>
      <trkpt lat="46.44782" lon="4.89596">
        <ele>187.8</ele>
        <time>2021-07-11T12:54:33Z</time>
      </trkpt>
      <trkpt lat="46.44784" lon="4.89581">
        <ele>188</ele>
        <time>2021-07-11T12:54:35Z</time>
      </trkpt>
      <trkpt lat="46.44786" lon="4.89566">
        <ele>188.2</ele>
        <time>2021-07-11T12:54:37Z</time>
      </trkpt>
      <trkpt lat="46.44793" lon="4.8951">
        <ele>188.2</ele>
        <time>2021-07-11T12:54:44Z</time>
      </trkpt>
      <trkpt lat="46.44795" lon="4.89475">
        <ele>187.6</ele>
        <time>2021-07-11T12:54:49Z</time>
      </trkpt>
      <trkpt lat="46.44794" lon="4.8947">
        <ele>187.2</ele>
        <time>2021-07-11T12:54:50Z</time>
      </trkpt>
      <trkpt lat="46.4479" lon="4.89466">
        <ele>187</ele>
        <time>2021-07-11T12:54:51Z</time>
      </trkpt>
      <trkpt lat="46.44787" lon="4.89461">
        <ele>186.6</ele>
        <time>2021-07-11T12:54:52Z</time>
      </trkpt>
      <trkpt lat="46.44778" lon="4.89449">
        <ele>185.8</ele>
        <time>2021-07-11T12:54:54Z</time>
      </trkpt>
      <trkpt lat="46.44764" lon="4.89429">
        <ele>185.2</ele>
        <time>2021-07-11T12:54:57Z</time>
      </trkpt>
      <trkpt lat="46.44747" lon="4.89409">
        <ele>184.6</ele>
        <time>2021-07-11T12:55:00Z</time>
      </trkpt>
      <trkpt lat="46.4473" lon="4.89392">
        <ele>183.6</ele>
        <time>2021-07-11T12:55:03Z</time>
      </trkpt>
      <trkpt lat="46.44725" lon="4.89387">
        <ele>183.2</ele>
        <time>2021-07-11T12:55:04Z</time>
      </trkpt>
      <trkpt lat="46.44709" lon="4.89372">
        <ele>182</ele>
        <time>2021-07-11T12:55:07Z</time>
      </trkpt>
      <trkpt lat="46.44688" lon="4.89355">
        <ele>181.6</ele>
        <time>2021-07-11T12:55:11Z</time>
      </trkpt>
      <trkpt lat="46.44643" lon="4.89316">
        <ele>181.4</ele>
        <time>2021-07-11T12:55:20Z</time>
      </trkpt>
      <trkpt lat="46.44612" lon="4.89293">
        <ele>181.2</ele>
        <time>2021-07-11T12:55:27Z</time>
      </trkpt>
      <trkpt lat="46.44608" lon="4.89289">
        <ele>181.2</ele>
        <time>2021-07-11T12:55:28Z</time>
      </trkpt>
      <trkpt lat="46.44602" lon="4.89277">
        <ele>181.2</ele>
        <time>2021-07-11T12:55:31Z</time>
      </trkpt>
      <trkpt lat="46.44605" lon="4.89256">
        <ele>181.4</ele>
        <time>2021-07-11T12:55:35Z</time>
      </trkpt>
      <trkpt lat="46.44609" lon="4.89245">
        <ele>181.4</ele>
        <time>2021-07-11T12:55:37Z</time>
      </trkpt>
      <trkpt lat="46.44617" lon="4.89218">
        <ele>181.4</ele>
        <time>2021-07-11T12:55:41Z</time>
      </trkpt>
      <trkpt lat="46.44636" lon="4.89156">
        <ele>181.4</ele>
        <time>2021-07-11T12:55:49Z</time>
      </trkpt>
      <trkpt lat="46.44659" lon="4.89077">
        <ele>181.2</ele>
        <time>2021-07-11T12:55:59Z</time>
      </trkpt>
      <trkpt lat="46.44661" lon="4.89069">
        <ele>181.2</ele>
        <time>2021-07-11T12:56:00Z</time>
      </trkpt>
      <trkpt lat="46.44668" lon="4.89045">
        <ele>181</ele>
        <time>2021-07-11T12:56:03Z</time>
      </trkpt>
      <trkpt lat="46.44681" lon="4.88997">
        <ele>180.8</ele>
        <time>2021-07-11T12:56:09Z</time>
      </trkpt>
      <trkpt lat="46.44699" lon="4.88935">
        <ele>180.6</ele>
        <time>2021-07-11T12:56:17Z</time>
      </trkpt>
      <trkpt lat="46.44722" lon="4.88857">
        <ele>180.6</ele>
        <time>2021-07-11T12:56:27Z</time>
      </trkpt>
      <trkpt lat="46.44743" lon="4.88779">
        <ele>180.6</ele>
        <time>2021-07-11T12:56:37Z</time>
      </trkpt>
      <trkpt lat="46.4476" lon="4.88706">
        <ele>180.8</ele>
        <time>2021-07-11T12:56:47Z</time>
      </trkpt>
      <trkpt lat="46.44767" lon="4.88677">
        <ele>181.2</ele>
        <time>2021-07-11T12:56:52Z</time>
      </trkpt>
      <trkpt lat="46.44767" lon="4.88669">
        <ele>181.2</ele>
        <time>2021-07-11T12:56:54Z</time>
      </trkpt>
      <trkpt lat="46.44763" lon="4.88664">
        <ele>181.2</ele>
        <time>2021-07-11T12:56:56Z</time>
      </trkpt>
      <trkpt lat="46.44756" lon="4.8866">
        <ele>181.2</ele>
        <time>2021-07-11T12:56:58Z</time>
      </trkpt>
      <trkpt lat="46.44742" lon="4.88653">
        <ele>181.2</ele>
        <time>2021-07-11T12:57:01Z</time>
      </trkpt>
      <trkpt lat="46.44704" lon="4.88633">
        <ele>180.8</ele>
        <time>2021-07-11T12:57:09Z</time>
      </trkpt>
      <trkpt lat="46.44663" lon="4.8861">
        <ele>181</ele>
        <time>2021-07-11T12:57:18Z</time>
      </trkpt>
      <trkpt lat="46.44647" lon="4.88595">
        <ele>181.2</ele>
        <time>2021-07-11T12:57:23Z</time>
      </trkpt>
      <trkpt lat="46.44647" lon="4.88577">
        <ele>181.6</ele>
        <time>2021-07-11T12:57:27Z</time>
      </trkpt>
      <trkpt lat="46.44639" lon="4.88564">
        <ele>181.8</ele>
        <time>2021-07-11T12:57:31Z</time>
      </trkpt>
      <trkpt lat="46.44627" lon="4.8856">
        <ele>182</ele>
        <time>2021-07-11T12:57:34Z</time>
      </trkpt>
      <trkpt lat="46.44618" lon="4.8856">
        <ele>182</ele>
        <time>2021-07-11T12:57:36Z</time>
      </trkpt>
      <trkpt lat="46.44608" lon="4.8856">
        <ele>182</ele>
        <time>2021-07-11T12:57:38Z</time>
      </trkpt>
      <trkpt lat="46.44594" lon="4.88564">
        <ele>182</ele>
        <time>2021-07-11T12:57:41Z</time>
      </trkpt>
      <trkpt lat="46.4459" lon="4.88567">
        <ele>181.8</ele>
        <time>2021-07-11T12:57:42Z</time>
      </trkpt>
      <trkpt lat="46.44581" lon="4.88584">
        <ele>181.6</ele>
        <time>2021-07-11T12:57:45Z</time>
      </trkpt>
      <trkpt lat="46.44576" lon="4.88605">
        <ele>181.4</ele>
        <time>2021-07-11T12:57:48Z</time>
      </trkpt>
      <trkpt lat="46.44573" lon="4.88621">
        <ele>181.2</ele>
        <time>2021-07-11T12:57:50Z</time>
      </trkpt>
      <trkpt lat="46.44568" lon="4.88645">
        <ele>181</ele>
        <time>2021-07-11T12:57:53Z</time>
      </trkpt>
      <trkpt lat="46.44558" lon="4.88662">
        <ele>181</ele>
        <time>2021-07-11T12:57:56Z</time>
      </trkpt>
      <trkpt lat="46.44544" lon="4.88659">
        <ele>180.8</ele>
        <time>2021-07-11T12:57:59Z</time>
      </trkpt>
      <trkpt lat="46.44539" lon="4.88655">
        <ele>180.8</ele>
        <time>2021-07-11T12:58:00Z</time>
      </trkpt>
      <trkpt lat="46.44515" lon="4.88635">
        <ele>180.4</ele>
        <time>2021-07-11T12:58:05Z</time>
      </trkpt>
      <trkpt lat="46.44492" lon="4.88614">
        <ele>180.2</ele>
        <time>2021-07-11T12:58:10Z</time>
      </trkpt>
      <trkpt lat="46.44488" lon="4.88608">
        <ele>180.2</ele>
        <time>2021-07-11T12:58:11Z</time>
      </trkpt>
      <trkpt lat="46.44484" lon="4.88602">
        <ele>180.2</ele>
        <time>2021-07-11T12:58:12Z</time>
      </trkpt>
      <trkpt lat="46.44464" lon="4.88565">
        <ele>180</ele>
        <time>2021-07-11T12:58:18Z</time>
      </trkpt>
      <trkpt lat="46.4446" lon="4.88559">
        <ele>180</ele>
        <time>2021-07-11T12:58:19Z</time>
      </trkpt>
      <trkpt lat="46.44454" lon="4.88548">
        <ele>180</ele>
        <time>2021-07-11T12:58:21Z</time>
      </trkpt>
      <trkpt lat="46.44453" lon="4.88533">
        <ele>180</ele>
        <time>2021-07-11T12:58:23Z</time>
      </trkpt>
      <trkpt lat="46.44454" lon="4.88518">
        <ele>180</ele>
        <time>2021-07-11T12:58:25Z</time>
      </trkpt>
      <trkpt lat="46.4445" lon="4.88498">
        <ele>180.2</ele>
        <time>2021-07-11T12:58:28Z</time>
      </trkpt>
      <trkpt lat="46.44448" lon="4.88491">
        <ele>180.2</ele>
        <time>2021-07-11T12:58:29Z</time>
      </trkpt>
      <trkpt lat="46.44427" lon="4.8844">
        <ele>180.4</ele>
        <time>2021-07-11T12:58:37Z</time>
      </trkpt>
      <trkpt lat="46.44422" lon="4.88429">
        <ele>180.6</ele>
        <time>2021-07-11T12:58:39Z</time>
      </trkpt>
      <trkpt lat="46.4441" lon="4.88418">
        <ele>180.6</ele>
        <time>2021-07-11T12:58:42Z</time>
      </trkpt>
      <trkpt lat="46.44391" lon="4.88419">
        <ele>181</ele>
        <time>2021-07-11T12:58:46Z</time>
      </trkpt>
      <trkpt lat="46.44381" lon="4.88424">
        <ele>181</ele>
        <time>2021-07-11T12:58:48Z</time>
      </trkpt>
      <trkpt lat="46.44357" lon="4.88439">
        <ele>181.2</ele>
        <time>2021-07-11T12:58:53Z</time>
      </trkpt>
      <trkpt lat="46.44353" lon="4.88441">
        <ele>181.2</ele>
        <time>2021-07-11T12:58:54Z</time>
      </trkpt>
      <trkpt lat="46.44344" lon="4.88444">
        <ele>181.4</ele>
        <time>2021-07-11T12:58:56Z</time>
      </trkpt>
      <trkpt lat="46.44337" lon="4.88448">
        <ele>181.4</ele>
        <time>2021-07-11T12:58:58Z</time>
      </trkpt>
      <trkpt lat="46.44329" lon="4.88464">
        <ele>181.6</ele>
        <time>2021-07-11T12:59:01Z</time>
      </trkpt>
      <trkpt lat="46.44326" lon="4.8847">
        <ele>181.6</ele>
        <time>2021-07-11T12:59:02Z</time>
      </trkpt>
      <trkpt lat="46.44317" lon="4.88502">
        <ele>181.6</ele>
        <time>2021-07-11T12:59:08Z</time>
      </trkpt>
      <trkpt lat="46.4431" lon="4.8851">
        <ele>182</ele>
        <time>2021-07-11T12:59:12Z</time>
      </trkpt>
      <trkpt lat="46.44297" lon="4.88509">
        <ele>182.6</ele>
        <time>2021-07-11T12:59:16Z</time>
      </trkpt>
      <trkpt lat="46.44294" lon="4.88507">
        <ele>182.6</ele>
        <time>2021-07-11T12:59:17Z</time>
      </trkpt>
      <trkpt lat="46.44283" lon="4.88497">
        <ele>182.6</ele>
        <time>2021-07-11T12:59:20Z</time>
      </trkpt>
      <trkpt lat="46.44275" lon="4.88489">
        <ele>182.8</ele>
        <time>2021-07-11T12:59:22Z</time>
      </trkpt>
      <trkpt lat="46.44249" lon="4.88474">
        <ele>182.8</ele>
        <time>2021-07-11T12:59:27Z</time>
      </trkpt>
      <trkpt lat="46.4421" lon="4.88455">
        <ele>182.8</ele>
        <time>2021-07-11T12:59:34Z</time>
      </trkpt>
      <trkpt lat="46.44157" lon="4.88429">
        <ele>183.4</ele>
        <time>2021-07-11T12:59:44Z</time>
      </trkpt>
      <trkpt lat="46.44119" lon="4.88411">
        <ele>183.4</ele>
        <time>2021-07-11T12:59:51Z</time>
      </trkpt>
      <trkpt lat="46.44076" lon="4.8839">
        <ele>183.2</ele>
        <time>2021-07-11T12:59:59Z</time>
      </trkpt>
      <trkpt lat="46.44032" lon="4.88367">
        <ele>183.2</ele>
        <time>2021-07-11T13:00:07Z</time>
      </trkpt>
      <trkpt lat="46.43978" lon="4.8834">
        <ele>183.2</ele>
        <time>2021-07-11T13:00:17Z</time>
      </trkpt>
      <trkpt lat="46.43973" lon="4.88338">
        <ele>183.2</ele>
        <time>2021-07-11T13:00:18Z</time>
      </trkpt>
      <trkpt lat="46.4392" lon="4.88315">
        <ele>183.4</ele>
        <time>2021-07-11T13:00:28Z</time>
      </trkpt>
      <trkpt lat="46.43902" lon="4.8832">
        <ele>183.4</ele>
        <time>2021-07-11T13:00:32Z</time>
      </trkpt>
      <trkpt lat="46.43897" lon="4.8834">
        <ele>183.4</ele>
        <time>2021-07-11T13:00:35Z</time>
      </trkpt>
      <trkpt lat="46.43897" lon="4.88347">
        <ele>183.4</ele>
        <time>2021-07-11T13:00:36Z</time>
      </trkpt>
      <trkpt lat="46.43891" lon="4.88402">
        <ele>182.6</ele>
        <time>2021-07-11T13:00:43Z</time>
      </trkpt>
      <trkpt lat="46.43879" lon="4.88477">
        <ele>182.2</ele>
        <time>2021-07-11T13:00:53Z</time>
      </trkpt>
      <trkpt lat="46.43868" lon="4.88491">
        <ele>182</ele>
        <time>2021-07-11T13:00:56Z</time>
      </trkpt>
      <trkpt lat="46.43849" lon="4.88487">
        <ele>182</ele>
        <time>2021-07-11T13:01:00Z</time>
      </trkpt>
      <trkpt lat="46.438" lon="4.88469">
        <ele>182.4</ele>
        <time>2021-07-11T13:01:09Z</time>
      </trkpt>
      <trkpt lat="46.43746" lon="4.8845">
        <ele>182.4</ele>
        <time>2021-07-11T13:01:18Z</time>
      </trkpt>
      <trkpt lat="46.43741" lon="4.88447">
        <ele>182.4</ele>
        <time>2021-07-11T13:01:19Z</time>
      </trkpt>
      <trkpt lat="46.43688" lon="4.88428">
        <ele>182.4</ele>
        <time>2021-07-11T13:01:28Z</time>
      </trkpt>
      <trkpt lat="46.43682" lon="4.88426">
        <ele>182.4</ele>
        <time>2021-07-11T13:01:29Z</time>
      </trkpt>
      <trkpt lat="46.4364" lon="4.88411">
        <ele>182.4</ele>
        <time>2021-07-11T13:01:36Z</time>
      </trkpt>
      <trkpt lat="46.43612" lon="4.88402">
        <ele>182.4</ele>
        <time>2021-07-11T13:01:41Z</time>
      </trkpt>
      <trkpt lat="46.43607" lon="4.88403">
        <ele>182.4</ele>
        <time>2021-07-11T13:01:42Z</time>
      </trkpt>
      <trkpt lat="46.43594" lon="4.88415">
        <ele>182.4</ele>
        <time>2021-07-11T13:01:45Z</time>
      </trkpt>
      <trkpt lat="46.43585" lon="4.88434">
        <ele>182.4</ele>
        <time>2021-07-11T13:01:48Z</time>
      </trkpt>
      <trkpt lat="46.4358" lon="4.88448">
        <ele>182.4</ele>
        <time>2021-07-11T13:01:50Z</time>
      </trkpt>
      <trkpt lat="46.43552" lon="4.88518">
        <ele>182.8</ele>
        <time>2021-07-11T13:02:00Z</time>
      </trkpt>
      <trkpt lat="46.43525" lon="4.88585">
        <ele>182.6</ele>
        <time>2021-07-11T13:02:09Z</time>
      </trkpt>
      <trkpt lat="46.43505" lon="4.88637">
        <ele>182.4</ele>
        <time>2021-07-11T13:02:16Z</time>
      </trkpt>
      <trkpt lat="46.43476" lon="4.88712">
        <ele>182.4</ele>
        <time>2021-07-11T13:02:26Z</time>
      </trkpt>
      <trkpt lat="46.43473" lon="4.88719">
        <ele>182.4</ele>
        <time>2021-07-11T13:02:27Z</time>
      </trkpt>
      <trkpt lat="46.43462" lon="4.88754">
        <ele>182.2</ele>
        <time>2021-07-11T13:02:33Z</time>
      </trkpt>
      <trkpt lat="46.43451" lon="4.88755">
        <ele>182.2</ele>
        <time>2021-07-11T13:02:36Z</time>
      </trkpt>
      <trkpt lat="46.43436" lon="4.88756">
        <ele>182.2</ele>
        <time>2021-07-11T13:02:40Z</time>
      </trkpt>
      <trkpt lat="46.43426" lon="4.88757">
        <ele>182</ele>
        <time>2021-07-11T13:02:44Z</time>
      </trkpt>
      <trkpt lat="46.43425" lon="4.88757">
        <ele>181.8</ele>
        <time>2021-07-11T13:02:46Z</time>
      </trkpt>
      <trkpt lat="46.43425" lon="4.88757">
        <ele>181.8</ele>
        <time>2021-07-11T13:02:47Z</time>
      </trkpt>
      <trkpt lat="46.43423" lon="4.88757">
        <ele>181.4</ele>
        <time>2021-07-11T13:02:59Z</time>
      </trkpt>
      <trkpt lat="46.43411" lon="4.88759">
        <ele>181.4</ele>
        <time>2021-07-11T13:03:05Z</time>
      </trkpt>
      <trkpt lat="46.43391" lon="4.88754">
        <ele>181.4</ele>
        <time>2021-07-11T13:03:11Z</time>
      </trkpt>
      <trkpt lat="46.43374" lon="4.88749">
        <ele>181.4</ele>
        <time>2021-07-11T13:03:15Z</time>
      </trkpt>
      <trkpt lat="46.43365" lon="4.88749">
        <ele>181.4</ele>
        <time>2021-07-11T13:03:17Z</time>
      </trkpt>
      <trkpt lat="46.4334" lon="4.88743">
        <ele>181.6</ele>
        <time>2021-07-11T13:03:24Z</time>
      </trkpt>
      <trkpt lat="46.43315" lon="4.88737">
        <ele>181.8</ele>
        <time>2021-07-11T13:03:30Z</time>
      </trkpt>
      <trkpt lat="46.43263" lon="4.88728">
        <ele>182</ele>
        <time>2021-07-11T13:03:41Z</time>
      </trkpt>
      <trkpt lat="46.43223" lon="4.88725">
        <ele>182.2</ele>
        <time>2021-07-11T13:03:49Z</time>
      </trkpt>
      <trkpt lat="46.43179" lon="4.88727">
        <ele>182.6</ele>
        <time>2021-07-11T13:03:58Z</time>
      </trkpt>
      <trkpt lat="46.43135" lon="4.88733">
        <ele>182.8</ele>
        <time>2021-07-11T13:04:07Z</time>
      </trkpt>
      <trkpt lat="46.43098" lon="4.88745">
        <ele>182.6</ele>
        <time>2021-07-11T13:04:14Z</time>
      </trkpt>
      <trkpt lat="46.43055" lon="4.88767">
        <ele>182.6</ele>
        <time>2021-07-11T13:04:22Z</time>
      </trkpt>
      <trkpt lat="46.43014" lon="4.88792">
        <ele>182.8</ele>
        <time>2021-07-11T13:04:30Z</time>
      </trkpt>
      <trkpt lat="46.42989" lon="4.88812">
        <ele>182.8</ele>
        <time>2021-07-11T13:04:35Z</time>
      </trkpt>
      <trkpt lat="46.42978" lon="4.88817">
        <ele>182.8</ele>
        <time>2021-07-11T13:04:37Z</time>
      </trkpt>
      <trkpt lat="46.42964" lon="4.88818">
        <ele>182.8</ele>
        <time>2021-07-11T13:04:40Z</time>
      </trkpt>
      <trkpt lat="46.42961" lon="4.88817">
        <ele>182.8</ele>
        <time>2021-07-11T13:04:41Z</time>
      </trkpt>
      <trkpt lat="46.42954" lon="4.88812">
        <ele>183</ele>
        <time>2021-07-11T13:04:44Z</time>
      </trkpt>
      <trkpt lat="46.42946" lon="4.88817">
        <ele>182.8</ele>
        <time>2021-07-11T13:04:47Z</time>
      </trkpt>
      <trkpt lat="46.42916" lon="4.88829">
        <ele>182.4</ele>
        <time>2021-07-11T13:04:54Z</time>
      </trkpt>
      <trkpt lat="46.42888" lon="4.8884">
        <ele>182</ele>
        <time>2021-07-11T13:05:01Z</time>
      </trkpt>
      <trkpt lat="46.42884" lon="4.88842">
        <ele>182</ele>
        <time>2021-07-11T13:05:02Z</time>
      </trkpt>
      <trkpt lat="46.42864" lon="4.88847">
        <ele>181.8</ele>
        <time>2021-07-11T13:05:06Z</time>
      </trkpt>
      <trkpt lat="46.42825" lon="4.88847">
        <ele>181.8</ele>
        <time>2021-07-11T13:05:13Z</time>
      </trkpt>
      <trkpt lat="46.42767" lon="4.88843">
        <ele>181.8</ele>
        <time>2021-07-11T13:05:23Z</time>
      </trkpt>
      <trkpt lat="46.42715" lon="4.88839">
        <ele>181.8</ele>
        <time>2021-07-11T13:05:32Z</time>
      </trkpt>
      <trkpt lat="46.42669" lon="4.88836">
        <ele>181.8</ele>
        <time>2021-07-11T13:05:40Z</time>
      </trkpt>
      <trkpt lat="46.42617" lon="4.88832">
        <ele>181.8</ele>
        <time>2021-07-11T13:05:49Z</time>
      </trkpt>
      <trkpt lat="46.42605" lon="4.88831">
        <ele>181.8</ele>
        <time>2021-07-11T13:05:51Z</time>
      </trkpt>
      <trkpt lat="46.42559" lon="4.88829">
        <ele>182</ele>
        <time>2021-07-11T13:05:59Z</time>
      </trkpt>
      <trkpt lat="46.42507" lon="4.88826">
        <ele>182.2</ele>
        <time>2021-07-11T13:06:08Z</time>
      </trkpt>
      <trkpt lat="46.42457" lon="4.88822">
        <ele>182.2</ele>
        <time>2021-07-11T13:06:17Z</time>
      </trkpt>
      <trkpt lat="46.42419" lon="4.88815">
        <ele>182.4</ele>
        <time>2021-07-11T13:06:24Z</time>
      </trkpt>
      <trkpt lat="46.42381" lon="4.88805">
        <ele>182.4</ele>
        <time>2021-07-11T13:06:31Z</time>
      </trkpt>
      <trkpt lat="46.42326" lon="4.88796">
        <ele>182.4</ele>
        <time>2021-07-11T13:06:41Z</time>
      </trkpt>
      <trkpt lat="46.42293" lon="4.88788">
        <ele>182.4</ele>
        <time>2021-07-11T13:06:47Z</time>
      </trkpt>
      <trkpt lat="46.42243" lon="4.88778">
        <ele>182.4</ele>
        <time>2021-07-11T13:06:56Z</time>
      </trkpt>
      <trkpt lat="46.42237" lon="4.88777">
        <ele>182.4</ele>
        <time>2021-07-11T13:06:57Z</time>
      </trkpt>
      <trkpt lat="46.42197" lon="4.8877">
        <ele>182.4</ele>
        <time>2021-07-11T13:07:04Z</time>
      </trkpt>
      <trkpt lat="46.42152" lon="4.88762">
        <ele>182.2</ele>
        <time>2021-07-11T13:07:12Z</time>
      </trkpt>
      <trkpt lat="46.42103" lon="4.88751">
        <ele>182</ele>
        <time>2021-07-11T13:07:21Z</time>
      </trkpt>
      <trkpt lat="46.42059" lon="4.8874">
        <ele>182</ele>
        <time>2021-07-11T13:07:29Z</time>
      </trkpt>
      <trkpt lat="46.42017" lon="4.88731">
        <ele>182</ele>
        <time>2021-07-11T13:07:37Z</time>
      </trkpt>
      <trkpt lat="46.41966" lon="4.88723">
        <ele>182.4</ele>
        <time>2021-07-11T13:07:46Z</time>
      </trkpt>
      <trkpt lat="46.41921" lon="4.88715">
        <ele>182.4</ele>
        <time>2021-07-11T13:07:54Z</time>
      </trkpt>
      <trkpt lat="46.41872" lon="4.88706">
        <ele>182.6</ele>
        <time>2021-07-11T13:08:03Z</time>
      </trkpt>
      <trkpt lat="46.41844" lon="4.88705">
        <ele>182.4</ele>
        <time>2021-07-11T13:08:08Z</time>
      </trkpt>
      <trkpt lat="46.41822" lon="4.88703">
        <ele>182.4</ele>
        <time>2021-07-11T13:08:12Z</time>
      </trkpt>
      <trkpt lat="46.41788" lon="4.88695">
        <ele>182.2</ele>
        <time>2021-07-11T13:08:19Z</time>
      </trkpt>
      <trkpt lat="46.41761" lon="4.88679">
        <ele>182.2</ele>
        <time>2021-07-11T13:08:25Z</time>
      </trkpt>
      <trkpt lat="46.41747" lon="4.8867">
        <ele>182</ele>
        <time>2021-07-11T13:08:28Z</time>
      </trkpt>
      <trkpt lat="46.41736" lon="4.88669">
        <ele>182</ele>
        <time>2021-07-11T13:08:30Z</time>
      </trkpt>
      <trkpt lat="46.41695" lon="4.88668">
        <ele>182</ele>
        <time>2021-07-11T13:08:38Z</time>
      </trkpt>
      <trkpt lat="46.41638" lon="4.88654">
        <ele>181.8</ele>
        <time>2021-07-11T13:08:49Z</time>
      </trkpt>
      <trkpt lat="46.41593" lon="4.88636">
        <ele>181.8</ele>
        <time>2021-07-11T13:08:58Z</time>
      </trkpt>
      <trkpt lat="46.41556" lon="4.88623">
        <ele>181.8</ele>
        <time>2021-07-11T13:09:05Z</time>
      </trkpt>
      <trkpt lat="46.41502" lon="4.88607">
        <ele>182</ele>
        <time>2021-07-11T13:09:15Z</time>
      </trkpt>
      <trkpt lat="46.41453" lon="4.88594">
        <ele>182</ele>
        <time>2021-07-11T13:09:24Z</time>
      </trkpt>
      <trkpt lat="46.41397" lon="4.88584">
        <ele>181.8</ele>
        <time>2021-07-11T13:09:34Z</time>
      </trkpt>
      <trkpt lat="46.41345" lon="4.8858">
        <ele>181.8</ele>
        <time>2021-07-11T13:09:43Z</time>
      </trkpt>
      <trkpt lat="46.41286" lon="4.88575">
        <ele>181.8</ele>
        <time>2021-07-11T13:09:53Z</time>
      </trkpt>
      <trkpt lat="46.4128" lon="4.88574">
        <ele>181.8</ele>
        <time>2021-07-11T13:09:54Z</time>
      </trkpt>
      <trkpt lat="46.41228" lon="4.8857">
        <ele>181.6</ele>
        <time>2021-07-11T13:10:03Z</time>
      </trkpt>
      <trkpt lat="46.41172" lon="4.88568">
        <ele>181.4</ele>
        <time>2021-07-11T13:10:13Z</time>
      </trkpt>
      <trkpt lat="46.41123" lon="4.88574">
        <ele>181.6</ele>
        <time>2021-07-11T13:10:22Z</time>
      </trkpt>
      <trkpt lat="46.41069" lon="4.88581">
        <ele>182</ele>
        <time>2021-07-11T13:10:32Z</time>
      </trkpt>
      <trkpt lat="46.41034" lon="4.88584">
        <ele>182</ele>
        <time>2021-07-11T13:10:39Z</time>
      </trkpt>
      <trkpt lat="46.41017" lon="4.88575">
        <ele>182</ele>
        <time>2021-07-11T13:10:43Z</time>
      </trkpt>
      <trkpt lat="46.41014" lon="4.88572">
        <ele>182</ele>
        <time>2021-07-11T13:10:44Z</time>
      </trkpt>
      <trkpt lat="46.40999" lon="4.88561">
        <ele>182</ele>
        <time>2021-07-11T13:10:48Z</time>
      </trkpt>
      <trkpt lat="46.40995" lon="4.8856">
        <ele>182</ele>
        <time>2021-07-11T13:10:49Z</time>
      </trkpt>
      <trkpt lat="46.40982" lon="4.88567">
        <ele>182</ele>
        <time>2021-07-11T13:10:53Z</time>
      </trkpt>
      <trkpt lat="46.40967" lon="4.8858">
        <ele>181.8</ele>
        <time>2021-07-11T13:10:57Z</time>
      </trkpt>
      <trkpt lat="46.40963" lon="4.88584">
        <ele>181.8</ele>
        <time>2021-07-11T13:10:58Z</time>
      </trkpt>
      <trkpt lat="46.40947" lon="4.88604">
        <ele>182</ele>
        <time>2021-07-11T13:11:02Z</time>
      </trkpt>
      <trkpt lat="46.40915" lon="4.88642">
        <ele>182.2</ele>
        <time>2021-07-11T13:11:10Z</time>
      </trkpt>
      <trkpt lat="46.40891" lon="4.88657">
        <ele>182.2</ele>
        <time>2021-07-11T13:11:15Z</time>
      </trkpt>
      <trkpt lat="46.40841" lon="4.88675">
        <ele>181.6</ele>
        <time>2021-07-11T13:11:25Z</time>
      </trkpt>
      <trkpt lat="46.40794" lon="4.88684">
        <ele>181.8</ele>
        <time>2021-07-11T13:11:34Z</time>
      </trkpt>
      <trkpt lat="46.40762" lon="4.8869">
        <ele>182.2</ele>
        <time>2021-07-11T13:11:40Z</time>
      </trkpt>
      <trkpt lat="46.4074" lon="4.88695">
        <ele>182.2</ele>
        <time>2021-07-11T13:11:44Z</time>
      </trkpt>
      <trkpt lat="46.40689" lon="4.88711">
        <ele>182.2</ele>
        <time>2021-07-11T13:11:54Z</time>
      </trkpt>
      <trkpt lat="46.40636" lon="4.8873">
        <ele>182.4</ele>
        <time>2021-07-11T13:12:04Z</time>
      </trkpt>
      <trkpt lat="46.40589" lon="4.88733">
        <ele>182.4</ele>
        <time>2021-07-11T13:12:13Z</time>
      </trkpt>
      <trkpt lat="46.40531" lon="4.88725">
        <ele>182.6</ele>
        <time>2021-07-11T13:12:24Z</time>
      </trkpt>
      <trkpt lat="46.40487" lon="4.88715">
        <ele>182.6</ele>
        <time>2021-07-11T13:12:32Z</time>
      </trkpt>
      <trkpt lat="46.4044" lon="4.8869">
        <ele>182.6</ele>
        <time>2021-07-11T13:12:41Z</time>
      </trkpt>
      <trkpt lat="46.40393" lon="4.88651">
        <ele>182.4</ele>
        <time>2021-07-11T13:12:51Z</time>
      </trkpt>
      <trkpt lat="46.40389" lon="4.88646">
        <ele>182.4</ele>
        <time>2021-07-11T13:12:52Z</time>
      </trkpt>
      <trkpt lat="46.40343" lon="4.88606">
        <ele>182.4</ele>
        <time>2021-07-11T13:13:02Z</time>
      </trkpt>
      <trkpt lat="46.40302" lon="4.88575">
        <ele>182.6</ele>
        <time>2021-07-11T13:13:11Z</time>
      </trkpt>
      <trkpt lat="46.40254" lon="4.88541">
        <ele>182.8</ele>
        <time>2021-07-11T13:13:21Z</time>
      </trkpt>
      <trkpt lat="46.4024" lon="4.88531">
        <ele>182.8</ele>
        <time>2021-07-11T13:13:24Z</time>
      </trkpt>
      <trkpt lat="46.4019" lon="4.8849">
        <ele>183</ele>
        <time>2021-07-11T13:13:35Z</time>
      </trkpt>
      <trkpt lat="46.4015" lon="4.88448">
        <ele>183.2</ele>
        <time>2021-07-11T13:13:44Z</time>
      </trkpt>
      <trkpt lat="46.4011" lon="4.8842">
        <ele>183.2</ele>
        <time>2021-07-11T13:13:52Z</time>
      </trkpt>
      <trkpt lat="46.40084" lon="4.88404">
        <ele>183</ele>
        <time>2021-07-11T13:13:57Z</time>
      </trkpt>
      <trkpt lat="46.40058" lon="4.88387">
        <ele>183</ele>
        <time>2021-07-11T13:14:02Z</time>
      </trkpt>
      <trkpt lat="46.40014" lon="4.88348">
        <ele>183</ele>
        <time>2021-07-11T13:14:11Z</time>
      </trkpt>
      <trkpt lat="46.39965" lon="4.88302">
        <ele>182.8</ele>
        <time>2021-07-11T13:14:21Z</time>
      </trkpt>
      <trkpt lat="46.3993" lon="4.88267">
        <ele>183.2</ele>
        <time>2021-07-11T13:14:29Z</time>
      </trkpt>
      <trkpt lat="46.39897" lon="4.88237">
        <ele>183.4</ele>
        <time>2021-07-11T13:14:36Z</time>
      </trkpt>
      <trkpt lat="46.39856" lon="4.88202">
        <ele>183.4</ele>
        <time>2021-07-11T13:14:44Z</time>
      </trkpt>
      <trkpt lat="46.39816" lon="4.8817">
        <ele>183.4</ele>
        <time>2021-07-11T13:14:52Z</time>
      </trkpt>
      <trkpt lat="46.39785" lon="4.88147">
        <ele>183.4</ele>
        <time>2021-07-11T13:14:59Z</time>
      </trkpt>
      <trkpt lat="46.39745" lon="4.88122">
        <ele>183.6</ele>
        <time>2021-07-11T13:15:07Z</time>
      </trkpt>
      <trkpt lat="46.39692" lon="4.8809">
        <ele>183.6</ele>
        <time>2021-07-11T13:15:17Z</time>
      </trkpt>
      <trkpt lat="46.39639" lon="4.88057">
        <ele>183.6</ele>
        <time>2021-07-11T13:15:27Z</time>
      </trkpt>
      <trkpt lat="46.39617" lon="4.88044">
        <ele>183.8</ele>
        <time>2021-07-11T13:15:31Z</time>
      </trkpt>
      <trkpt lat="46.39568" lon="4.88019">
        <ele>183.6</ele>
        <time>2021-07-11T13:15:40Z</time>
      </trkpt>
      <trkpt lat="46.39518" lon="4.87995">
        <ele>183.6</ele>
        <time>2021-07-11T13:15:49Z</time>
      </trkpt>
      <trkpt lat="46.39467" lon="4.87967">
        <ele>183.6</ele>
        <time>2021-07-11T13:15:58Z</time>
      </trkpt>
      <trkpt lat="46.39461" lon="4.87964">
        <ele>183.6</ele>
        <time>2021-07-11T13:15:59Z</time>
      </trkpt>
      <trkpt lat="46.39411" lon="4.87932">
        <ele>183.6</ele>
        <time>2021-07-11T13:16:08Z</time>
      </trkpt>
      <trkpt lat="46.39401" lon="4.87924">
        <ele>183.4</ele>
        <time>2021-07-11T13:16:10Z</time>
      </trkpt>
      <trkpt lat="46.39354" lon="4.87885">
        <ele>183.4</ele>
        <time>2021-07-11T13:16:19Z</time>
      </trkpt>
      <trkpt lat="46.39304" lon="4.8784">
        <ele>183.6</ele>
        <time>2021-07-11T13:16:29Z</time>
      </trkpt>
      <trkpt lat="46.39267" lon="4.87802">
        <ele>183.6</ele>
        <time>2021-07-11T13:16:37Z</time>
      </trkpt>
      <trkpt lat="46.39224" lon="4.87766">
        <ele>183.4</ele>
        <time>2021-07-11T13:16:46Z</time>
      </trkpt>
      <trkpt lat="46.3921" lon="4.87756">
        <ele>183.2</ele>
        <time>2021-07-11T13:16:49Z</time>
      </trkpt>
      <trkpt lat="46.39201" lon="4.87747">
        <ele>183.2</ele>
        <time>2021-07-11T13:16:51Z</time>
      </trkpt>
      <trkpt lat="46.39179" lon="4.87715">
        <ele>183.2</ele>
        <time>2021-07-11T13:16:57Z</time>
      </trkpt>
      <trkpt lat="46.3916" lon="4.87686">
        <ele>183</ele>
        <time>2021-07-11T13:17:03Z</time>
      </trkpt>
      <trkpt lat="46.39157" lon="4.87681">
        <ele>183</ele>
        <time>2021-07-11T13:17:04Z</time>
      </trkpt>
      <trkpt lat="46.3915" lon="4.87674">
        <ele>183</ele>
        <time>2021-07-11T13:17:06Z</time>
      </trkpt>
      <trkpt lat="46.39138" lon="4.87664">
        <ele>183</ele>
        <time>2021-07-11T13:17:09Z</time>
      </trkpt>
      <trkpt lat="46.39131" lon="4.87658">
        <ele>183</ele>
        <time>2021-07-11T13:17:11Z</time>
      </trkpt>
      <trkpt lat="46.39117" lon="4.87647">
        <ele>183</ele>
        <time>2021-07-11T13:17:15Z</time>
      </trkpt>
      <trkpt lat="46.39094" lon="4.8762">
        <ele>182.8</ele>
        <time>2021-07-11T13:17:22Z</time>
      </trkpt>
      <trkpt lat="46.39064" lon="4.87589">
        <ele>182.8</ele>
        <time>2021-07-11T13:17:30Z</time>
      </trkpt>
      <trkpt lat="46.39039" lon="4.87566">
        <ele>183</ele>
        <time>2021-07-11T13:17:37Z</time>
      </trkpt>
      <trkpt lat="46.39005" lon="4.87535">
        <ele>183.2</ele>
        <time>2021-07-11T13:17:45Z</time>
      </trkpt>
      <trkpt lat="46.38965" lon="4.87504">
        <ele>183.6</ele>
        <time>2021-07-11T13:17:53Z</time>
      </trkpt>
      <trkpt lat="46.38913" lon="4.87461">
        <ele>184</ele>
        <time>2021-07-11T13:18:03Z</time>
      </trkpt>
      <trkpt lat="46.38909" lon="4.87457">
        <ele>184</ele>
        <time>2021-07-11T13:18:04Z</time>
      </trkpt>
      <trkpt lat="46.38863" lon="4.87413">
        <ele>184.4</ele>
        <time>2021-07-11T13:18:14Z</time>
      </trkpt>
      <trkpt lat="46.38858" lon="4.87409">
        <ele>184.6</ele>
        <time>2021-07-11T13:18:15Z</time>
      </trkpt>
      <trkpt lat="46.38815" lon="4.87384">
        <ele>184.8</ele>
        <time>2021-07-11T13:18:23Z</time>
      </trkpt>
      <trkpt lat="46.38778" lon="4.87356">
        <ele>185</ele>
        <time>2021-07-11T13:18:30Z</time>
      </trkpt>
      <trkpt lat="46.38751" lon="4.87335">
        <ele>184.8</ele>
        <time>2021-07-11T13:18:35Z</time>
      </trkpt>
      <trkpt lat="46.38745" lon="4.87333">
        <ele>184.8</ele>
        <time>2021-07-11T13:18:36Z</time>
      </trkpt>
      <trkpt lat="46.3872" lon="4.87323">
        <ele>184.4</ele>
        <time>2021-07-11T13:18:41Z</time>
      </trkpt>
      <trkpt lat="46.38678" lon="4.87302">
        <ele>184.6</ele>
        <time>2021-07-11T13:18:49Z</time>
      </trkpt>
      <trkpt lat="46.38629" lon="4.8728">
        <ele>184.2</ele>
        <time>2021-07-11T13:18:57Z</time>
      </trkpt>
      <trkpt lat="46.38606" lon="4.8727">
        <ele>183.6</ele>
        <time>2021-07-11T13:19:01Z</time>
      </trkpt>
      <trkpt lat="46.3859" lon="4.87261">
        <ele>183.4</ele>
        <time>2021-07-11T13:19:04Z</time>
      </trkpt>
      <trkpt lat="46.38585" lon="4.87257">
        <ele>183.4</ele>
        <time>2021-07-11T13:19:05Z</time>
      </trkpt>
      <trkpt lat="46.38546" lon="4.87224">
        <ele>183.4</ele>
        <time>2021-07-11T13:19:13Z</time>
      </trkpt>
      <trkpt lat="46.38514" lon="4.87207">
        <ele>183.8</ele>
        <time>2021-07-11T13:19:19Z</time>
      </trkpt>
      <trkpt lat="46.38474" lon="4.87184">
        <ele>183.8</ele>
        <time>2021-07-11T13:19:26Z</time>
      </trkpt>
      <trkpt lat="46.38424" lon="4.87154">
        <ele>183.4</ele>
        <time>2021-07-11T13:19:35Z</time>
      </trkpt>
      <trkpt lat="46.38373" lon="4.87116">
        <ele>183.6</ele>
        <time>2021-07-11T13:19:45Z</time>
      </trkpt>
      <trkpt lat="46.38368" lon="4.87113">
        <ele>183.6</ele>
        <time>2021-07-11T13:19:46Z</time>
      </trkpt>
      <trkpt lat="46.38335" lon="4.87088">
        <ele>183.8</ele>
        <time>2021-07-11T13:19:53Z</time>
      </trkpt>
      <trkpt lat="46.38315" lon="4.87066">
        <ele>184</ele>
        <time>2021-07-11T13:19:58Z</time>
      </trkpt>
      <trkpt lat="46.3831" lon="4.87062">
        <ele>184.2</ele>
        <time>2021-07-11T13:19:59Z</time>
      </trkpt>
      <trkpt lat="46.38268" lon="4.8703">
        <ele>184.2</ele>
        <time>2021-07-11T13:20:07Z</time>
      </trkpt>
      <trkpt lat="46.38232" lon="4.86998">
        <ele>184</ele>
        <time>2021-07-11T13:20:14Z</time>
      </trkpt>
      <trkpt lat="46.38194" lon="4.86953">
        <ele>184.2</ele>
        <time>2021-07-11T13:20:23Z</time>
      </trkpt>
      <trkpt lat="46.38163" lon="4.86918">
        <ele>184.6</ele>
        <time>2021-07-11T13:20:30Z</time>
      </trkpt>
      <trkpt lat="46.3815" lon="4.86903">
        <ele>184.6</ele>
        <time>2021-07-11T13:20:33Z</time>
      </trkpt>
      <trkpt lat="46.38113" lon="4.86863">
        <ele>184.6</ele>
        <time>2021-07-11T13:20:41Z</time>
      </trkpt>
      <trkpt lat="46.38076" lon="4.86825">
        <ele>184.8</ele>
        <time>2021-07-11T13:20:49Z</time>
      </trkpt>
      <trkpt lat="46.38029" lon="4.86783">
        <ele>184.4</ele>
        <time>2021-07-11T13:20:58Z</time>
      </trkpt>
      <trkpt lat="46.37981" lon="4.86742">
        <ele>183.8</ele>
        <time>2021-07-11T13:21:07Z</time>
      </trkpt>
      <trkpt lat="46.37977" lon="4.86737">
        <ele>183.8</ele>
        <time>2021-07-11T13:21:08Z</time>
      </trkpt>
      <trkpt lat="46.37932" lon="4.86692">
        <ele>183.6</ele>
        <time>2021-07-11T13:21:17Z</time>
      </trkpt>
      <trkpt lat="46.37923" lon="4.86682">
        <ele>183.6</ele>
        <time>2021-07-11T13:21:19Z</time>
      </trkpt>
      <trkpt lat="46.37878" lon="4.86637">
        <ele>183.6</ele>
        <time>2021-07-11T13:21:28Z</time>
      </trkpt>
      <trkpt lat="46.37836" lon="4.86607">
        <ele>183.6</ele>
        <time>2021-07-11T13:21:36Z</time>
      </trkpt>
      <trkpt lat="46.37802" lon="4.86576">
        <ele>183.6</ele>
        <time>2021-07-11T13:21:43Z</time>
      </trkpt>
      <trkpt lat="46.37771" lon="4.86549">
        <ele>183.8</ele>
        <time>2021-07-11T13:21:49Z</time>
      </trkpt>
      <trkpt lat="46.37722" lon="4.86515">
        <ele>183.6</ele>
        <time>2021-07-11T13:21:58Z</time>
      </trkpt>
      <trkpt lat="46.37701" lon="4.86499">
        <ele>183.6</ele>
        <time>2021-07-11T13:22:02Z</time>
      </trkpt>
      <trkpt lat="46.3766" lon="4.86467">
        <ele>183.8</ele>
        <time>2021-07-11T13:22:10Z</time>
      </trkpt>
      <trkpt lat="46.37628" lon="4.86436">
        <ele>183.8</ele>
        <time>2021-07-11T13:22:17Z</time>
      </trkpt>
      <trkpt lat="46.37604" lon="4.86407">
        <ele>184.2</ele>
        <time>2021-07-11T13:22:23Z</time>
      </trkpt>
      <trkpt lat="46.37563" lon="4.86369">
        <ele>184.4</ele>
        <time>2021-07-11T13:22:32Z</time>
      </trkpt>
      <trkpt lat="46.37531" lon="4.8634">
        <ele>184.4</ele>
        <time>2021-07-11T13:22:39Z</time>
      </trkpt>
      <trkpt lat="46.37505" lon="4.86321">
        <ele>184.4</ele>
        <time>2021-07-11T13:22:45Z</time>
      </trkpt>
      <trkpt lat="46.3748" lon="4.86296">
        <ele>184.2</ele>
        <time>2021-07-11T13:22:51Z</time>
      </trkpt>
      <trkpt lat="46.37458" lon="4.86278">
        <ele>184.2</ele>
        <time>2021-07-11T13:22:57Z</time>
      </trkpt>
      <trkpt lat="46.37454" lon="4.86274">
        <ele>184.2</ele>
        <time>2021-07-11T13:22:58Z</time>
      </trkpt>
      <trkpt lat="46.37434" lon="4.86257">
        <ele>184.8</ele>
        <time>2021-07-11T13:23:03Z</time>
      </trkpt>
      <trkpt lat="46.3742" lon="4.86247">
        <ele>184.8</ele>
        <time>2021-07-11T13:23:06Z</time>
      </trkpt>
      <trkpt lat="46.3741" lon="4.86236">
        <ele>185</ele>
        <time>2021-07-11T13:23:09Z</time>
      </trkpt>
      <trkpt lat="46.37385" lon="4.86214">
        <ele>185</ele>
        <time>2021-07-11T13:23:15Z</time>
      </trkpt>
      <trkpt lat="46.37354" lon="4.86185">
        <ele>185</ele>
        <time>2021-07-11T13:23:22Z</time>
      </trkpt>
      <trkpt lat="46.37319" lon="4.86146">
        <ele>184.8</ele>
        <time>2021-07-11T13:23:31Z</time>
      </trkpt>
      <trkpt lat="46.37309" lon="4.86135">
        <ele>184.8</ele>
        <time>2021-07-11T13:23:34Z</time>
      </trkpt>
      <trkpt lat="46.37298" lon="4.86123">
        <ele>184.8</ele>
        <time>2021-07-11T13:23:37Z</time>
      </trkpt>
      <trkpt lat="46.37269" lon="4.86098">
        <ele>184.8</ele>
        <time>2021-07-11T13:23:43Z</time>
      </trkpt>
      <trkpt lat="46.37236" lon="4.86071">
        <ele>184.4</ele>
        <time>2021-07-11T13:23:50Z</time>
      </trkpt>
      <trkpt lat="46.37195" lon="4.86033">
        <ele>184.8</ele>
        <time>2021-07-11T13:23:59Z</time>
      </trkpt>
      <trkpt lat="46.37158" lon="4.85997">
        <ele>185</ele>
        <time>2021-07-11T13:24:07Z</time>
      </trkpt>
      <trkpt lat="46.37111" lon="4.85953">
        <ele>185</ele>
        <time>2021-07-11T13:24:17Z</time>
      </trkpt>
      <trkpt lat="46.37061" lon="4.8591">
        <ele>184.8</ele>
        <time>2021-07-11T13:24:27Z</time>
      </trkpt>
      <trkpt lat="46.37024" lon="4.8588">
        <ele>184.8</ele>
        <time>2021-07-11T13:24:35Z</time>
      </trkpt>
      <trkpt lat="46.36993" lon="4.85856">
        <ele>184.8</ele>
        <time>2021-07-11T13:24:41Z</time>
      </trkpt>
      <trkpt lat="46.36988" lon="4.85852">
        <ele>184.8</ele>
        <time>2021-07-11T13:24:42Z</time>
      </trkpt>
      <trkpt lat="46.36964" lon="4.85835">
        <ele>184.8</ele>
        <time>2021-07-11T13:24:47Z</time>
      </trkpt>
      <trkpt lat="46.36928" lon="4.85805">
        <ele>185</ele>
        <time>2021-07-11T13:24:55Z</time>
      </trkpt>
      <trkpt lat="46.3689" lon="4.85778">
        <ele>185.4</ele>
        <time>2021-07-11T13:25:03Z</time>
      </trkpt>
      <trkpt lat="46.36851" lon="4.85749">
        <ele>185.4</ele>
        <time>2021-07-11T13:25:11Z</time>
      </trkpt>
      <trkpt lat="46.36816" lon="4.85725">
        <ele>185.4</ele>
        <time>2021-07-11T13:25:18Z</time>
      </trkpt>
      <trkpt lat="46.36771" lon="4.85694">
        <ele>185.2</ele>
        <time>2021-07-11T13:25:27Z</time>
      </trkpt>
      <trkpt lat="46.36732" lon="4.85666">
        <ele>185.4</ele>
        <time>2021-07-11T13:25:35Z</time>
      </trkpt>
      <trkpt lat="46.36693" lon="4.85638">
        <ele>185.4</ele>
        <time>2021-07-11T13:25:43Z</time>
      </trkpt>
      <trkpt lat="46.36658" lon="4.8561">
        <ele>185.2</ele>
        <time>2021-07-11T13:25:50Z</time>
      </trkpt>
      <trkpt lat="46.36613" lon="4.85575">
        <ele>185</ele>
        <time>2021-07-11T13:25:59Z</time>
      </trkpt>
      <trkpt lat="46.36608" lon="4.85571">
        <ele>185</ele>
        <time>2021-07-11T13:26:00Z</time>
      </trkpt>
      <trkpt lat="46.36589" lon="4.85556">
        <ele>185</ele>
        <time>2021-07-11T13:26:04Z</time>
      </trkpt>
      <trkpt lat="46.36551" lon="4.85526">
        <ele>185</ele>
        <time>2021-07-11T13:26:12Z</time>
      </trkpt>
      <trkpt lat="46.36517" lon="4.85498">
        <ele>185.2</ele>
        <time>2021-07-11T13:26:19Z</time>
      </trkpt>
      <trkpt lat="46.36474" lon="4.85463">
        <ele>185.8</ele>
        <time>2021-07-11T13:26:28Z</time>
      </trkpt>
      <trkpt lat="46.36465" lon="4.85456">
        <ele>186.2</ele>
        <time>2021-07-11T13:26:30Z</time>
      </trkpt>
      <trkpt lat="46.36433" lon="4.85434">
        <ele>187</ele>
        <time>2021-07-11T13:26:36Z</time>
      </trkpt>
      <trkpt lat="46.3638" lon="4.854">
        <ele>187</ele>
        <time>2021-07-11T13:26:46Z</time>
      </trkpt>
      <trkpt lat="46.3634" lon="4.85377">
        <ele>186.8</ele>
        <time>2021-07-11T13:26:53Z</time>
      </trkpt>
      <trkpt lat="46.36304" lon="4.85358">
        <ele>186.6</ele>
        <time>2021-07-11T13:26:59Z</time>
      </trkpt>
      <trkpt lat="46.3625" lon="4.85336">
        <ele>185.8</ele>
        <time>2021-07-11T13:27:08Z</time>
      </trkpt>
      <trkpt lat="46.36201" lon="4.8532">
        <ele>185.8</ele>
        <time>2021-07-11T13:27:17Z</time>
      </trkpt>
      <trkpt lat="46.36188" lon="4.85316">
        <ele>185.8</ele>
        <time>2021-07-11T13:27:20Z</time>
      </trkpt>
      <trkpt lat="46.36178" lon="4.85315">
        <ele>185.8</ele>
        <time>2021-07-11T13:27:22Z</time>
      </trkpt>
      <trkpt lat="46.36167" lon="4.85312">
        <ele>185.8</ele>
        <time>2021-07-11T13:27:24Z</time>
      </trkpt>
      <trkpt lat="46.36149" lon="4.85305">
        <ele>185.8</ele>
        <time>2021-07-11T13:27:27Z</time>
      </trkpt>
      <trkpt lat="46.36113" lon="4.85292">
        <ele>185</ele>
        <time>2021-07-11T13:27:33Z</time>
      </trkpt>
      <trkpt lat="46.36095" lon="4.85286">
        <ele>184.8</ele>
        <time>2021-07-11T13:27:36Z</time>
      </trkpt>
      <trkpt lat="46.3607" lon="4.85279">
        <ele>184.4</ele>
        <time>2021-07-11T13:27:40Z</time>
      </trkpt>
      <trkpt lat="46.36052" lon="4.85278">
        <ele>184.2</ele>
        <time>2021-07-11T13:27:43Z</time>
      </trkpt>
      <trkpt lat="46.36046" lon="4.85276">
        <ele>184.2</ele>
        <time>2021-07-11T13:27:44Z</time>
      </trkpt>
      <trkpt lat="46.36021" lon="4.85267">
        <ele>184.2</ele>
        <time>2021-07-11T13:27:48Z</time>
      </trkpt>
      <trkpt lat="46.36009" lon="4.85262">
        <ele>184</ele>
        <time>2021-07-11T13:27:50Z</time>
      </trkpt>
      <trkpt lat="46.3597" lon="4.8524">
        <ele>183.8</ele>
        <time>2021-07-11T13:27:57Z</time>
      </trkpt>
      <trkpt lat="46.35945" lon="4.85221">
        <ele>183.8</ele>
        <time>2021-07-11T13:28:02Z</time>
      </trkpt>
      <trkpt lat="46.35936" lon="4.85212">
        <ele>183.8</ele>
        <time>2021-07-11T13:28:04Z</time>
      </trkpt>
      <trkpt lat="46.35906" lon="4.8519">
        <ele>184</ele>
        <time>2021-07-11T13:28:10Z</time>
      </trkpt>
      <trkpt lat="46.35864" lon="4.85163">
        <ele>184.2</ele>
        <time>2021-07-11T13:28:18Z</time>
      </trkpt>
      <trkpt lat="46.3581" lon="4.85128">
        <ele>184.4</ele>
        <time>2021-07-11T13:28:28Z</time>
      </trkpt>
      <trkpt lat="46.35775" lon="4.85107">
        <ele>184.4</ele>
        <time>2021-07-11T13:28:35Z</time>
      </trkpt>
      <trkpt lat="46.35743" lon="4.8509">
        <ele>184.2</ele>
        <time>2021-07-11T13:28:42Z</time>
      </trkpt>
      <trkpt lat="46.35701" lon="4.85065">
        <ele>184.2</ele>
        <time>2021-07-11T13:28:51Z</time>
      </trkpt>
      <trkpt lat="46.35659" lon="4.85041">
        <ele>184.2</ele>
        <time>2021-07-11T13:29:00Z</time>
      </trkpt>
      <trkpt lat="46.35621" lon="4.85025">
        <ele>184.2</ele>
        <time>2021-07-11T13:29:08Z</time>
      </trkpt>
      <trkpt lat="46.35583" lon="4.85008">
        <ele>184.2</ele>
        <time>2021-07-11T13:29:16Z</time>
      </trkpt>
      <trkpt lat="46.35547" lon="4.84998">
        <ele>184.2</ele>
        <time>2021-07-11T13:29:23Z</time>
      </trkpt>
      <trkpt lat="46.35511" lon="4.84989">
        <ele>184.2</ele>
        <time>2021-07-11T13:29:30Z</time>
      </trkpt>
      <trkpt lat="46.35481" lon="4.84986">
        <ele>184.2</ele>
        <time>2021-07-11T13:29:36Z</time>
      </trkpt>
      <trkpt lat="46.35434" lon="4.8498">
        <ele>184</ele>
        <time>2021-07-11T13:29:45Z</time>
      </trkpt>
      <trkpt lat="46.35384" lon="4.84968">
        <ele>183.8</ele>
        <time>2021-07-11T13:29:55Z</time>
      </trkpt>
      <trkpt lat="46.35348" lon="4.84965">
        <ele>184</ele>
        <time>2021-07-11T13:30:02Z</time>
      </trkpt>
      <trkpt lat="46.35311" lon="4.8497">
        <ele>183.8</ele>
        <time>2021-07-11T13:30:09Z</time>
      </trkpt>
      <trkpt lat="46.3527" lon="4.84971">
        <ele>184</ele>
        <time>2021-07-11T13:30:17Z</time>
      </trkpt>
      <trkpt lat="46.3525" lon="4.84972">
        <ele>184</ele>
        <time>2021-07-11T13:30:21Z</time>
      </trkpt>
      <trkpt lat="46.3524" lon="4.84975">
        <ele>184</ele>
        <time>2021-07-11T13:30:23Z</time>
      </trkpt>
      <trkpt lat="46.35214" lon="4.84985">
        <ele>184</ele>
        <time>2021-07-11T13:30:28Z</time>
      </trkpt>
      <trkpt lat="46.35209" lon="4.84987">
        <ele>184</ele>
        <time>2021-07-11T13:30:29Z</time>
      </trkpt>
      <trkpt lat="46.35179" lon="4.84994">
        <ele>183.8</ele>
        <time>2021-07-11T13:30:35Z</time>
      </trkpt>
      <trkpt lat="46.35144" lon="4.84999">
        <ele>183.6</ele>
        <time>2021-07-11T13:30:42Z</time>
      </trkpt>
      <trkpt lat="46.3511" lon="4.85004">
        <ele>183.6</ele>
        <time>2021-07-11T13:30:49Z</time>
      </trkpt>
      <trkpt lat="46.35099" lon="4.85007">
        <ele>183.6</ele>
        <time>2021-07-11T13:30:51Z</time>
      </trkpt>
      <trkpt lat="46.35078" lon="4.85012">
        <ele>183.8</ele>
        <time>2021-07-11T13:30:55Z</time>
      </trkpt>
      <trkpt lat="46.35043" lon="4.85019">
        <ele>183.8</ele>
        <time>2021-07-11T13:31:01Z</time>
      </trkpt>
      <trkpt lat="46.35004" lon="4.85027">
        <ele>184</ele>
        <time>2021-07-11T13:31:08Z</time>
      </trkpt>
      <trkpt lat="46.34966" lon="4.85035">
        <ele>184</ele>
        <time>2021-07-11T13:31:15Z</time>
      </trkpt>
      <trkpt lat="46.34933" lon="4.85041">
        <ele>184.4</ele>
        <time>2021-07-11T13:31:21Z</time>
      </trkpt>
      <trkpt lat="46.34897" lon="4.85046">
        <ele>185</ele>
        <time>2021-07-11T13:31:27Z</time>
      </trkpt>
      <trkpt lat="46.34891" lon="4.85047">
        <ele>185.2</ele>
        <time>2021-07-11T13:31:28Z</time>
      </trkpt>
      <trkpt lat="46.34852" lon="4.8505">
        <ele>185.4</ele>
        <time>2021-07-11T13:31:35Z</time>
      </trkpt>
      <trkpt lat="46.34812" lon="4.8506">
        <ele>185.2</ele>
        <time>2021-07-11T13:31:41Z</time>
      </trkpt>
      <trkpt lat="46.34755" lon="4.85077">
        <ele>184</ele>
        <time>2021-07-11T13:31:50Z</time>
      </trkpt>
      <trkpt lat="46.347" lon="4.85094">
        <ele>183.2</ele>
        <time>2021-07-11T13:31:59Z</time>
      </trkpt>
      <trkpt lat="46.34695" lon="4.85095">
        <ele>183.2</ele>
        <time>2021-07-11T13:32:00Z</time>
      </trkpt>
      <trkpt lat="46.34644" lon="4.85099">
        <ele>183.4</ele>
        <time>2021-07-11T13:32:09Z</time>
      </trkpt>
      <trkpt lat="46.34609" lon="4.85097">
        <ele>183.6</ele>
        <time>2021-07-11T13:32:16Z</time>
      </trkpt>
      <trkpt lat="46.34571" lon="4.85099">
        <ele>183.8</ele>
        <time>2021-07-11T13:32:23Z</time>
      </trkpt>
      <trkpt lat="46.3452" lon="4.85102">
        <ele>183.6</ele>
        <time>2021-07-11T13:32:32Z</time>
      </trkpt>
      <trkpt lat="46.3446" lon="4.85103">
        <ele>183.6</ele>
        <time>2021-07-11T13:32:42Z</time>
      </trkpt>
      <trkpt lat="46.34409" lon="4.85108">
        <ele>183.8</ele>
        <time>2021-07-11T13:32:51Z</time>
      </trkpt>
      <trkpt lat="46.34369" lon="4.85113">
        <ele>184</ele>
        <time>2021-07-11T13:32:58Z</time>
      </trkpt>
      <trkpt lat="46.34324" lon="4.85117">
        <ele>183.8</ele>
        <time>2021-07-11T13:33:06Z</time>
      </trkpt>
      <trkpt lat="46.34284" lon="4.85118">
        <ele>183.8</ele>
        <time>2021-07-11T13:33:13Z</time>
      </trkpt>
      <trkpt lat="46.34247" lon="4.85114">
        <ele>184.2</ele>
        <time>2021-07-11T13:33:20Z</time>
      </trkpt>
      <trkpt lat="46.3419" lon="4.85107">
        <ele>184.6</ele>
        <time>2021-07-11T13:33:30Z</time>
      </trkpt>
      <trkpt lat="46.34132" lon="4.85098">
        <ele>184.4</ele>
        <time>2021-07-11T13:33:40Z</time>
      </trkpt>
      <trkpt lat="46.34126" lon="4.85097">
        <ele>184.4</ele>
        <time>2021-07-11T13:33:41Z</time>
      </trkpt>
      <trkpt lat="46.34074" lon="4.85087">
        <ele>184.4</ele>
        <time>2021-07-11T13:33:50Z</time>
      </trkpt>
      <trkpt lat="46.3404" lon="4.8508">
        <ele>184.4</ele>
        <time>2021-07-11T13:33:57Z</time>
      </trkpt>
      <trkpt lat="46.33997" lon="4.85071">
        <ele>184.4</ele>
        <time>2021-07-11T13:34:07Z</time>
      </trkpt>
      <trkpt lat="46.3397" lon="4.85067">
        <ele>184.4</ele>
        <time>2021-07-11T13:34:13Z</time>
      </trkpt>
      <trkpt lat="46.33965" lon="4.85068">
        <ele>184.6</ele>
        <time>2021-07-11T13:34:14Z</time>
      </trkpt>
      <trkpt lat="46.33951" lon="4.85072">
        <ele>184.6</ele>
        <time>2021-07-11T13:34:17Z</time>
      </trkpt>
      <trkpt lat="46.33937" lon="4.85077">
        <ele>185</ele>
        <time>2021-07-11T13:34:20Z</time>
      </trkpt>
      <trkpt lat="46.33926" lon="4.85078">
        <ele>185.4</ele>
        <time>2021-07-11T13:34:22Z</time>
      </trkpt>
      <trkpt lat="46.33889" lon="4.85079">
        <ele>186</ele>
        <time>2021-07-11T13:34:29Z</time>
      </trkpt>
      <trkpt lat="46.33859" lon="4.85078">
        <ele>186.2</ele>
        <time>2021-07-11T13:34:35Z</time>
      </trkpt>
      <trkpt lat="46.3383" lon="4.85075">
        <ele>186.2</ele>
        <time>2021-07-11T13:34:40Z</time>
      </trkpt>
      <trkpt lat="46.33797" lon="4.85071">
        <ele>185.6</ele>
        <time>2021-07-11T13:34:46Z</time>
      </trkpt>
      <trkpt lat="46.33764" lon="4.85069">
        <ele>185</ele>
        <time>2021-07-11T13:34:53Z</time>
      </trkpt>
      <trkpt lat="46.33732" lon="4.85062">
        <ele>184.8</ele>
        <time>2021-07-11T13:35:00Z</time>
      </trkpt>
      <trkpt lat="46.33692" lon="4.85059">
        <ele>184.8</ele>
        <time>2021-07-11T13:35:09Z</time>
      </trkpt>
      <trkpt lat="46.33661" lon="4.85062">
        <ele>184.8</ele>
        <time>2021-07-11T13:35:16Z</time>
      </trkpt>
      <trkpt lat="46.33657" lon="4.85061">
        <ele>184.8</ele>
        <time>2021-07-11T13:35:17Z</time>
      </trkpt>
      <trkpt lat="46.33629" lon="4.85054">
        <ele>184.6</ele>
        <time>2021-07-11T13:35:23Z</time>
      </trkpt>
      <trkpt lat="46.33586" lon="4.85051">
        <ele>184.4</ele>
        <time>2021-07-11T13:35:31Z</time>
      </trkpt>
      <trkpt lat="46.3353" lon="4.85052">
        <ele>184.6</ele>
        <time>2021-07-11T13:35:41Z</time>
      </trkpt>
      <trkpt lat="46.33475" lon="4.85061">
        <ele>184.8</ele>
        <time>2021-07-11T13:35:51Z</time>
      </trkpt>
      <trkpt lat="46.33424" lon="4.85065">
        <ele>185</ele>
        <time>2021-07-11T13:36:00Z</time>
      </trkpt>
      <trkpt lat="46.33368" lon="4.8507">
        <ele>185</ele>
        <time>2021-07-11T13:36:10Z</time>
      </trkpt>
      <trkpt lat="46.33362" lon="4.8507">
        <ele>185</ele>
        <time>2021-07-11T13:36:11Z</time>
      </trkpt>
      <trkpt lat="46.33318" lon="4.85075">
        <ele>185</ele>
        <time>2021-07-11T13:36:19Z</time>
      </trkpt>
      <trkpt lat="46.33284" lon="4.8508">
        <ele>185</ele>
        <time>2021-07-11T13:36:25Z</time>
      </trkpt>
      <trkpt lat="46.33245" lon="4.85084">
        <ele>185</ele>
        <time>2021-07-11T13:36:32Z</time>
      </trkpt>
      <trkpt lat="46.33206" lon="4.85087">
        <ele>185.2</ele>
        <time>2021-07-11T13:36:39Z</time>
      </trkpt>
      <trkpt lat="46.33167" lon="4.85088">
        <ele>185</ele>
        <time>2021-07-11T13:36:46Z</time>
      </trkpt>
      <trkpt lat="46.33129" lon="4.85083">
        <ele>185</ele>
        <time>2021-07-11T13:36:53Z</time>
      </trkpt>
      <trkpt lat="46.33085" lon="4.85078">
        <ele>184.6</ele>
        <time>2021-07-11T13:37:01Z</time>
      </trkpt>
      <trkpt lat="46.33043" lon="4.85073">
        <ele>184.6</ele>
        <time>2021-07-11T13:37:09Z</time>
      </trkpt>
      <trkpt lat="46.33032" lon="4.85072">
        <ele>184.8</ele>
        <time>2021-07-11T13:37:11Z</time>
      </trkpt>
      <trkpt lat="46.33015" lon="4.85068">
        <ele>184.8</ele>
        <time>2021-07-11T13:37:14Z</time>
      </trkpt>
      <trkpt lat="46.32974" lon="4.85057">
        <ele>184.8</ele>
        <time>2021-07-11T13:37:22Z</time>
      </trkpt>
      <trkpt lat="46.32938" lon="4.85047">
        <ele>185</ele>
        <time>2021-07-11T13:37:29Z</time>
      </trkpt>
      <trkpt lat="46.32905" lon="4.85037">
        <ele>185</ele>
        <time>2021-07-11T13:37:36Z</time>
      </trkpt>
      <trkpt lat="46.329" lon="4.85036">
        <ele>185</ele>
        <time>2021-07-11T13:37:37Z</time>
      </trkpt>
      <trkpt lat="46.32878" lon="4.85029">
        <ele>185.2</ele>
        <time>2021-07-11T13:37:42Z</time>
      </trkpt>
      <trkpt lat="46.32852" lon="4.85025">
        <ele>185.2</ele>
        <time>2021-07-11T13:37:49Z</time>
      </trkpt>
      <trkpt lat="46.32833" lon="4.85024">
        <ele>185.2</ele>
        <time>2021-07-11T13:37:54Z</time>
      </trkpt>
      <trkpt lat="46.32807" lon="4.85012">
        <ele>185.2</ele>
        <time>2021-07-11T13:38:00Z</time>
      </trkpt>
      <trkpt lat="46.32802" lon="4.85009">
        <ele>185.4</ele>
        <time>2021-07-11T13:38:01Z</time>
      </trkpt>
      <trkpt lat="46.32778" lon="4.84992">
        <ele>185.6</ele>
        <time>2021-07-11T13:38:07Z</time>
      </trkpt>
      <trkpt lat="46.32775" lon="4.84989">
        <ele>185.6</ele>
        <time>2021-07-11T13:38:08Z</time>
      </trkpt>
      <trkpt lat="46.32765" lon="4.84975">
        <ele>185.6</ele>
        <time>2021-07-11T13:38:11Z</time>
      </trkpt>
      <trkpt lat="46.32762" lon="4.84969">
        <ele>185.6</ele>
        <time>2021-07-11T13:38:12Z</time>
      </trkpt>
      <trkpt lat="46.32754" lon="4.84952">
        <ele>185.4</ele>
        <time>2021-07-11T13:38:15Z</time>
      </trkpt>
      <trkpt lat="46.32747" lon="4.84934">
        <ele>185.4</ele>
        <time>2021-07-11T13:38:18Z</time>
      </trkpt>
      <trkpt lat="46.32744" lon="4.84927">
        <ele>185.4</ele>
        <time>2021-07-11T13:38:19Z</time>
      </trkpt>
      <trkpt lat="46.32725" lon="4.8489">
        <ele>185.4</ele>
        <time>2021-07-11T13:38:25Z</time>
      </trkpt>
      <trkpt lat="46.32695" lon="4.84836">
        <ele>185.2</ele>
        <time>2021-07-11T13:38:34Z</time>
      </trkpt>
      <trkpt lat="46.32676" lon="4.84803">
        <ele>185</ele>
        <time>2021-07-11T13:38:40Z</time>
      </trkpt>
      <trkpt lat="46.32674" lon="4.84797">
        <ele>184.8</ele>
        <time>2021-07-11T13:38:41Z</time>
      </trkpt>
      <trkpt lat="46.32669" lon="4.84779">
        <ele>184.8</ele>
        <time>2021-07-11T13:38:44Z</time>
      </trkpt>
      <trkpt lat="46.32663" lon="4.84771">
        <ele>184.8</ele>
        <time>2021-07-11T13:38:46Z</time>
      </trkpt>
      <trkpt lat="46.32657" lon="4.84764">
        <ele>184.8</ele>
        <time>2021-07-11T13:38:48Z</time>
      </trkpt>
      <trkpt lat="46.32652" lon="4.84755">
        <ele>184.6</ele>
        <time>2021-07-11T13:38:50Z</time>
      </trkpt>
      <trkpt lat="46.32649" lon="4.84749">
        <ele>184.6</ele>
        <time>2021-07-11T13:38:51Z</time>
      </trkpt>
      <trkpt lat="46.32647" lon="4.84744">
        <ele>184.6</ele>
        <time>2021-07-11T13:38:52Z</time>
      </trkpt>
      <trkpt lat="46.32634" lon="4.84722">
        <ele>184.6</ele>
        <time>2021-07-11T13:38:56Z</time>
      </trkpt>
      <trkpt lat="46.32616" lon="4.84686">
        <ele>184.8</ele>
        <time>2021-07-11T13:39:03Z</time>
      </trkpt>
      <trkpt lat="46.32602" lon="4.84652">
        <ele>184.8</ele>
        <time>2021-07-11T13:39:10Z</time>
      </trkpt>
      <trkpt lat="46.32592" lon="4.84629">
        <ele>184.8</ele>
        <time>2021-07-11T13:39:14Z</time>
      </trkpt>
      <trkpt lat="46.3259" lon="4.84623">
        <ele>184.8</ele>
        <time>2021-07-11T13:39:15Z</time>
      </trkpt>
      <trkpt lat="46.32572" lon="4.84584">
        <ele>185</ele>
        <time>2021-07-11T13:39:22Z</time>
      </trkpt>
      <trkpt lat="46.32557" lon="4.84542">
        <ele>185.6</ele>
        <time>2021-07-11T13:39:30Z</time>
      </trkpt>
      <trkpt lat="46.32553" lon="4.84519">
        <ele>185.8</ele>
        <time>2021-07-11T13:39:35Z</time>
      </trkpt>
      <trkpt lat="46.32552" lon="4.84512">
        <ele>185.8</ele>
        <time>2021-07-11T13:39:37Z</time>
      </trkpt>
      <trkpt lat="46.32548" lon="4.84504">
        <ele>186.2</ele>
        <time>2021-07-11T13:39:41Z</time>
      </trkpt>
      <trkpt lat="46.32535" lon="4.84503">
        <ele>186.4</ele>
        <time>2021-07-11T13:39:46Z</time>
      </trkpt>
      <trkpt lat="46.32529" lon="4.84499">
        <ele>186.4</ele>
        <time>2021-07-11T13:39:48Z</time>
      </trkpt>
      <trkpt lat="46.32523" lon="4.84495">
        <ele>186.4</ele>
        <time>2021-07-11T13:39:50Z</time>
      </trkpt>
      <trkpt lat="46.32497" lon="4.84493">
        <ele>186.6</ele>
        <time>2021-07-11T13:39:56Z</time>
      </trkpt>
      <trkpt lat="46.32462" lon="4.84489">
        <ele>186.4</ele>
        <time>2021-07-11T13:40:03Z</time>
      </trkpt>
      <trkpt lat="46.32418" lon="4.84486">
        <ele>186.8</ele>
        <time>2021-07-11T13:40:11Z</time>
      </trkpt>
      <trkpt lat="46.3238" lon="4.84483">
        <ele>186.8</ele>
        <time>2021-07-11T13:40:18Z</time>
      </trkpt>
      <trkpt lat="46.32344" lon="4.84481">
        <ele>186.8</ele>
        <time>2021-07-11T13:40:25Z</time>
      </trkpt>
      <trkpt lat="46.32307" lon="4.84478">
        <ele>186.8</ele>
        <time>2021-07-11T13:40:32Z</time>
      </trkpt>
      <trkpt lat="46.32262" lon="4.84474">
        <ele>186.8</ele>
        <time>2021-07-11T13:40:41Z</time>
      </trkpt>
      <trkpt lat="46.32223" lon="4.84474">
        <ele>186.8</ele>
        <time>2021-07-11T13:40:49Z</time>
      </trkpt>
      <trkpt lat="46.32184" lon="4.84482">
        <ele>187</ele>
        <time>2021-07-11T13:40:57Z</time>
      </trkpt>
      <trkpt lat="46.32167" lon="4.84487">
        <ele>187</ele>
        <time>2021-07-11T13:41:01Z</time>
      </trkpt>
      <trkpt lat="46.3216" lon="4.84493">
        <ele>187</ele>
        <time>2021-07-11T13:41:03Z</time>
      </trkpt>
      <trkpt lat="46.32154" lon="4.84506">
        <ele>187</ele>
        <time>2021-07-11T13:41:07Z</time>
      </trkpt>
      <trkpt lat="46.32152" lon="4.84507">
        <ele>187</ele>
        <time>2021-07-11T13:41:08Z</time>
      </trkpt>
      <trkpt lat="46.32144" lon="4.84517">
        <ele>187</ele>
        <time>2021-07-11T13:41:13Z</time>
      </trkpt>
      <trkpt lat="46.32143" lon="4.84519">
        <ele>187</ele>
        <time>2021-07-11T13:41:14Z</time>
      </trkpt>
      <trkpt lat="46.32133" lon="4.84536">
        <ele>187.2</ele>
        <time>2021-07-11T13:41:20Z</time>
      </trkpt>
      <trkpt lat="46.32126" lon="4.84554">
        <ele>187.2</ele>
        <time>2021-07-11T13:41:25Z</time>
      </trkpt>
      <trkpt lat="46.32119" lon="4.84572">
        <ele>187</ele>
        <time>2021-07-11T13:41:31Z</time>
      </trkpt>
      <trkpt lat="46.32109" lon="4.84571">
        <ele>186.6</ele>
        <time>2021-07-11T13:41:35Z</time>
      </trkpt>
      <trkpt lat="46.32095" lon="4.84559">
        <ele>186</ele>
        <time>2021-07-11T13:41:40Z</time>
      </trkpt>
      <trkpt lat="46.32092" lon="4.84556">
        <ele>186</ele>
        <time>2021-07-11T13:41:41Z</time>
      </trkpt>
      <trkpt lat="46.32077" lon="4.84545">
        <ele>185.8</ele>
        <time>2021-07-11T13:41:46Z</time>
      </trkpt>
      <trkpt lat="46.32056" lon="4.84531">
        <ele>185.8</ele>
        <time>2021-07-11T13:41:53Z</time>
      </trkpt>
      <trkpt lat="46.32042" lon="4.84523">
        <ele>185.8</ele>
        <time>2021-07-11T13:41:59Z</time>
      </trkpt>
      <trkpt lat="46.32026" lon="4.8451">
        <ele>185.8</ele>
        <time>2021-07-11T13:42:05Z</time>
      </trkpt>
      <trkpt lat="46.32006" lon="4.84492">
        <ele>185.8</ele>
        <time>2021-07-11T13:42:12Z</time>
      </trkpt>
      <trkpt lat="46.3198" lon="4.84475">
        <ele>185.8</ele>
        <time>2021-07-11T13:42:19Z</time>
      </trkpt>
      <trkpt lat="46.31968" lon="4.84467">
        <ele>185.8</ele>
        <time>2021-07-11T13:42:22Z</time>
      </trkpt>
      <trkpt lat="46.31957" lon="4.84461">
        <ele>185.8</ele>
        <time>2021-07-11T13:42:25Z</time>
      </trkpt>
      <trkpt lat="46.31952" lon="4.84459">
        <ele>185.8</ele>
        <time>2021-07-11T13:42:26Z</time>
      </trkpt>
      <trkpt lat="46.31937" lon="4.84448">
        <ele>185.8</ele>
        <time>2021-07-11T13:42:30Z</time>
      </trkpt>
      <trkpt lat="46.31916" lon="4.84427">
        <ele>186</ele>
        <time>2021-07-11T13:42:36Z</time>
      </trkpt>
      <trkpt lat="46.319" lon="4.84411">
        <ele>186</ele>
        <time>2021-07-11T13:42:41Z</time>
      </trkpt>
      <trkpt lat="46.31882" lon="4.84395">
        <ele>185.8</ele>
        <time>2021-07-11T13:42:47Z</time>
      </trkpt>
      <trkpt lat="46.31864" lon="4.84377">
        <ele>185.8</ele>
        <time>2021-07-11T13:42:53Z</time>
      </trkpt>
      <trkpt lat="46.31851" lon="4.8436">
        <ele>185.8</ele>
        <time>2021-07-11T13:42:58Z</time>
      </trkpt>
      <trkpt lat="46.31832" lon="4.84343">
        <ele>185.8</ele>
        <time>2021-07-11T13:43:04Z</time>
      </trkpt>
      <trkpt lat="46.31816" lon="4.84327">
        <ele>185.8</ele>
        <time>2021-07-11T13:43:09Z</time>
      </trkpt>
      <trkpt lat="46.31787" lon="4.84298">
        <ele>185.8</ele>
        <time>2021-07-11T13:43:17Z</time>
      </trkpt>
      <trkpt lat="46.31762" lon="4.84275">
        <ele>185.8</ele>
        <time>2021-07-11T13:43:24Z</time>
      </trkpt>
      <trkpt lat="46.31735" lon="4.84248">
        <ele>185.6</ele>
        <time>2021-07-11T13:43:32Z</time>
      </trkpt>
      <trkpt lat="46.31713" lon="4.8423">
        <ele>185.4</ele>
        <time>2021-07-11T13:43:38Z</time>
      </trkpt>
      <trkpt lat="46.3171" lon="4.84227">
        <ele>185.4</ele>
        <time>2021-07-11T13:43:39Z</time>
      </trkpt>
      <trkpt lat="46.317" lon="4.84216">
        <ele>185.4</ele>
        <time>2021-07-11T13:43:42Z</time>
      </trkpt>
      <trkpt lat="46.31669" lon="4.84191">
        <ele>185.4</ele>
        <time>2021-07-11T13:43:50Z</time>
      </trkpt>
      <trkpt lat="46.3163" lon="4.84163">
        <ele>185.2</ele>
        <time>2021-07-11T13:43:59Z</time>
      </trkpt>
      <trkpt lat="46.31589" lon="4.84139">
        <ele>185.2</ele>
        <time>2021-07-11T13:44:08Z</time>
      </trkpt>
      <trkpt lat="46.31572" lon="4.8413">
        <ele>185.2</ele>
        <time>2021-07-11T13:44:13Z</time>
      </trkpt>
      <trkpt lat="46.31553" lon="4.8412">
        <ele>185.4</ele>
        <time>2021-07-11T13:44:18Z</time>
      </trkpt>
      <trkpt lat="46.31549" lon="4.84119">
        <ele>185.4</ele>
        <time>2021-07-11T13:44:19Z</time>
      </trkpt>
      <trkpt lat="46.31524" lon="4.84106">
        <ele>185.4</ele>
        <time>2021-07-11T13:44:26Z</time>
      </trkpt>
      <trkpt lat="46.31507" lon="4.84092">
        <ele>185.4</ele>
        <time>2021-07-11T13:44:31Z</time>
      </trkpt>
      <trkpt lat="46.31503" lon="4.84088">
        <ele>185.4</ele>
        <time>2021-07-11T13:44:32Z</time>
      </trkpt>
      <trkpt lat="46.31499" lon="4.84084">
        <ele>185.4</ele>
        <time>2021-07-11T13:44:33Z</time>
      </trkpt>
      <trkpt lat="46.31483" lon="4.84072">
        <ele>185.6</ele>
        <time>2021-07-11T13:44:37Z</time>
      </trkpt>
      <trkpt lat="46.31444" lon="4.84046">
        <ele>185.6</ele>
        <time>2021-07-11T13:44:46Z</time>
      </trkpt>
      <trkpt lat="46.31425" lon="4.84032">
        <ele>185.6</ele>
        <time>2021-07-11T13:44:51Z</time>
      </trkpt>
      <trkpt lat="46.31418" lon="4.84025">
        <ele>185.6</ele>
        <time>2021-07-11T13:44:53Z</time>
      </trkpt>
      <trkpt lat="46.31398" lon="4.84009">
        <ele>186</ele>
        <time>2021-07-11T13:44:59Z</time>
      </trkpt>
      <trkpt lat="46.31386" lon="4.84003">
        <ele>186.6</ele>
        <time>2021-07-11T13:45:02Z</time>
      </trkpt>
      <trkpt lat="46.31377" lon="4.84001">
        <ele>186.8</ele>
        <time>2021-07-11T13:45:04Z</time>
      </trkpt>
      <trkpt lat="46.31373" lon="4.83999">
        <ele>187</ele>
        <time>2021-07-11T13:45:05Z</time>
      </trkpt>
      <trkpt lat="46.31354" lon="4.83991">
        <ele>187.6</ele>
        <time>2021-07-11T13:45:10Z</time>
      </trkpt>
      <trkpt lat="46.31333" lon="4.83991">
        <ele>187.6</ele>
        <time>2021-07-11T13:45:15Z</time>
      </trkpt>
      <trkpt lat="46.31329" lon="4.8399">
        <ele>187.6</ele>
        <time>2021-07-11T13:45:16Z</time>
      </trkpt>
      <trkpt lat="46.31306" lon="4.83983">
        <ele>187.6</ele>
        <time>2021-07-11T13:45:21Z</time>
      </trkpt>
      <trkpt lat="46.31264" lon="4.8396">
        <ele>187.8</ele>
        <time>2021-07-11T13:45:31Z</time>
      </trkpt>
      <trkpt lat="46.31228" lon="4.83931">
        <ele>187.8</ele>
        <time>2021-07-11T13:45:40Z</time>
      </trkpt>
      <trkpt lat="46.31185" lon="4.839">
        <ele>188.2</ele>
        <time>2021-07-11T13:45:50Z</time>
      </trkpt>
      <trkpt lat="46.31146" lon="4.83867">
        <ele>188.2</ele>
        <time>2021-07-11T13:45:59Z</time>
      </trkpt>
      <trkpt lat="46.31114" lon="4.83849">
        <ele>188.6</ele>
        <time>2021-07-11T13:46:06Z</time>
      </trkpt>
      <trkpt lat="46.31075" lon="4.83834">
        <ele>188.6</ele>
        <time>2021-07-11T13:46:14Z</time>
      </trkpt>
      <trkpt lat="46.31028" lon="4.83817">
        <ele>188.6</ele>
        <time>2021-07-11T13:46:24Z</time>
      </trkpt>
      <trkpt lat="46.30985" lon="4.83802">
        <ele>188.6</ele>
        <time>2021-07-11T13:46:33Z</time>
      </trkpt>
      <trkpt lat="46.30976" lon="4.83801">
        <ele>188.8</ele>
        <time>2021-07-11T13:46:35Z</time>
      </trkpt>
      <trkpt lat="46.30964" lon="4.83802">
        <ele>188.8</ele>
        <time>2021-07-11T13:46:38Z</time>
      </trkpt>
      <trkpt lat="46.30961" lon="4.83802">
        <ele>188.8</ele>
        <time>2021-07-11T13:46:39Z</time>
      </trkpt>
      <trkpt lat="46.30957" lon="4.83801">
        <ele>188.8</ele>
        <time>2021-07-11T13:46:40Z</time>
      </trkpt>
      <trkpt lat="46.30939" lon="4.83795">
        <ele>188.6</ele>
        <time>2021-07-11T13:46:44Z</time>
      </trkpt>
      <trkpt lat="46.30921" lon="4.8379">
        <ele>188.6</ele>
        <time>2021-07-11T13:46:48Z</time>
      </trkpt>
      <trkpt lat="46.30914" lon="4.83784">
        <ele>188.6</ele>
        <time>2021-07-11T13:46:50Z</time>
      </trkpt>
      <trkpt lat="46.30899" lon="4.8377">
        <ele>188.4</ele>
        <time>2021-07-11T13:46:54Z</time>
      </trkpt>
      <trkpt lat="46.30891" lon="4.83766">
        <ele>188.4</ele>
        <time>2021-07-11T13:46:56Z</time>
      </trkpt>
      <trkpt lat="46.30868" lon="4.83755">
        <ele>188.8</ele>
        <time>2021-07-11T13:47:02Z</time>
      </trkpt>
      <trkpt lat="46.30857" lon="4.83749">
        <ele>189</ele>
        <time>2021-07-11T13:47:08Z</time>
      </trkpt>
      <trkpt lat="46.30847" lon="4.83746">
        <ele>189</ele>
        <time>2021-07-11T13:47:13Z</time>
      </trkpt>
      <trkpt lat="46.30844" lon="4.83745">
        <ele>189</ele>
        <time>2021-07-11T13:47:14Z</time>
      </trkpt>
      <trkpt lat="46.3083" lon="4.83738">
        <ele>189</ele>
        <time>2021-07-11T13:47:17Z</time>
      </trkpt>
      <trkpt lat="46.30801" lon="4.83726">
        <ele>189</ele>
        <time>2021-07-11T13:47:23Z</time>
      </trkpt>
      <trkpt lat="46.30775" lon="4.83714">
        <ele>189</ele>
        <time>2021-07-11T13:47:30Z</time>
      </trkpt>
      <trkpt lat="46.30753" lon="4.83707">
        <ele>189</ele>
        <time>2021-07-11T13:47:37Z</time>
      </trkpt>
      <trkpt lat="46.30735" lon="4.83701">
        <ele>189</ele>
        <time>2021-07-11T13:47:42Z</time>
      </trkpt>
      <trkpt lat="46.30711" lon="4.83693">
        <ele>189</ele>
        <time>2021-07-11T13:47:48Z</time>
      </trkpt>
      <trkpt lat="46.30684" lon="4.83684">
        <ele>189</ele>
        <time>2021-07-11T13:47:54Z</time>
      </trkpt>
      <trkpt lat="46.3065" lon="4.83671">
        <ele>189.2</ele>
        <time>2021-07-11T13:48:02Z</time>
      </trkpt>
      <trkpt lat="46.30627" lon="4.83663">
        <ele>189.2</ele>
        <time>2021-07-11T13:48:08Z</time>
      </trkpt>
      <trkpt lat="46.30604" lon="4.83652">
        <ele>189.2</ele>
        <time>2021-07-11T13:48:14Z</time>
      </trkpt>
      <trkpt lat="46.30577" lon="4.8363">
        <ele>189.4</ele>
        <time>2021-07-11T13:48:22Z</time>
      </trkpt>
      <trkpt lat="46.3057" lon="4.83625">
        <ele>189.6</ele>
        <time>2021-07-11T13:48:24Z</time>
      </trkpt>
      <trkpt lat="46.30554" lon="4.83609">
        <ele>190.2</ele>
        <time>2021-07-11T13:48:30Z</time>
      </trkpt>
      <trkpt lat="46.30539" lon="4.83599">
        <ele>190.4</ele>
        <time>2021-07-11T13:48:35Z</time>
      </trkpt>
      <trkpt lat="46.30536" lon="4.83599">
        <ele>190.4</ele>
        <time>2021-07-11T13:48:36Z</time>
      </trkpt>
      <trkpt lat="46.30533" lon="4.836">
        <ele>190.6</ele>
        <time>2021-07-11T13:48:37Z</time>
      </trkpt>
      <trkpt lat="46.30521" lon="4.83608">
        <ele>190.8</ele>
        <time>2021-07-11T13:48:41Z</time>
      </trkpt>
      <trkpt lat="46.30517" lon="4.83617">
        <ele>191</ele>
        <time>2021-07-11T13:48:43Z</time>
      </trkpt>
      <trkpt lat="46.30511" lon="4.83633">
        <ele>191.2</ele>
        <time>2021-07-11T13:48:46Z</time>
      </trkpt>
      <trkpt lat="46.30505" lon="4.83658">
        <ele>191.6</ele>
        <time>2021-07-11T13:48:50Z</time>
      </trkpt>
      <trkpt lat="46.30499" lon="4.83677">
        <ele>192</ele>
        <time>2021-07-11T13:48:53Z</time>
      </trkpt>
      <trkpt lat="46.30493" lon="4.83699">
        <ele>192.6</ele>
        <time>2021-07-11T13:48:56Z</time>
      </trkpt>
      <trkpt lat="46.30483" lon="4.83737">
        <ele>192.8</ele>
        <time>2021-07-11T13:49:01Z</time>
      </trkpt>
      <trkpt lat="46.30471" lon="4.83803">
        <ele>192.6</ele>
        <time>2021-07-11T13:49:09Z</time>
      </trkpt>
      <trkpt lat="46.30464" lon="4.83849">
        <ele>192</ele>
        <time>2021-07-11T13:49:15Z</time>
      </trkpt>
      <trkpt lat="46.30466" lon="4.83875">
        <ele>191.8</ele>
        <time>2021-07-11T13:49:18Z</time>
      </trkpt>
      <trkpt lat="46.30468" lon="4.83884">
        <ele>191.4</ele>
        <time>2021-07-11T13:49:19Z</time>
      </trkpt>
      <trkpt lat="46.30472" lon="4.839">
        <ele>191.2</ele>
        <time>2021-07-11T13:49:21Z</time>
      </trkpt>
      <trkpt lat="46.30476" lon="4.83914">
        <ele>190.6</ele>
        <time>2021-07-11T13:49:23Z</time>
      </trkpt>
      <trkpt lat="46.30479" lon="4.8392">
        <ele>190.2</ele>
        <time>2021-07-11T13:49:24Z</time>
      </trkpt>
      <trkpt lat="46.30492" lon="4.83932">
        <ele>190</ele>
        <time>2021-07-11T13:49:27Z</time>
      </trkpt>
      <trkpt lat="46.305" lon="4.83942">
        <ele>190</ele>
        <time>2021-07-11T13:49:29Z</time>
      </trkpt>
      <trkpt lat="46.30517" lon="4.83963">
        <ele>189.6</ele>
        <time>2021-07-11T13:49:33Z</time>
      </trkpt>
      <trkpt lat="46.30525" lon="4.83973">
        <ele>189.4</ele>
        <time>2021-07-11T13:49:35Z</time>
      </trkpt>
      <trkpt lat="46.30557" lon="4.84017">
        <ele>189</ele>
        <time>2021-07-11T13:49:43Z</time>
      </trkpt>
      <trkpt lat="46.30577" lon="4.84043">
        <ele>188.8</ele>
        <time>2021-07-11T13:49:48Z</time>
      </trkpt>
      <trkpt lat="46.30581" lon="4.84048">
        <ele>188.6</ele>
        <time>2021-07-11T13:49:49Z</time>
      </trkpt>
      <trkpt lat="46.3059" lon="4.84069">
        <ele>188.6</ele>
        <time>2021-07-11T13:49:52Z</time>
      </trkpt>
      <trkpt lat="46.30591" lon="4.84076">
        <ele>188.6</ele>
        <time>2021-07-11T13:49:53Z</time>
      </trkpt>
      <trkpt lat="46.30596" lon="4.84106">
        <ele>188.4</ele>
        <time>2021-07-11T13:49:57Z</time>
      </trkpt>
      <trkpt lat="46.30597" lon="4.84114">
        <ele>188.4</ele>
        <time>2021-07-11T13:49:58Z</time>
      </trkpt>
      <trkpt lat="46.30599" lon="4.84162">
        <ele>188.4</ele>
        <time>2021-07-11T13:50:05Z</time>
      </trkpt>
      <trkpt lat="46.30599" lon="4.84181">
        <ele>188.4</ele>
        <time>2021-07-11T13:50:09Z</time>
      </trkpt>
      <trkpt lat="46.30614" lon="4.84193">
        <ele>188.6</ele>
        <time>2021-07-11T13:50:13Z</time>
      </trkpt>
      <trkpt lat="46.30641" lon="4.84212">
        <ele>188.6</ele>
        <time>2021-07-11T13:50:19Z</time>
      </trkpt>
      <trkpt lat="46.30672" lon="4.84234">
        <ele>188.6</ele>
        <time>2021-07-11T13:50:25Z</time>
      </trkpt>
      <trkpt lat="46.30715" lon="4.84263">
        <ele>188.8</ele>
        <time>2021-07-11T13:50:33Z</time>
      </trkpt>
      <trkpt lat="46.30748" lon="4.84287">
        <ele>189</ele>
        <time>2021-07-11T13:50:40Z</time>
      </trkpt>
      <trkpt lat="46.30752" lon="4.84291">
        <ele>189</ele>
        <time>2021-07-11T13:50:41Z</time>
      </trkpt>
      <trkpt lat="46.30782" lon="4.84315">
        <ele>189.4</ele>
        <time>2021-07-11T13:50:48Z</time>
      </trkpt>
      <trkpt lat="46.30786" lon="4.84319">
        <ele>189.4</ele>
        <time>2021-07-11T13:50:49Z</time>
      </trkpt>
      <trkpt lat="46.30809" lon="4.84342">
        <ele>189.4</ele>
        <time>2021-07-11T13:50:55Z</time>
      </trkpt>
      <trkpt lat="46.30816" lon="4.8436">
        <ele>189.4</ele>
        <time>2021-07-11T13:50:58Z</time>
      </trkpt>
      <trkpt lat="46.30818" lon="4.84366">
        <ele>189.6</ele>
        <time>2021-07-11T13:50:59Z</time>
      </trkpt>
      <trkpt lat="46.30819" lon="4.84373">
        <ele>189.6</ele>
        <time>2021-07-11T13:51:00Z</time>
      </trkpt>
      <trkpt lat="46.30826" lon="4.84383">
        <ele>189.6</ele>
        <time>2021-07-11T13:51:02Z</time>
      </trkpt>
      <trkpt lat="46.3083" lon="4.84388">
        <ele>189.6</ele>
        <time>2021-07-11T13:51:03Z</time>
      </trkpt>
      <trkpt lat="46.30838" lon="4.84394">
        <ele>189.6</ele>
        <time>2021-07-11T13:51:05Z</time>
      </trkpt>
      <trkpt lat="46.30843" lon="4.84398">
        <ele>189.6</ele>
        <time>2021-07-11T13:51:06Z</time>
      </trkpt>
      <trkpt lat="46.30847" lon="4.84402">
        <ele>189.6</ele>
        <time>2021-07-11T13:51:07Z</time>
      </trkpt>
      <trkpt lat="46.30857" lon="4.84428">
        <ele>189.6</ele>
        <time>2021-07-11T13:51:11Z</time>
      </trkpt>
      <trkpt lat="46.30858" lon="4.84436">
        <ele>189.6</ele>
        <time>2021-07-11T13:51:12Z</time>
      </trkpt>
      <trkpt lat="46.30861" lon="4.84477">
        <ele>189.6</ele>
        <time>2021-07-11T13:51:17Z</time>
      </trkpt>
      <trkpt lat="46.30861" lon="4.84485">
        <ele>189.6</ele>
        <time>2021-07-11T13:51:18Z</time>
      </trkpt>
      <trkpt lat="46.30855" lon="4.84534">
        <ele>189.4</ele>
        <time>2021-07-11T13:51:24Z</time>
      </trkpt>
      <trkpt lat="46.30842" lon="4.84611">
        <ele>189.4</ele>
        <time>2021-07-11T13:51:33Z</time>
      </trkpt>
      <trkpt lat="46.30841" lon="4.84619">
        <ele>189.6</ele>
        <time>2021-07-11T13:51:34Z</time>
      </trkpt>
      <trkpt lat="46.30829" lon="4.84698">
        <ele>190.4</ele>
        <time>2021-07-11T13:51:43Z</time>
      </trkpt>
      <trkpt lat="46.30828" lon="4.84707">
        <ele>190.6</ele>
        <time>2021-07-11T13:51:44Z</time>
      </trkpt>
      <trkpt lat="46.30826" lon="4.84749">
        <ele>191.8</ele>
        <time>2021-07-11T13:51:49Z</time>
      </trkpt>
      <trkpt lat="46.30827" lon="4.84775">
        <ele>192.2</ele>
        <time>2021-07-11T13:51:52Z</time>
      </trkpt>
      <trkpt lat="46.30829" lon="4.848">
        <ele>192.8</ele>
        <time>2021-07-11T13:51:55Z</time>
      </trkpt>
      <trkpt lat="46.30832" lon="4.8484">
        <ele>194</ele>
        <time>2021-07-11T13:52:00Z</time>
      </trkpt>
      <trkpt lat="46.30836" lon="4.84886">
        <ele>195.2</ele>
        <time>2021-07-11T13:52:06Z</time>
      </trkpt>
      <trkpt lat="46.30839" lon="4.84916">
        <ele>195.8</ele>
        <time>2021-07-11T13:52:10Z</time>
      </trkpt>
      <trkpt lat="46.30844" lon="4.84974">
        <ele>196.2</ele>
        <time>2021-07-11T13:52:18Z</time>
      </trkpt>
      <trkpt lat="46.30845" lon="4.84981">
        <ele>196.2</ele>
        <time>2021-07-11T13:52:19Z</time>
      </trkpt>
      <trkpt lat="46.30849" lon="4.85027">
        <ele>196.2</ele>
        <time>2021-07-11T13:52:25Z</time>
      </trkpt>
      <trkpt lat="46.30854" lon="4.85094">
        <ele>196</ele>
        <time>2021-07-11T13:52:33Z</time>
      </trkpt>
      <trkpt lat="46.30861" lon="4.85163">
        <ele>195.6</ele>
        <time>2021-07-11T13:52:41Z</time>
      </trkpt>
      <trkpt lat="46.30865" lon="4.85183">
        <ele>195.4</ele>
        <time>2021-07-11T13:52:43Z</time>
      </trkpt>
      <trkpt lat="46.30876" lon="4.85225">
        <ele>195</ele>
        <time>2021-07-11T13:52:47Z</time>
      </trkpt>
      <trkpt lat="46.30891" lon="4.85268">
        <ele>194.4</ele>
        <time>2021-07-11T13:52:51Z</time>
      </trkpt>
      <trkpt lat="46.30908" lon="4.85314">
        <ele>193.2</ele>
        <time>2021-07-11T13:52:55Z</time>
      </trkpt>
      <trkpt lat="46.30925" lon="4.8536">
        <ele>192.4</ele>
        <time>2021-07-11T13:52:59Z</time>
      </trkpt>
      <trkpt lat="46.30937" lon="4.85392">
        <ele>191.2</ele>
        <time>2021-07-11T13:53:02Z</time>
      </trkpt>
      <trkpt lat="46.30947" lon="4.85412">
        <ele>190.2</ele>
        <time>2021-07-11T13:53:04Z</time>
      </trkpt>
      <trkpt lat="46.30952" lon="4.85422">
        <ele>189.6</ele>
        <time>2021-07-11T13:53:05Z</time>
      </trkpt>
      <trkpt lat="46.30971" lon="4.85458">
        <ele>188.4</ele>
        <time>2021-07-11T13:53:09Z</time>
      </trkpt>
      <trkpt lat="46.30981" lon="4.85474">
        <ele>188</ele>
        <time>2021-07-11T13:53:11Z</time>
      </trkpt>
      <trkpt lat="46.31021" lon="4.85532">
        <ele>187.6</ele>
        <time>2021-07-11T13:53:19Z</time>
      </trkpt>
      <trkpt lat="46.31025" lon="4.85539">
        <ele>187.4</ele>
        <time>2021-07-11T13:53:20Z</time>
      </trkpt>
      <trkpt lat="46.31068" lon="4.856">
        <ele>187.4</ele>
        <time>2021-07-11T13:53:29Z</time>
      </trkpt>
      <trkpt lat="46.31081" lon="4.8562">
        <ele>187.4</ele>
        <time>2021-07-11T13:53:32Z</time>
      </trkpt>
      <trkpt lat="46.31122" lon="4.85678">
        <ele>187.4</ele>
        <time>2021-07-11T13:53:41Z</time>
      </trkpt>
      <trkpt lat="46.31126" lon="4.85684">
        <ele>187.4</ele>
        <time>2021-07-11T13:53:42Z</time>
      </trkpt>
      <trkpt lat="46.31168" lon="4.8574">
        <ele>187.6</ele>
        <time>2021-07-11T13:53:51Z</time>
      </trkpt>
      <trkpt lat="46.31186" lon="4.85763">
        <ele>187.6</ele>
        <time>2021-07-11T13:53:55Z</time>
      </trkpt>
      <trkpt lat="46.31226" lon="4.85816">
        <ele>187.6</ele>
        <time>2021-07-11T13:54:04Z</time>
      </trkpt>
      <trkpt lat="46.31235" lon="4.85828">
        <ele>187.6</ele>
        <time>2021-07-11T13:54:06Z</time>
      </trkpt>
      <trkpt lat="46.31267" lon="4.85881">
        <ele>187.6</ele>
        <time>2021-07-11T13:54:14Z</time>
      </trkpt>
      <trkpt lat="46.31271" lon="4.85889">
        <ele>187.6</ele>
        <time>2021-07-11T13:54:15Z</time>
      </trkpt>
      <trkpt lat="46.31277" lon="4.85903">
        <ele>187.6</ele>
        <time>2021-07-11T13:54:17Z</time>
      </trkpt>
      <trkpt lat="46.3129" lon="4.85941">
        <ele>187.6</ele>
        <time>2021-07-11T13:54:22Z</time>
      </trkpt>
      <trkpt lat="46.31301" lon="4.8599">
        <ele>187.4</ele>
        <time>2021-07-11T13:54:28Z</time>
      </trkpt>
      <trkpt lat="46.31302" lon="4.85998">
        <ele>187.4</ele>
        <time>2021-07-11T13:54:29Z</time>
      </trkpt>
      <trkpt lat="46.31315" lon="4.86074">
        <ele>187.2</ele>
        <time>2021-07-11T13:54:38Z</time>
      </trkpt>
      <trkpt lat="46.31317" lon="4.86091">
        <ele>187</ele>
        <time>2021-07-11T13:54:40Z</time>
      </trkpt>
      <trkpt lat="46.3133" lon="4.86168">
        <ele>187</ele>
        <time>2021-07-11T13:54:49Z</time>
      </trkpt>
      <trkpt lat="46.31334" lon="4.86193">
        <ele>187</ele>
        <time>2021-07-11T13:54:52Z</time>
      </trkpt>
      <trkpt lat="46.31348" lon="4.8627">
        <ele>187</ele>
        <time>2021-07-11T13:55:01Z</time>
      </trkpt>
      <trkpt lat="46.31358" lon="4.86338">
        <ele>187</ele>
        <time>2021-07-11T13:55:09Z</time>
      </trkpt>
      <trkpt lat="46.31362" lon="4.86399">
        <ele>187.2</ele>
        <time>2021-07-11T13:55:16Z</time>
      </trkpt>
      <trkpt lat="46.31356" lon="4.86459">
        <ele>187.2</ele>
        <time>2021-07-11T13:55:23Z</time>
      </trkpt>
      <trkpt lat="46.31345" lon="4.86512">
        <ele>187.2</ele>
        <time>2021-07-11T13:55:30Z</time>
      </trkpt>
      <trkpt lat="46.31326" lon="4.8658">
        <ele>187.6</ele>
        <time>2021-07-11T13:55:40Z</time>
      </trkpt>
      <trkpt lat="46.31314" lon="4.86619">
        <ele>187.8</ele>
        <time>2021-07-11T13:55:46Z</time>
      </trkpt>
      <trkpt lat="46.31305" lon="4.86652">
        <ele>187.8</ele>
        <time>2021-07-11T13:55:51Z</time>
      </trkpt>
      <trkpt lat="46.31303" lon="4.86659">
        <ele>187.8</ele>
        <time>2021-07-11T13:55:52Z</time>
      </trkpt>
      <trkpt lat="46.31293" lon="4.86694">
        <ele>188</ele>
        <time>2021-07-11T13:55:57Z</time>
      </trkpt>
      <trkpt lat="46.31279" lon="4.86738">
        <ele>188</ele>
        <time>2021-07-11T13:56:03Z</time>
      </trkpt>
      <trkpt lat="46.31261" lon="4.86804">
        <ele>188.2</ele>
        <time>2021-07-11T13:56:12Z</time>
      </trkpt>
      <trkpt lat="46.31246" lon="4.86855">
        <ele>188.4</ele>
        <time>2021-07-11T13:56:19Z</time>
      </trkpt>
      <trkpt lat="46.31231" lon="4.86908">
        <ele>188.4</ele>
        <time>2021-07-11T13:56:26Z</time>
      </trkpt>
      <trkpt lat="46.31213" lon="4.86976">
        <ele>188.4</ele>
        <time>2021-07-11T13:56:35Z</time>
      </trkpt>
      <trkpt lat="46.31194" lon="4.87045">
        <ele>188.4</ele>
        <time>2021-07-11T13:56:44Z</time>
      </trkpt>
      <trkpt lat="46.31181" lon="4.87099">
        <ele>188.6</ele>
        <time>2021-07-11T13:56:51Z</time>
      </trkpt>
      <trkpt lat="46.31174" lon="4.87129">
        <ele>188.8</ele>
        <time>2021-07-11T13:56:55Z</time>
      </trkpt>
      <trkpt lat="46.31169" lon="4.87152">
        <ele>188.8</ele>
        <time>2021-07-11T13:56:58Z</time>
      </trkpt>
      <trkpt lat="46.31167" lon="4.87175">
        <ele>189</ele>
        <time>2021-07-11T13:57:01Z</time>
      </trkpt>
      <trkpt lat="46.31169" lon="4.87197">
        <ele>189</ele>
        <time>2021-07-11T13:57:04Z</time>
      </trkpt>
      <trkpt lat="46.31175" lon="4.87218">
        <ele>189</ele>
        <time>2021-07-11T13:57:07Z</time>
      </trkpt>
      <trkpt lat="46.31177" lon="4.87226">
        <ele>189</ele>
        <time>2021-07-11T13:57:08Z</time>
      </trkpt>
      <trkpt lat="46.31178" lon="4.87233">
        <ele>189</ele>
        <time>2021-07-11T13:57:09Z</time>
      </trkpt>
      <trkpt lat="46.3118" lon="4.87264">
        <ele>189.2</ele>
        <time>2021-07-11T13:57:13Z</time>
      </trkpt>
      <trkpt lat="46.3118" lon="4.87272">
        <ele>189.2</ele>
        <time>2021-07-11T13:57:14Z</time>
      </trkpt>
      <trkpt lat="46.31181" lon="4.87299">
        <ele>189.4</ele>
        <time>2021-07-11T13:57:18Z</time>
      </trkpt>
      <trkpt lat="46.3118" lon="4.87305">
        <ele>189.6</ele>
        <time>2021-07-11T13:57:19Z</time>
      </trkpt>
      <trkpt lat="46.31177" lon="4.87326">
        <ele>189.8</ele>
        <time>2021-07-11T13:57:23Z</time>
      </trkpt>
      <trkpt lat="46.31175" lon="4.87339">
        <ele>190.4</ele>
        <time>2021-07-11T13:57:26Z</time>
      </trkpt>
      <trkpt lat="46.31173" lon="4.87351">
        <ele>190.8</ele>
        <time>2021-07-11T13:57:31Z</time>
      </trkpt>
      <trkpt lat="46.31173" lon="4.87351">
        <ele>190.8</ele>
        <time>2021-07-11T13:57:32Z</time>
      </trkpt>
      <trkpt lat="46.31174" lon="4.87357">
        <ele>191.8</ele>
        <time>2021-07-11T13:58:08Z</time>
      </trkpt>
      <trkpt lat="46.31176" lon="4.87362">
        <ele>191.8</ele>
        <time>2021-07-11T13:58:10Z</time>
      </trkpt>
      <trkpt lat="46.31192" lon="4.87374">
        <ele>191.8</ele>
        <time>2021-07-11T13:58:15Z</time>
      </trkpt>
      <trkpt lat="46.31222" lon="4.87393">
        <ele>191.6</ele>
        <time>2021-07-11T13:58:22Z</time>
      </trkpt>
      <trkpt lat="46.31258" lon="4.87416">
        <ele>191.6</ele>
        <time>2021-07-11T13:58:30Z</time>
      </trkpt>
      <trkpt lat="46.31296" lon="4.87437">
        <ele>191.6</ele>
        <time>2021-07-11T13:58:38Z</time>
      </trkpt>
      <trkpt lat="46.31318" lon="4.87448">
        <ele>191.6</ele>
        <time>2021-07-11T13:58:44Z</time>
      </trkpt>
      <trkpt lat="46.3132" lon="4.87452">
        <ele>191.4</ele>
        <time>2021-07-11T13:58:46Z</time>
      </trkpt>
      <trkpt lat="46.3132" lon="4.87454">
        <ele>191.4</ele>
        <time>2021-07-11T13:58:48Z</time>
      </trkpt>
      <trkpt lat="46.3132" lon="4.87454">
        <ele>191.4</ele>
        <time>2021-07-11T13:58:50Z</time>
      </trkpt>
    </trkseg>
  </trk>
</gpx>